<?xml version="1.0" encoding="UTF-8" standalone="no" ?>
<gpx xmlns="http://www.topografix.com/GPX/1/1" xmlns:xsi="http://www.w3.org/2001/XMLSchema-instance" xsi:schemaLocation="http://www.topografix.com/GPX/1/1 http://www.topografix.com/GPX/1/1/gpx.xsd" version="1.1" creator="VisuGPX - https://www.visugpx.com">
  <metadata>
    <name>Mix circuits 13-17-12</name>
    <desc><![CDATA[Et improvisation quand il n\'y a plus de signalisation ;-)]]></desc>
  </metadata>
  <trk>
    <name><![CDATA[2015-09-15-01-Mix 13 17]]></name>
    <trkseg>
      <trkpt lat="48.54103" lon="-2.80625">
        <ele>202.3</ele>
        <time>2015-09-15T12:26:40Z</time>
      </trkpt>
      <trkpt lat="48.54103" lon="-2.80625">
        <ele>202.3</ele>
        <time>2015-09-15T12:26:41Z</time>
      </trkpt>
      <trkpt lat="48.54092" lon="-2.8062">
        <ele>149.1</ele>
        <time>2015-09-15T12:27:02Z</time>
      </trkpt>
      <trkpt lat="48.54083" lon="-2.80613">
        <ele>144.9</ele>
        <time>2015-09-15T12:27:06Z</time>
      </trkpt>
      <trkpt lat="48.54072" lon="-2.80615">
        <ele>140.9</ele>
        <time>2015-09-15T12:27:11Z</time>
      </trkpt>
      <trkpt lat="48.54066" lon="-2.80624">
        <ele>138.6</ele>
        <time>2015-09-15T12:27:15Z</time>
      </trkpt>
      <trkpt lat="48.54057" lon="-2.80628">
        <ele>136.4</ele>
        <time>2015-09-15T12:27:20Z</time>
      </trkpt>
      <trkpt lat="48.54047" lon="-2.80634">
        <ele>135.4</ele>
        <time>2015-09-15T12:27:23Z</time>
      </trkpt>
      <trkpt lat="48.5404" lon="-2.80643">
        <ele>134.5</ele>
        <time>2015-09-15T12:27:26Z</time>
      </trkpt>
      <trkpt lat="48.54033" lon="-2.80656">
        <ele>133.8</ele>
        <time>2015-09-15T12:27:29Z</time>
      </trkpt>
      <trkpt lat="48.54027" lon="-2.80668">
        <ele>133.3</ele>
        <time>2015-09-15T12:27:32Z</time>
      </trkpt>
      <trkpt lat="48.5402" lon="-2.80683">
        <ele>132.8</ele>
        <time>2015-09-15T12:27:35Z</time>
      </trkpt>
      <trkpt lat="48.54013" lon="-2.80697">
        <ele>132.4</ele>
        <time>2015-09-15T12:27:38Z</time>
      </trkpt>
      <trkpt lat="48.54005" lon="-2.80712">
        <ele>132.1</ele>
        <time>2015-09-15T12:27:41Z</time>
      </trkpt>
      <trkpt lat="48.53997" lon="-2.80727">
        <ele>131.8</ele>
        <time>2015-09-15T12:27:44Z</time>
      </trkpt>
      <trkpt lat="48.53988" lon="-2.80743">
        <ele>131.6</ele>
        <time>2015-09-15T12:27:47Z</time>
      </trkpt>
      <trkpt lat="48.5398" lon="-2.80759">
        <ele>131.5</ele>
        <time>2015-09-15T12:27:50Z</time>
      </trkpt>
      <trkpt lat="48.53974" lon="-2.8077">
        <ele>131.4</ele>
        <time>2015-09-15T12:27:52Z</time>
      </trkpt>
      <trkpt lat="48.53968" lon="-2.80781">
        <ele>131.3</ele>
        <time>2015-09-15T12:27:54Z</time>
      </trkpt>
      <trkpt lat="48.53962" lon="-2.80792">
        <ele>131.2</ele>
        <time>2015-09-15T12:27:56Z</time>
      </trkpt>
      <trkpt lat="48.53957" lon="-2.80803">
        <ele>131.1</ele>
        <time>2015-09-15T12:27:58Z</time>
      </trkpt>
      <trkpt lat="48.53952" lon="-2.80813">
        <ele>131.1</ele>
        <time>2015-09-15T12:28:00Z</time>
      </trkpt>
      <trkpt lat="48.53946" lon="-2.80824">
        <ele>131</ele>
        <time>2015-09-15T12:28:02Z</time>
      </trkpt>
      <trkpt lat="48.53939" lon="-2.80834">
        <ele>131</ele>
        <time>2015-09-15T12:28:04Z</time>
      </trkpt>
      <trkpt lat="48.53932" lon="-2.80842">
        <ele>130.9</ele>
        <time>2015-09-15T12:28:06Z</time>
      </trkpt>
      <trkpt lat="48.53924" lon="-2.8085">
        <ele>130.9</ele>
        <time>2015-09-15T12:28:08Z</time>
      </trkpt>
      <trkpt lat="48.53916" lon="-2.80857">
        <ele>130.9</ele>
        <time>2015-09-15T12:28:10Z</time>
      </trkpt>
      <trkpt lat="48.53907" lon="-2.80864">
        <ele>130.8</ele>
        <time>2015-09-15T12:28:12Z</time>
      </trkpt>
      <trkpt lat="48.53899" lon="-2.80872">
        <ele>130.8</ele>
        <time>2015-09-15T12:28:14Z</time>
      </trkpt>
      <trkpt lat="48.53891" lon="-2.80882">
        <ele>130.7</ele>
        <time>2015-09-15T12:28:16Z</time>
      </trkpt>
      <trkpt lat="48.53884" lon="-2.80893">
        <ele>130.7</ele>
        <time>2015-09-15T12:28:18Z</time>
      </trkpt>
      <trkpt lat="48.53876" lon="-2.80906">
        <ele>130.6</ele>
        <time>2015-09-15T12:28:20Z</time>
      </trkpt>
      <trkpt lat="48.53869" lon="-2.80919">
        <ele>130.5</ele>
        <time>2015-09-15T12:28:22Z</time>
      </trkpt>
      <trkpt lat="48.53863" lon="-2.80933">
        <ele>130.3</ele>
        <time>2015-09-15T12:28:24Z</time>
      </trkpt>
      <trkpt lat="48.53855" lon="-2.80946">
        <ele>130.2</ele>
        <time>2015-09-15T12:28:26Z</time>
      </trkpt>
      <trkpt lat="48.53848" lon="-2.8096">
        <ele>130</ele>
        <time>2015-09-15T12:28:28Z</time>
      </trkpt>
      <trkpt lat="48.53841" lon="-2.80974">
        <ele>129.8</ele>
        <time>2015-09-15T12:28:30Z</time>
      </trkpt>
      <trkpt lat="48.53834" lon="-2.80988">
        <ele>129.5</ele>
        <time>2015-09-15T12:28:32Z</time>
      </trkpt>
      <trkpt lat="48.53826" lon="-2.81003">
        <ele>129.3</ele>
        <time>2015-09-15T12:28:34Z</time>
      </trkpt>
      <trkpt lat="48.53819" lon="-2.81019">
        <ele>129</ele>
        <time>2015-09-15T12:28:36Z</time>
      </trkpt>
      <trkpt lat="48.5381" lon="-2.81035">
        <ele>128.7</ele>
        <time>2015-09-15T12:28:38Z</time>
      </trkpt>
      <trkpt lat="48.53802" lon="-2.81052">
        <ele>128.4</ele>
        <time>2015-09-15T12:28:40Z</time>
      </trkpt>
      <trkpt lat="48.53795" lon="-2.8107">
        <ele>127.9</ele>
        <time>2015-09-15T12:28:42Z</time>
      </trkpt>
      <trkpt lat="48.53788" lon="-2.81087">
        <ele>127.5</ele>
        <time>2015-09-15T12:28:44Z</time>
      </trkpt>
      <trkpt lat="48.53782" lon="-2.81105">
        <ele>127.1</ele>
        <time>2015-09-15T12:28:46Z</time>
      </trkpt>
      <trkpt lat="48.53777" lon="-2.81123">
        <ele>126.7</ele>
        <time>2015-09-15T12:28:48Z</time>
      </trkpt>
      <trkpt lat="48.53772" lon="-2.8114">
        <ele>126.3</ele>
        <time>2015-09-15T12:28:50Z</time>
      </trkpt>
      <trkpt lat="48.5377" lon="-2.81157">
        <ele>126</ele>
        <time>2015-09-15T12:28:52Z</time>
      </trkpt>
      <trkpt lat="48.53768" lon="-2.81173">
        <ele>125.7</ele>
        <time>2015-09-15T12:28:54Z</time>
      </trkpt>
      <trkpt lat="48.53766" lon="-2.8119">
        <ele>125.4</ele>
        <time>2015-09-15T12:28:56Z</time>
      </trkpt>
      <trkpt lat="48.53764" lon="-2.81205">
        <ele>125.2</ele>
        <time>2015-09-15T12:28:58Z</time>
      </trkpt>
      <trkpt lat="48.53761" lon="-2.8122">
        <ele>125</ele>
        <time>2015-09-15T12:29:00Z</time>
      </trkpt>
      <trkpt lat="48.53758" lon="-2.81234">
        <ele>125</ele>
        <time>2015-09-15T12:29:02Z</time>
      </trkpt>
      <trkpt lat="48.53756" lon="-2.81248">
        <ele>124.9</ele>
        <time>2015-09-15T12:29:04Z</time>
      </trkpt>
      <trkpt lat="48.53753" lon="-2.81261">
        <ele>124.9</ele>
        <time>2015-09-15T12:29:06Z</time>
      </trkpt>
      <trkpt lat="48.53749" lon="-2.81273">
        <ele>124.9</ele>
        <time>2015-09-15T12:29:08Z</time>
      </trkpt>
      <trkpt lat="48.53745" lon="-2.81286">
        <ele>124.9</ele>
        <time>2015-09-15T12:29:10Z</time>
      </trkpt>
      <trkpt lat="48.5374" lon="-2.81297">
        <ele>124.9</ele>
        <time>2015-09-15T12:29:12Z</time>
      </trkpt>
      <trkpt lat="48.53734" lon="-2.81308">
        <ele>124.9</ele>
        <time>2015-09-15T12:29:14Z</time>
      </trkpt>
      <trkpt lat="48.53727" lon="-2.81316">
        <ele>124.9</ele>
        <time>2015-09-15T12:29:16Z</time>
      </trkpt>
      <trkpt lat="48.53716" lon="-2.81327">
        <ele>125</ele>
        <time>2015-09-15T12:29:19Z</time>
      </trkpt>
      <trkpt lat="48.53708" lon="-2.81336">
        <ele>125</ele>
        <time>2015-09-15T12:29:21Z</time>
      </trkpt>
      <trkpt lat="48.53699" lon="-2.81344">
        <ele>125</ele>
        <time>2015-09-15T12:29:23Z</time>
      </trkpt>
      <trkpt lat="48.53691" lon="-2.81354">
        <ele>125</ele>
        <time>2015-09-15T12:29:25Z</time>
      </trkpt>
      <trkpt lat="48.53683" lon="-2.81365">
        <ele>125</ele>
        <time>2015-09-15T12:29:27Z</time>
      </trkpt>
      <trkpt lat="48.53675" lon="-2.81376">
        <ele>124.9</ele>
        <time>2015-09-15T12:29:29Z</time>
      </trkpt>
      <trkpt lat="48.53668" lon="-2.81388">
        <ele>124.8</ele>
        <time>2015-09-15T12:29:31Z</time>
      </trkpt>
      <trkpt lat="48.5366" lon="-2.814">
        <ele>124.7</ele>
        <time>2015-09-15T12:29:33Z</time>
      </trkpt>
      <trkpt lat="48.53652" lon="-2.81414">
        <ele>124.6</ele>
        <time>2015-09-15T12:29:35Z</time>
      </trkpt>
      <trkpt lat="48.53644" lon="-2.81428">
        <ele>124.4</ele>
        <time>2015-09-15T12:29:37Z</time>
      </trkpt>
      <trkpt lat="48.53635" lon="-2.81441">
        <ele>124.2</ele>
        <time>2015-09-15T12:29:39Z</time>
      </trkpt>
      <trkpt lat="48.53627" lon="-2.81454">
        <ele>124</ele>
        <time>2015-09-15T12:29:41Z</time>
      </trkpt>
      <trkpt lat="48.53619" lon="-2.81468">
        <ele>123.8</ele>
        <time>2015-09-15T12:29:43Z</time>
      </trkpt>
      <trkpt lat="48.53611" lon="-2.81482">
        <ele>123.6</ele>
        <time>2015-09-15T12:29:45Z</time>
      </trkpt>
      <trkpt lat="48.53603" lon="-2.81496">
        <ele>123.4</ele>
        <time>2015-09-15T12:29:47Z</time>
      </trkpt>
      <trkpt lat="48.53596" lon="-2.81511">
        <ele>123.2</ele>
        <time>2015-09-15T12:29:49Z</time>
      </trkpt>
      <trkpt lat="48.53591" lon="-2.81527">
        <ele>123</ele>
        <time>2015-09-15T12:29:51Z</time>
      </trkpt>
      <trkpt lat="48.53587" lon="-2.81543">
        <ele>122.8</ele>
        <time>2015-09-15T12:29:53Z</time>
      </trkpt>
      <trkpt lat="48.53582" lon="-2.81559">
        <ele>122.6</ele>
        <time>2015-09-15T12:29:55Z</time>
      </trkpt>
      <trkpt lat="48.53577" lon="-2.81574">
        <ele>122.4</ele>
        <time>2015-09-15T12:29:57Z</time>
      </trkpt>
      <trkpt lat="48.53572" lon="-2.81589">
        <ele>122.3</ele>
        <time>2015-09-15T12:29:59Z</time>
      </trkpt>
      <trkpt lat="48.53567" lon="-2.81602">
        <ele>122.1</ele>
        <time>2015-09-15T12:30:01Z</time>
      </trkpt>
      <trkpt lat="48.53561" lon="-2.81616">
        <ele>122</ele>
        <time>2015-09-15T12:30:03Z</time>
      </trkpt>
      <trkpt lat="48.53555" lon="-2.81629">
        <ele>121.9</ele>
        <time>2015-09-15T12:30:05Z</time>
      </trkpt>
      <trkpt lat="48.53549" lon="-2.81641">
        <ele>121.8</ele>
        <time>2015-09-15T12:30:07Z</time>
      </trkpt>
      <trkpt lat="48.53542" lon="-2.81653">
        <ele>121.7</ele>
        <time>2015-09-15T12:30:09Z</time>
      </trkpt>
      <trkpt lat="48.53535" lon="-2.81666">
        <ele>121.6</ele>
        <time>2015-09-15T12:30:11Z</time>
      </trkpt>
      <trkpt lat="48.53528" lon="-2.81678">
        <ele>121.5</ele>
        <time>2015-09-15T12:30:13Z</time>
      </trkpt>
      <trkpt lat="48.53521" lon="-2.8169">
        <ele>121.5</ele>
        <time>2015-09-15T12:30:15Z</time>
      </trkpt>
      <trkpt lat="48.53515" lon="-2.81703">
        <ele>121.4</ele>
        <time>2015-09-15T12:30:17Z</time>
      </trkpt>
      <trkpt lat="48.53509" lon="-2.81715">
        <ele>121.4</ele>
        <time>2015-09-15T12:30:19Z</time>
      </trkpt>
      <trkpt lat="48.53502" lon="-2.81728">
        <ele>121.4</ele>
        <time>2015-09-15T12:30:21Z</time>
      </trkpt>
      <trkpt lat="48.53496" lon="-2.81741">
        <ele>121.3</ele>
        <time>2015-09-15T12:30:23Z</time>
      </trkpt>
      <trkpt lat="48.5349" lon="-2.81755">
        <ele>121.3</ele>
        <time>2015-09-15T12:30:25Z</time>
      </trkpt>
      <trkpt lat="48.53484" lon="-2.81769">
        <ele>121.3</ele>
        <time>2015-09-15T12:30:27Z</time>
      </trkpt>
      <trkpt lat="48.53478" lon="-2.81782">
        <ele>121.2</ele>
        <time>2015-09-15T12:30:29Z</time>
      </trkpt>
      <trkpt lat="48.53471" lon="-2.81796">
        <ele>121.2</ele>
        <time>2015-09-15T12:30:31Z</time>
      </trkpt>
      <trkpt lat="48.53463" lon="-2.81808">
        <ele>121.2</ele>
        <time>2015-09-15T12:30:33Z</time>
      </trkpt>
      <trkpt lat="48.53455" lon="-2.81818">
        <ele>121.1</ele>
        <time>2015-09-15T12:30:35Z</time>
      </trkpt>
      <trkpt lat="48.53445" lon="-2.81826">
        <ele>121</ele>
        <time>2015-09-15T12:30:37Z</time>
      </trkpt>
      <trkpt lat="48.53436" lon="-2.81835">
        <ele>120.9</ele>
        <time>2015-09-15T12:30:39Z</time>
      </trkpt>
      <trkpt lat="48.53427" lon="-2.81844">
        <ele>120.7</ele>
        <time>2015-09-15T12:30:41Z</time>
      </trkpt>
      <trkpt lat="48.53418" lon="-2.81854">
        <ele>120.6</ele>
        <time>2015-09-15T12:30:43Z</time>
      </trkpt>
      <trkpt lat="48.5341" lon="-2.81865">
        <ele>120.5</ele>
        <time>2015-09-15T12:30:45Z</time>
      </trkpt>
      <trkpt lat="48.53403" lon="-2.81877">
        <ele>120.3</ele>
        <time>2015-09-15T12:30:47Z</time>
      </trkpt>
      <trkpt lat="48.53395" lon="-2.81888">
        <ele>120.2</ele>
        <time>2015-09-15T12:30:49Z</time>
      </trkpt>
      <trkpt lat="48.53389" lon="-2.81901">
        <ele>120.1</ele>
        <time>2015-09-15T12:30:51Z</time>
      </trkpt>
      <trkpt lat="48.53383" lon="-2.81914">
        <ele>120</ele>
        <time>2015-09-15T12:30:53Z</time>
      </trkpt>
      <trkpt lat="48.53377" lon="-2.81928">
        <ele>119.9</ele>
        <time>2015-09-15T12:30:55Z</time>
      </trkpt>
      <trkpt lat="48.53372" lon="-2.81943">
        <ele>119.9</ele>
        <time>2015-09-15T12:30:57Z</time>
      </trkpt>
      <trkpt lat="48.53369" lon="-2.8196">
        <ele>119.8</ele>
        <time>2015-09-15T12:30:59Z</time>
      </trkpt>
      <trkpt lat="48.53367" lon="-2.81979">
        <ele>119.7</ele>
        <time>2015-09-15T12:31:01Z</time>
      </trkpt>
      <trkpt lat="48.53368" lon="-2.81999">
        <ele>119.5</ele>
        <time>2015-09-15T12:31:03Z</time>
      </trkpt>
      <trkpt lat="48.5337" lon="-2.82018">
        <ele>119.3</ele>
        <time>2015-09-15T12:31:05Z</time>
      </trkpt>
      <trkpt lat="48.53372" lon="-2.82036">
        <ele>119.2</ele>
        <time>2015-09-15T12:31:07Z</time>
      </trkpt>
      <trkpt lat="48.53376" lon="-2.82054">
        <ele>118.9</ele>
        <time>2015-09-15T12:31:09Z</time>
      </trkpt>
      <trkpt lat="48.53379" lon="-2.82072">
        <ele>118.7</ele>
        <time>2015-09-15T12:31:11Z</time>
      </trkpt>
      <trkpt lat="48.53382" lon="-2.82089">
        <ele>118.6</ele>
        <time>2015-09-15T12:31:13Z</time>
      </trkpt>
      <trkpt lat="48.53385" lon="-2.82107">
        <ele>118.4</ele>
        <time>2015-09-15T12:31:15Z</time>
      </trkpt>
      <trkpt lat="48.53387" lon="-2.82126">
        <ele>118.2</ele>
        <time>2015-09-15T12:31:17Z</time>
      </trkpt>
      <trkpt lat="48.53386" lon="-2.82147">
        <ele>117.9</ele>
        <time>2015-09-15T12:31:19Z</time>
      </trkpt>
      <trkpt lat="48.53382" lon="-2.82169">
        <ele>117.5</ele>
        <time>2015-09-15T12:31:21Z</time>
      </trkpt>
      <trkpt lat="48.53375" lon="-2.82191">
        <ele>116.8</ele>
        <time>2015-09-15T12:31:23Z</time>
      </trkpt>
      <trkpt lat="48.53367" lon="-2.82212">
        <ele>116.2</ele>
        <time>2015-09-15T12:31:25Z</time>
      </trkpt>
      <trkpt lat="48.5336" lon="-2.82232">
        <ele>115.5</ele>
        <time>2015-09-15T12:31:27Z</time>
      </trkpt>
      <trkpt lat="48.5335" lon="-2.82249">
        <ele>114.8</ele>
        <time>2015-09-15T12:31:29Z</time>
      </trkpt>
      <trkpt lat="48.5334" lon="-2.82265">
        <ele>114.2</ele>
        <time>2015-09-15T12:31:31Z</time>
      </trkpt>
      <trkpt lat="48.5333" lon="-2.8228">
        <ele>113.5</ele>
        <time>2015-09-15T12:31:33Z</time>
      </trkpt>
      <trkpt lat="48.53323" lon="-2.82291">
        <ele>112.7</ele>
        <time>2015-09-15T12:31:35Z</time>
      </trkpt>
      <trkpt lat="48.53328" lon="-2.82306">
        <ele>110.9</ele>
        <time>2015-09-15T12:31:39Z</time>
      </trkpt>
      <trkpt lat="48.53336" lon="-2.82319">
        <ele>109.6</ele>
        <time>2015-09-15T12:31:43Z</time>
      </trkpt>
      <trkpt lat="48.53343" lon="-2.82328">
        <ele>108.8</ele>
        <time>2015-09-15T12:31:46Z</time>
      </trkpt>
      <trkpt lat="48.53352" lon="-2.82335">
        <ele>108.5</ele>
        <time>2015-09-15T12:31:48Z</time>
      </trkpt>
      <trkpt lat="48.53361" lon="-2.82343">
        <ele>108.3</ele>
        <time>2015-09-15T12:31:51Z</time>
      </trkpt>
      <trkpt lat="48.53372" lon="-2.82351">
        <ele>108.3</ele>
        <time>2015-09-15T12:31:54Z</time>
      </trkpt>
      <trkpt lat="48.53383" lon="-2.82362">
        <ele>108.5</ele>
        <time>2015-09-15T12:31:57Z</time>
      </trkpt>
      <trkpt lat="48.5339" lon="-2.82371">
        <ele>108.6</ele>
        <time>2015-09-15T12:31:59Z</time>
      </trkpt>
      <trkpt lat="48.53392" lon="-2.82388">
        <ele>108.9</ele>
        <time>2015-09-15T12:32:02Z</time>
      </trkpt>
      <trkpt lat="48.53386" lon="-2.82403">
        <ele>109.1</ele>
        <time>2015-09-15T12:32:05Z</time>
      </trkpt>
      <trkpt lat="48.53384" lon="-2.82421">
        <ele>109.3</ele>
        <time>2015-09-15T12:32:08Z</time>
      </trkpt>
      <trkpt lat="48.5339" lon="-2.82433">
        <ele>109.4</ele>
        <time>2015-09-15T12:32:10Z</time>
      </trkpt>
      <trkpt lat="48.53396" lon="-2.82444">
        <ele>109.5</ele>
        <time>2015-09-15T12:32:12Z</time>
      </trkpt>
      <trkpt lat="48.53402" lon="-2.82459">
        <ele>109.5</ele>
        <time>2015-09-15T12:32:14Z</time>
      </trkpt>
      <trkpt lat="48.53409" lon="-2.82469">
        <ele>109.1</ele>
        <time>2015-09-15T12:32:16Z</time>
      </trkpt>
      <trkpt lat="48.53419" lon="-2.82468">
        <ele>108.4</ele>
        <time>2015-09-15T12:32:18Z</time>
      </trkpt>
      <trkpt lat="48.53428" lon="-2.82465">
        <ele>107.5</ele>
        <time>2015-09-15T12:32:20Z</time>
      </trkpt>
      <trkpt lat="48.53429" lon="-2.82479">
        <ele>104.3</ele>
        <time>2015-09-15T12:32:26Z</time>
      </trkpt>
      <trkpt lat="48.5344" lon="-2.82478">
        <ele>101.5</ele>
        <time>2015-09-15T12:32:31Z</time>
      </trkpt>
      <trkpt lat="48.5345" lon="-2.82473">
        <ele>98.8</ele>
        <time>2015-09-15T12:32:36Z</time>
      </trkpt>
      <trkpt lat="48.53445" lon="-2.82488">
        <ele>96.4</ele>
        <time>2015-09-15T12:32:40Z</time>
      </trkpt>
      <trkpt lat="48.5344" lon="-2.82502">
        <ele>94.5</ele>
        <time>2015-09-15T12:32:43Z</time>
      </trkpt>
      <trkpt lat="48.53449" lon="-2.82511">
        <ele>90.1</ele>
        <time>2015-09-15T12:32:49Z</time>
      </trkpt>
      <trkpt lat="48.53459" lon="-2.82512">
        <ele>87.7</ele>
        <time>2015-09-15T12:32:52Z</time>
      </trkpt>
      <trkpt lat="48.5347" lon="-2.82508">
        <ele>85.2</ele>
        <time>2015-09-15T12:32:55Z</time>
      </trkpt>
      <trkpt lat="48.5348" lon="-2.82502">
        <ele>83.1</ele>
        <time>2015-09-15T12:32:58Z</time>
      </trkpt>
      <trkpt lat="48.53494" lon="-2.82502">
        <ele>80.8</ele>
        <time>2015-09-15T12:33:02Z</time>
      </trkpt>
      <trkpt lat="48.53509" lon="-2.825">
        <ele>79.9</ele>
        <time>2015-09-15T12:33:04Z</time>
      </trkpt>
      <trkpt lat="48.53521" lon="-2.825">
        <ele>78.7</ele>
        <time>2015-09-15T12:33:07Z</time>
      </trkpt>
      <trkpt lat="48.53532" lon="-2.82494">
        <ele>78</ele>
        <time>2015-09-15T12:33:10Z</time>
      </trkpt>
      <trkpt lat="48.53543" lon="-2.8249">
        <ele>77.5</ele>
        <time>2015-09-15T12:33:15Z</time>
      </trkpt>
      <trkpt lat="48.53554" lon="-2.82487">
        <ele>77.4</ele>
        <time>2015-09-15T12:33:23Z</time>
      </trkpt>
      <trkpt lat="48.53564" lon="-2.82485">
        <ele>77.7</ele>
        <time>2015-09-15T12:33:29Z</time>
      </trkpt>
      <trkpt lat="48.53574" lon="-2.82487">
        <ele>77.9</ele>
        <time>2015-09-15T12:33:33Z</time>
      </trkpt>
      <trkpt lat="48.53586" lon="-2.8249">
        <ele>78</ele>
        <time>2015-09-15T12:33:37Z</time>
      </trkpt>
      <trkpt lat="48.53599" lon="-2.82491">
        <ele>78.1</ele>
        <time>2015-09-15T12:33:40Z</time>
      </trkpt>
      <trkpt lat="48.53612" lon="-2.82491">
        <ele>78.2</ele>
        <time>2015-09-15T12:33:43Z</time>
      </trkpt>
      <trkpt lat="48.53622" lon="-2.8249">
        <ele>78.3</ele>
        <time>2015-09-15T12:33:46Z</time>
      </trkpt>
      <trkpt lat="48.53632" lon="-2.82486">
        <ele>78.7</ele>
        <time>2015-09-15T12:33:50Z</time>
      </trkpt>
      <trkpt lat="48.53644" lon="-2.82483">
        <ele>79.3</ele>
        <time>2015-09-15T12:33:54Z</time>
      </trkpt>
      <trkpt lat="48.53654" lon="-2.8248">
        <ele>79.7</ele>
        <time>2015-09-15T12:33:57Z</time>
      </trkpt>
      <trkpt lat="48.53663" lon="-2.82475">
        <ele>80.2</ele>
        <time>2015-09-15T12:34:00Z</time>
      </trkpt>
      <trkpt lat="48.53675" lon="-2.82473">
        <ele>80.7</ele>
        <time>2015-09-15T12:34:03Z</time>
      </trkpt>
      <trkpt lat="48.53684" lon="-2.82467">
        <ele>81.1</ele>
        <time>2015-09-15T12:34:06Z</time>
      </trkpt>
      <trkpt lat="48.53694" lon="-2.8246">
        <ele>82</ele>
        <time>2015-09-15T12:34:10Z</time>
      </trkpt>
      <trkpt lat="48.53705" lon="-2.82457">
        <ele>82.8</ele>
        <time>2015-09-15T12:34:14Z</time>
      </trkpt>
      <trkpt lat="48.53716" lon="-2.82448">
        <ele>83.4</ele>
        <time>2015-09-15T12:34:17Z</time>
      </trkpt>
      <trkpt lat="48.53723" lon="-2.82439">
        <ele>83.8</ele>
        <time>2015-09-15T12:34:20Z</time>
      </trkpt>
      <trkpt lat="48.5373" lon="-2.82424">
        <ele>84.8</ele>
        <time>2015-09-15T12:34:24Z</time>
      </trkpt>
      <trkpt lat="48.53737" lon="-2.82415">
        <ele>85.9</ele>
        <time>2015-09-15T12:34:29Z</time>
      </trkpt>
      <trkpt lat="48.53745" lon="-2.82406">
        <ele>86.6</ele>
        <time>2015-09-15T12:34:33Z</time>
      </trkpt>
      <trkpt lat="48.53751" lon="-2.82395">
        <ele>87.1</ele>
        <time>2015-09-15T12:34:36Z</time>
      </trkpt>
      <trkpt lat="48.53756" lon="-2.82381">
        <ele>88</ele>
        <time>2015-09-15T12:34:42Z</time>
      </trkpt>
      <trkpt lat="48.53763" lon="-2.82366">
        <ele>89.1</ele>
        <time>2015-09-15T12:34:47Z</time>
      </trkpt>
      <trkpt lat="48.53767" lon="-2.82354">
        <ele>89.7</ele>
        <time>2015-09-15T12:34:50Z</time>
      </trkpt>
      <trkpt lat="48.53772" lon="-2.82343">
        <ele>91</ele>
        <time>2015-09-15T12:34:56Z</time>
      </trkpt>
      <trkpt lat="48.53783" lon="-2.82343">
        <ele>91.8</ele>
        <time>2015-09-15T12:35:00Z</time>
      </trkpt>
      <trkpt lat="48.53792" lon="-2.8235">
        <ele>92.4</ele>
        <time>2015-09-15T12:35:04Z</time>
      </trkpt>
      <trkpt lat="48.53794" lon="-2.82369">
        <ele>92.7</ele>
        <time>2015-09-15T12:35:09Z</time>
      </trkpt>
      <trkpt lat="48.53792" lon="-2.82383">
        <ele>92.6</ele>
        <time>2015-09-15T12:35:12Z</time>
      </trkpt>
      <trkpt lat="48.53794" lon="-2.82397">
        <ele>92.7</ele>
        <time>2015-09-15T12:35:19Z</time>
      </trkpt>
      <trkpt lat="48.53789" lon="-2.8241">
        <ele>93.1</ele>
        <time>2015-09-15T12:35:24Z</time>
      </trkpt>
      <trkpt lat="48.53782" lon="-2.82426">
        <ele>93.1</ele>
        <time>2015-09-15T12:35:27Z</time>
      </trkpt>
      <trkpt lat="48.53778" lon="-2.82443">
        <ele>93</ele>
        <time>2015-09-15T12:35:30Z</time>
      </trkpt>
      <trkpt lat="48.53773" lon="-2.82456">
        <ele>92.9</ele>
        <time>2015-09-15T12:35:33Z</time>
      </trkpt>
      <trkpt lat="48.53767" lon="-2.82469">
        <ele>92.8</ele>
        <time>2015-09-15T12:35:36Z</time>
      </trkpt>
      <trkpt lat="48.53762" lon="-2.82483">
        <ele>92.8</ele>
        <time>2015-09-15T12:35:40Z</time>
      </trkpt>
      <trkpt lat="48.53758" lon="-2.82495">
        <ele>92.8</ele>
        <time>2015-09-15T12:35:43Z</time>
      </trkpt>
      <trkpt lat="48.53747" lon="-2.82507">
        <ele>93</ele>
        <time>2015-09-15T12:35:47Z</time>
      </trkpt>
      <trkpt lat="48.5374" lon="-2.82517">
        <ele>92.9</ele>
        <time>2015-09-15T12:35:49Z</time>
      </trkpt>
      <trkpt lat="48.53731" lon="-2.82524">
        <ele>92.5</ele>
        <time>2015-09-15T12:35:52Z</time>
      </trkpt>
      <trkpt lat="48.53735" lon="-2.82539">
        <ele>91.5</ele>
        <time>2015-09-15T12:35:56Z</time>
      </trkpt>
      <trkpt lat="48.53741" lon="-2.82549">
        <ele>90.7</ele>
        <time>2015-09-15T12:36:01Z</time>
      </trkpt>
      <trkpt lat="48.53749" lon="-2.82562">
        <ele>90.2</ele>
        <time>2015-09-15T12:36:06Z</time>
      </trkpt>
      <trkpt lat="48.53757" lon="-2.82572">
        <ele>89.9</ele>
        <time>2015-09-15T12:36:10Z</time>
      </trkpt>
      <trkpt lat="48.53763" lon="-2.82584">
        <ele>89.9</ele>
        <time>2015-09-15T12:36:14Z</time>
      </trkpt>
      <trkpt lat="48.53771" lon="-2.82594">
        <ele>90</ele>
        <time>2015-09-15T12:36:18Z</time>
      </trkpt>
      <trkpt lat="48.53778" lon="-2.82603">
        <ele>90.4</ele>
        <time>2015-09-15T12:36:22Z</time>
      </trkpt>
      <trkpt lat="48.53785" lon="-2.82613">
        <ele>91.2</ele>
        <time>2015-09-15T12:36:27Z</time>
      </trkpt>
      <trkpt lat="48.53791" lon="-2.82624">
        <ele>92.6</ele>
        <time>2015-09-15T12:36:33Z</time>
      </trkpt>
      <trkpt lat="48.53784" lon="-2.82637">
        <ele>92.9</ele>
        <time>2015-09-15T12:36:35Z</time>
      </trkpt>
      <trkpt lat="48.53778" lon="-2.82651">
        <ele>93</ele>
        <time>2015-09-15T12:36:37Z</time>
      </trkpt>
      <trkpt lat="48.5377" lon="-2.82658">
        <ele>93.1</ele>
        <time>2015-09-15T12:36:40Z</time>
      </trkpt>
      <trkpt lat="48.53771" lon="-2.82672">
        <ele>93.3</ele>
        <time>2015-09-15T12:36:46Z</time>
      </trkpt>
      <trkpt lat="48.53777" lon="-2.82684">
        <ele>93.7</ele>
        <time>2015-09-15T12:36:51Z</time>
      </trkpt>
      <trkpt lat="48.53781" lon="-2.82698">
        <ele>94.1</ele>
        <time>2015-09-15T12:36:55Z</time>
      </trkpt>
      <trkpt lat="48.53785" lon="-2.82711">
        <ele>94.7</ele>
        <time>2015-09-15T12:36:59Z</time>
      </trkpt>
      <trkpt lat="48.53787" lon="-2.82726">
        <ele>95.2</ele>
        <time>2015-09-15T12:37:03Z</time>
      </trkpt>
      <trkpt lat="48.5379" lon="-2.82739">
        <ele>95.8</ele>
        <time>2015-09-15T12:37:07Z</time>
      </trkpt>
      <trkpt lat="48.53791" lon="-2.82754">
        <ele>96.4</ele>
        <time>2015-09-15T12:37:11Z</time>
      </trkpt>
      <trkpt lat="48.53791" lon="-2.82771">
        <ele>97.1</ele>
        <time>2015-09-15T12:37:15Z</time>
      </trkpt>
      <trkpt lat="48.53793" lon="-2.82785">
        <ele>97.7</ele>
        <time>2015-09-15T12:37:19Z</time>
      </trkpt>
      <trkpt lat="48.53796" lon="-2.82801">
        <ele>98.6</ele>
        <time>2015-09-15T12:37:24Z</time>
      </trkpt>
      <trkpt lat="48.53799" lon="-2.82817">
        <ele>99.6</ele>
        <time>2015-09-15T12:37:29Z</time>
      </trkpt>
      <trkpt lat="48.53801" lon="-2.82831">
        <ele>100.3</ele>
        <time>2015-09-15T12:37:33Z</time>
      </trkpt>
      <trkpt lat="48.53802" lon="-2.82846">
        <ele>101.2</ele>
        <time>2015-09-15T12:37:37Z</time>
      </trkpt>
      <trkpt lat="48.53802" lon="-2.8286">
        <ele>102.1</ele>
        <time>2015-09-15T12:37:41Z</time>
      </trkpt>
      <trkpt lat="48.53803" lon="-2.82875">
        <ele>102.9</ele>
        <time>2015-09-15T12:37:45Z</time>
      </trkpt>
      <trkpt lat="48.53797" lon="-2.82887">
        <ele>104.2</ele>
        <time>2015-09-15T12:37:51Z</time>
      </trkpt>
      <trkpt lat="48.5379" lon="-2.82896">
        <ele>105.6</ele>
        <time>2015-09-15T12:37:57Z</time>
      </trkpt>
      <trkpt lat="48.53783" lon="-2.82905">
        <ele>107.4</ele>
        <time>2015-09-15T12:38:05Z</time>
      </trkpt>
      <trkpt lat="48.53775" lon="-2.82914">
        <ele>108.5</ele>
        <time>2015-09-15T12:38:10Z</time>
      </trkpt>
      <trkpt lat="48.5377" lon="-2.82926">
        <ele>109.4</ele>
        <time>2015-09-15T12:38:14Z</time>
      </trkpt>
      <trkpt lat="48.53764" lon="-2.82939">
        <ele>110.2</ele>
        <time>2015-09-15T12:38:18Z</time>
      </trkpt>
      <trkpt lat="48.53758" lon="-2.82953">
        <ele>111.2</ele>
        <time>2015-09-15T12:38:23Z</time>
      </trkpt>
      <trkpt lat="48.53753" lon="-2.82968">
        <ele>112.1</ele>
        <time>2015-09-15T12:38:28Z</time>
      </trkpt>
      <trkpt lat="48.53749" lon="-2.82982">
        <ele>113.1</ele>
        <time>2015-09-15T12:38:33Z</time>
      </trkpt>
      <trkpt lat="48.53746" lon="-2.82995">
        <ele>114</ele>
        <time>2015-09-15T12:38:38Z</time>
      </trkpt>
      <trkpt lat="48.53742" lon="-2.8301">
        <ele>115.2</ele>
        <time>2015-09-15T12:38:45Z</time>
      </trkpt>
      <trkpt lat="48.53734" lon="-2.8302">
        <ele>115.9</ele>
        <time>2015-09-15T12:38:49Z</time>
      </trkpt>
      <trkpt lat="48.53729" lon="-2.83032">
        <ele>117.1</ele>
        <time>2015-09-15T12:38:58Z</time>
      </trkpt>
      <trkpt lat="48.53724" lon="-2.83045">
        <ele>117.8</ele>
        <time>2015-09-15T12:39:03Z</time>
      </trkpt>
      <trkpt lat="48.53718" lon="-2.83055">
        <ele>118.4</ele>
        <time>2015-09-15T12:39:07Z</time>
      </trkpt>
      <trkpt lat="48.53712" lon="-2.83066">
        <ele>118.8</ele>
        <time>2015-09-15T12:39:11Z</time>
      </trkpt>
      <trkpt lat="48.53707" lon="-2.83081">
        <ele>119.4</ele>
        <time>2015-09-15T12:39:15Z</time>
      </trkpt>
      <trkpt lat="48.53704" lon="-2.83097">
        <ele>119.9</ele>
        <time>2015-09-15T12:39:19Z</time>
      </trkpt>
      <trkpt lat="48.53699" lon="-2.83113">
        <ele>120.4</ele>
        <time>2015-09-15T12:39:23Z</time>
      </trkpt>
      <trkpt lat="48.53695" lon="-2.83129">
        <ele>120.7</ele>
        <time>2015-09-15T12:39:27Z</time>
      </trkpt>
      <trkpt lat="48.53693" lon="-2.83143">
        <ele>120.9</ele>
        <time>2015-09-15T12:39:30Z</time>
      </trkpt>
      <trkpt lat="48.53694" lon="-2.83158">
        <ele>121.1</ele>
        <time>2015-09-15T12:39:33Z</time>
      </trkpt>
      <trkpt lat="48.53697" lon="-2.83172">
        <ele>121.2</ele>
        <time>2015-09-15T12:39:36Z</time>
      </trkpt>
      <trkpt lat="48.53695" lon="-2.83187">
        <ele>121.4</ele>
        <time>2015-09-15T12:39:39Z</time>
      </trkpt>
      <trkpt lat="48.53688" lon="-2.832">
        <ele>121.5</ele>
        <time>2015-09-15T12:39:42Z</time>
      </trkpt>
      <trkpt lat="48.53681" lon="-2.83213">
        <ele>121.6</ele>
        <time>2015-09-15T12:39:45Z</time>
      </trkpt>
      <trkpt lat="48.53673" lon="-2.83225">
        <ele>121.8</ele>
        <time>2015-09-15T12:39:48Z</time>
      </trkpt>
      <trkpt lat="48.53664" lon="-2.83238">
        <ele>122</ele>
        <time>2015-09-15T12:39:51Z</time>
      </trkpt>
      <trkpt lat="48.53655" lon="-2.83251">
        <ele>122.1</ele>
        <time>2015-09-15T12:39:54Z</time>
      </trkpt>
      <trkpt lat="48.53648" lon="-2.83261">
        <ele>122.2</ele>
        <time>2015-09-15T12:39:56Z</time>
      </trkpt>
      <trkpt lat="48.53642" lon="-2.83272">
        <ele>122.2</ele>
        <time>2015-09-15T12:39:58Z</time>
      </trkpt>
      <trkpt lat="48.53635" lon="-2.83284">
        <ele>122.2</ele>
        <time>2015-09-15T12:40:00Z</time>
      </trkpt>
      <trkpt lat="48.53626" lon="-2.83297">
        <ele>122.2</ele>
        <time>2015-09-15T12:40:02Z</time>
      </trkpt>
      <trkpt lat="48.53618" lon="-2.83308">
        <ele>122.1</ele>
        <time>2015-09-15T12:40:04Z</time>
      </trkpt>
      <trkpt lat="48.53607" lon="-2.83316">
        <ele>121.7</ele>
        <time>2015-09-15T12:40:08Z</time>
      </trkpt>
      <trkpt lat="48.53598" lon="-2.83325">
        <ele>121</ele>
        <time>2015-09-15T12:40:11Z</time>
      </trkpt>
      <trkpt lat="48.53588" lon="-2.83333">
        <ele>119.7</ele>
        <time>2015-09-15T12:40:14Z</time>
      </trkpt>
      <trkpt lat="48.53576" lon="-2.83334">
        <ele>118.7</ele>
        <time>2015-09-15T12:40:16Z</time>
      </trkpt>
      <trkpt lat="48.53566" lon="-2.83332">
        <ele>117.4</ele>
        <time>2015-09-15T12:40:18Z</time>
      </trkpt>
      <trkpt lat="48.53554" lon="-2.83327">
        <ele>115.5</ele>
        <time>2015-09-15T12:40:21Z</time>
      </trkpt>
      <trkpt lat="48.53547" lon="-2.83317">
        <ele>114.2</ele>
        <time>2015-09-15T12:40:23Z</time>
      </trkpt>
      <trkpt lat="48.53539" lon="-2.83303">
        <ele>112.3</ele>
        <time>2015-09-15T12:40:26Z</time>
      </trkpt>
      <trkpt lat="48.5353" lon="-2.83294">
        <ele>111.1</ele>
        <time>2015-09-15T12:40:28Z</time>
      </trkpt>
      <trkpt lat="48.53521" lon="-2.83285">
        <ele>110</ele>
        <time>2015-09-15T12:40:30Z</time>
      </trkpt>
      <trkpt lat="48.53511" lon="-2.83273">
        <ele>108.2</ele>
        <time>2015-09-15T12:40:33Z</time>
      </trkpt>
      <trkpt lat="48.53502" lon="-2.83266">
        <ele>106.5</ele>
        <time>2015-09-15T12:40:36Z</time>
      </trkpt>
      <trkpt lat="48.53492" lon="-2.83261">
        <ele>104.7</ele>
        <time>2015-09-15T12:40:39Z</time>
      </trkpt>
      <trkpt lat="48.53481" lon="-2.83262">
        <ele>103.6</ele>
        <time>2015-09-15T12:40:41Z</time>
      </trkpt>
      <trkpt lat="48.53472" lon="-2.83265">
        <ele>102.3</ele>
        <time>2015-09-15T12:40:43Z</time>
      </trkpt>
      <trkpt lat="48.53461" lon="-2.83269">
        <ele>101.2</ele>
        <time>2015-09-15T12:40:45Z</time>
      </trkpt>
      <trkpt lat="48.53449" lon="-2.83275">
        <ele>99.6</ele>
        <time>2015-09-15T12:40:48Z</time>
      </trkpt>
      <trkpt lat="48.53439" lon="-2.83278">
        <ele>98.2</ele>
        <time>2015-09-15T12:40:51Z</time>
      </trkpt>
      <trkpt lat="48.53428" lon="-2.83283">
        <ele>96.8</ele>
        <time>2015-09-15T12:40:54Z</time>
      </trkpt>
      <trkpt lat="48.53416" lon="-2.83289">
        <ele>95.4</ele>
        <time>2015-09-15T12:40:57Z</time>
      </trkpt>
      <trkpt lat="48.53407" lon="-2.8329">
        <ele>94.6</ele>
        <time>2015-09-15T12:40:59Z</time>
      </trkpt>
      <trkpt lat="48.53393" lon="-2.83291">
        <ele>93.3</ele>
        <time>2015-09-15T12:41:02Z</time>
      </trkpt>
      <trkpt lat="48.5338" lon="-2.83291">
        <ele>92.1</ele>
        <time>2015-09-15T12:41:05Z</time>
      </trkpt>
      <trkpt lat="48.53368" lon="-2.8329">
        <ele>90.8</ele>
        <time>2015-09-15T12:41:08Z</time>
      </trkpt>
      <trkpt lat="48.53357" lon="-2.83287">
        <ele>89.6</ele>
        <time>2015-09-15T12:41:11Z</time>
      </trkpt>
      <trkpt lat="48.53347" lon="-2.83285">
        <ele>88.3</ele>
        <time>2015-09-15T12:41:14Z</time>
      </trkpt>
      <trkpt lat="48.53335" lon="-2.83283">
        <ele>87</ele>
        <time>2015-09-15T12:41:17Z</time>
      </trkpt>
      <trkpt lat="48.53326" lon="-2.83281">
        <ele>86.1</ele>
        <time>2015-09-15T12:41:19Z</time>
      </trkpt>
      <trkpt lat="48.53314" lon="-2.83275">
        <ele>84.7</ele>
        <time>2015-09-15T12:41:22Z</time>
      </trkpt>
      <trkpt lat="48.53301" lon="-2.83274">
        <ele>83.4</ele>
        <time>2015-09-15T12:41:25Z</time>
      </trkpt>
      <trkpt lat="48.53292" lon="-2.83273">
        <ele>82.4</ele>
        <time>2015-09-15T12:41:27Z</time>
      </trkpt>
      <trkpt lat="48.53283" lon="-2.83269">
        <ele>81.4</ele>
        <time>2015-09-15T12:41:29Z</time>
      </trkpt>
      <trkpt lat="48.53275" lon="-2.83261">
        <ele>80.4</ele>
        <time>2015-09-15T12:41:31Z</time>
      </trkpt>
      <trkpt lat="48.53265" lon="-2.83256">
        <ele>79.5</ele>
        <time>2015-09-15T12:41:33Z</time>
      </trkpt>
      <trkpt lat="48.53256" lon="-2.83249">
        <ele>78.4</ele>
        <time>2015-09-15T12:41:35Z</time>
      </trkpt>
      <trkpt lat="48.53245" lon="-2.8324">
        <ele>76.9</ele>
        <time>2015-09-15T12:41:38Z</time>
      </trkpt>
      <trkpt lat="48.53234" lon="-2.83243">
        <ele>75.5</ele>
        <time>2015-09-15T12:41:41Z</time>
      </trkpt>
      <trkpt lat="48.53227" lon="-2.83254">
        <ele>74.3</ele>
        <time>2015-09-15T12:41:44Z</time>
      </trkpt>
      <trkpt lat="48.53219" lon="-2.83267">
        <ele>73</ele>
        <time>2015-09-15T12:41:48Z</time>
      </trkpt>
      <trkpt lat="48.53214" lon="-2.83279">
        <ele>72.3</ele>
        <time>2015-09-15T12:41:51Z</time>
      </trkpt>
      <trkpt lat="48.53209" lon="-2.83294">
        <ele>71.5</ele>
        <time>2015-09-15T12:41:55Z</time>
      </trkpt>
      <trkpt lat="48.53206" lon="-2.83309">
        <ele>70.8</ele>
        <time>2015-09-15T12:41:59Z</time>
      </trkpt>
      <trkpt lat="48.53202" lon="-2.83324">
        <ele>70.4</ele>
        <time>2015-09-15T12:42:03Z</time>
      </trkpt>
      <trkpt lat="48.53198" lon="-2.8334">
        <ele>70.1</ele>
        <time>2015-09-15T12:42:08Z</time>
      </trkpt>
      <trkpt lat="48.53194" lon="-2.83355">
        <ele>70</ele>
        <time>2015-09-15T12:42:12Z</time>
      </trkpt>
      <trkpt lat="48.53191" lon="-2.83369">
        <ele>70</ele>
        <time>2015-09-15T12:42:16Z</time>
      </trkpt>
      <trkpt lat="48.53192" lon="-2.83383">
        <ele>70</ele>
        <time>2015-09-15T12:42:20Z</time>
      </trkpt>
      <trkpt lat="48.53193" lon="-2.83398">
        <ele>70.3</ele>
        <time>2015-09-15T12:42:25Z</time>
      </trkpt>
      <trkpt lat="48.53193" lon="-2.83412">
        <ele>70.8</ele>
        <time>2015-09-15T12:42:38Z</time>
      </trkpt>
      <trkpt lat="48.53197" lon="-2.83425">
        <ele>70.9</ele>
        <time>2015-09-15T12:42:46Z</time>
      </trkpt>
      <trkpt lat="48.53203" lon="-2.83435">
        <ele>71.2</ele>
        <time>2015-09-15T12:42:50Z</time>
      </trkpt>
      <trkpt lat="48.53207" lon="-2.83448">
        <ele>71.6</ele>
        <time>2015-09-15T12:42:54Z</time>
      </trkpt>
      <trkpt lat="48.53212" lon="-2.83461">
        <ele>72.4</ele>
        <time>2015-09-15T12:42:59Z</time>
      </trkpt>
      <trkpt lat="48.53216" lon="-2.83477">
        <ele>72.9</ele>
        <time>2015-09-15T12:43:03Z</time>
      </trkpt>
      <trkpt lat="48.5322" lon="-2.83492">
        <ele>73.4</ele>
        <time>2015-09-15T12:43:07Z</time>
      </trkpt>
      <trkpt lat="48.53223" lon="-2.83506">
        <ele>74</ele>
        <time>2015-09-15T12:43:11Z</time>
      </trkpt>
      <trkpt lat="48.53229" lon="-2.8352">
        <ele>74.5</ele>
        <time>2015-09-15T12:43:15Z</time>
      </trkpt>
      <trkpt lat="48.53234" lon="-2.83533">
        <ele>75</ele>
        <time>2015-09-15T12:43:19Z</time>
      </trkpt>
      <trkpt lat="48.53241" lon="-2.83547">
        <ele>75.4</ele>
        <time>2015-09-15T12:43:23Z</time>
      </trkpt>
      <trkpt lat="48.53247" lon="-2.83558">
        <ele>75.8</ele>
        <time>2015-09-15T12:43:27Z</time>
      </trkpt>
      <trkpt lat="48.53255" lon="-2.83567">
        <ele>76.4</ele>
        <time>2015-09-15T12:43:32Z</time>
      </trkpt>
      <trkpt lat="48.53264" lon="-2.83574">
        <ele>77</ele>
        <time>2015-09-15T12:43:36Z</time>
      </trkpt>
      <trkpt lat="48.53274" lon="-2.83579">
        <ele>77.8</ele>
        <time>2015-09-15T12:43:41Z</time>
      </trkpt>
      <trkpt lat="48.53284" lon="-2.83584">
        <ele>78.9</ele>
        <time>2015-09-15T12:43:47Z</time>
      </trkpt>
      <trkpt lat="48.53294" lon="-2.83588">
        <ele>79.8</ele>
        <time>2015-09-15T12:43:52Z</time>
      </trkpt>
      <trkpt lat="48.53304" lon="-2.83593">
        <ele>80.6</ele>
        <time>2015-09-15T12:43:57Z</time>
      </trkpt>
      <trkpt lat="48.53313" lon="-2.83604">
        <ele>81.3</ele>
        <time>2015-09-15T12:44:02Z</time>
      </trkpt>
      <trkpt lat="48.5332" lon="-2.83612">
        <ele>81.8</ele>
        <time>2015-09-15T12:44:06Z</time>
      </trkpt>
      <trkpt lat="48.53329" lon="-2.83622">
        <ele>82.3</ele>
        <time>2015-09-15T12:44:10Z</time>
      </trkpt>
      <trkpt lat="48.53338" lon="-2.83629">
        <ele>82.8</ele>
        <time>2015-09-15T12:44:14Z</time>
      </trkpt>
      <trkpt lat="48.53346" lon="-2.83636">
        <ele>83.3</ele>
        <time>2015-09-15T12:44:18Z</time>
      </trkpt>
      <trkpt lat="48.53353" lon="-2.83647">
        <ele>83.9</ele>
        <time>2015-09-15T12:44:23Z</time>
      </trkpt>
      <trkpt lat="48.5336" lon="-2.83659">
        <ele>84.4</ele>
        <time>2015-09-15T12:44:27Z</time>
      </trkpt>
      <trkpt lat="48.53365" lon="-2.83672">
        <ele>85.1</ele>
        <time>2015-09-15T12:44:32Z</time>
      </trkpt>
      <trkpt lat="48.53373" lon="-2.83683">
        <ele>85.7</ele>
        <time>2015-09-15T12:44:37Z</time>
      </trkpt>
      <trkpt lat="48.53378" lon="-2.83697">
        <ele>86.3</ele>
        <time>2015-09-15T12:44:42Z</time>
      </trkpt>
      <trkpt lat="48.53385" lon="-2.83711">
        <ele>87</ele>
        <time>2015-09-15T12:44:47Z</time>
      </trkpt>
      <trkpt lat="48.53391" lon="-2.83722">
        <ele>87.6</ele>
        <time>2015-09-15T12:44:51Z</time>
      </trkpt>
      <trkpt lat="48.534" lon="-2.83735">
        <ele>88.4</ele>
        <time>2015-09-15T12:44:56Z</time>
      </trkpt>
      <trkpt lat="48.53406" lon="-2.83745">
        <ele>88.8</ele>
        <time>2015-09-15T12:44:59Z</time>
      </trkpt>
      <trkpt lat="48.53413" lon="-2.83757">
        <ele>89.3</ele>
        <time>2015-09-15T12:45:03Z</time>
      </trkpt>
      <trkpt lat="48.53418" lon="-2.83768">
        <ele>89.8</ele>
        <time>2015-09-15T12:45:07Z</time>
      </trkpt>
      <trkpt lat="48.53425" lon="-2.83777">
        <ele>90.4</ele>
        <time>2015-09-15T12:45:11Z</time>
      </trkpt>
      <trkpt lat="48.53432" lon="-2.83793">
        <ele>91.2</ele>
        <time>2015-09-15T12:45:16Z</time>
      </trkpt>
      <trkpt lat="48.53435" lon="-2.83808">
        <ele>91.7</ele>
        <time>2015-09-15T12:45:20Z</time>
      </trkpt>
      <trkpt lat="48.53442" lon="-2.83822">
        <ele>92.4</ele>
        <time>2015-09-15T12:45:25Z</time>
      </trkpt>
      <trkpt lat="48.53447" lon="-2.83837">
        <ele>92.8</ele>
        <time>2015-09-15T12:45:29Z</time>
      </trkpt>
      <trkpt lat="48.5345" lon="-2.83852">
        <ele>93.2</ele>
        <time>2015-09-15T12:45:33Z</time>
      </trkpt>
      <trkpt lat="48.53453" lon="-2.83867">
        <ele>93.7</ele>
        <time>2015-09-15T12:45:38Z</time>
      </trkpt>
      <trkpt lat="48.53458" lon="-2.83879">
        <ele>94.3</ele>
        <time>2015-09-15T12:45:44Z</time>
      </trkpt>
      <trkpt lat="48.53459" lon="-2.83895">
        <ele>95.4</ele>
        <time>2015-09-15T12:46:01Z</time>
      </trkpt>
      <trkpt lat="48.53459" lon="-2.8391">
        <ele>95.8</ele>
        <time>2015-09-15T12:46:07Z</time>
      </trkpt>
      <trkpt lat="48.53457" lon="-2.83925">
        <ele>96.5</ele>
        <time>2015-09-15T12:46:13Z</time>
      </trkpt>
      <trkpt lat="48.53455" lon="-2.83939">
        <ele>97.2</ele>
        <time>2015-09-15T12:46:19Z</time>
      </trkpt>
      <trkpt lat="48.53454" lon="-2.83955">
        <ele>97.9</ele>
        <time>2015-09-15T12:46:24Z</time>
      </trkpt>
      <trkpt lat="48.53452" lon="-2.83969">
        <ele>98.4</ele>
        <time>2015-09-15T12:46:28Z</time>
      </trkpt>
      <trkpt lat="48.53448" lon="-2.83983">
        <ele>99.1</ele>
        <time>2015-09-15T12:46:33Z</time>
      </trkpt>
      <trkpt lat="48.53442" lon="-2.83999">
        <ele>99.6</ele>
        <time>2015-09-15T12:46:37Z</time>
      </trkpt>
      <trkpt lat="48.53438" lon="-2.84013">
        <ele>100.4</ele>
        <time>2015-09-15T12:46:42Z</time>
      </trkpt>
      <trkpt lat="48.53434" lon="-2.84031">
        <ele>101.2</ele>
        <time>2015-09-15T12:46:47Z</time>
      </trkpt>
      <trkpt lat="48.53432" lon="-2.84045">
        <ele>101.5</ele>
        <time>2015-09-15T12:46:50Z</time>
      </trkpt>
      <trkpt lat="48.53429" lon="-2.84058">
        <ele>102.2</ele>
        <time>2015-09-15T12:46:55Z</time>
      </trkpt>
      <trkpt lat="48.53428" lon="-2.84075">
        <ele>103.1</ele>
        <time>2015-09-15T12:47:01Z</time>
      </trkpt>
      <trkpt lat="48.53419" lon="-2.84078">
        <ele>103.8</ele>
        <time>2015-09-15T12:47:07Z</time>
      </trkpt>
      <trkpt lat="48.53409" lon="-2.84071">
        <ele>103.6</ele>
        <time>2015-09-15T12:47:11Z</time>
      </trkpt>
      <trkpt lat="48.534" lon="-2.84074">
        <ele>103.4</ele>
        <time>2015-09-15T12:47:22Z</time>
      </trkpt>
      <trkpt lat="48.53393" lon="-2.84065">
        <ele>107.5</ele>
        <time>2015-09-15T12:47:53Z</time>
      </trkpt>
      <trkpt lat="48.53391" lon="-2.8405">
        <ele>108.4</ele>
        <time>2015-09-15T12:48:02Z</time>
      </trkpt>
      <trkpt lat="48.53389" lon="-2.84035">
        <ele>109.7</ele>
        <time>2015-09-15T12:48:10Z</time>
      </trkpt>
      <trkpt lat="48.53388" lon="-2.8402">
        <ele>110.8</ele>
        <time>2015-09-15T12:48:16Z</time>
      </trkpt>
      <trkpt lat="48.53383" lon="-2.84009">
        <ele>112.2</ele>
        <time>2015-09-15T12:48:22Z</time>
      </trkpt>
      <trkpt lat="48.53374" lon="-2.84017">
        <ele>115</ele>
        <time>2015-09-15T12:48:34Z</time>
      </trkpt>
      <trkpt lat="48.5337" lon="-2.8403">
        <ele>116.6</ele>
        <time>2015-09-15T12:48:44Z</time>
      </trkpt>
      <trkpt lat="48.53365" lon="-2.84043">
        <ele>117.4</ele>
        <time>2015-09-15T12:48:51Z</time>
      </trkpt>
      <trkpt lat="48.53361" lon="-2.84056">
        <ele>118.7</ele>
        <time>2015-09-15T12:49:03Z</time>
      </trkpt>
      <trkpt lat="48.53356" lon="-2.84068">
        <ele>119.3</ele>
        <time>2015-09-15T12:49:09Z</time>
      </trkpt>
      <trkpt lat="48.53351" lon="-2.84082">
        <ele>119.9</ele>
        <time>2015-09-15T12:49:15Z</time>
      </trkpt>
      <trkpt lat="48.53343" lon="-2.84095">
        <ele>120.5</ele>
        <time>2015-09-15T12:49:21Z</time>
      </trkpt>
      <trkpt lat="48.53338" lon="-2.84109">
        <ele>120.9</ele>
        <time>2015-09-15T12:49:26Z</time>
      </trkpt>
      <trkpt lat="48.53333" lon="-2.84122">
        <ele>121.4</ele>
        <time>2015-09-15T12:49:31Z</time>
      </trkpt>
      <trkpt lat="48.5333" lon="-2.84138">
        <ele>121.7</ele>
        <time>2015-09-15T12:49:36Z</time>
      </trkpt>
      <trkpt lat="48.53326" lon="-2.84152">
        <ele>122</ele>
        <time>2015-09-15T12:49:41Z</time>
      </trkpt>
      <trkpt lat="48.53323" lon="-2.84165">
        <ele>122.2</ele>
        <time>2015-09-15T12:49:45Z</time>
      </trkpt>
      <trkpt lat="48.53316" lon="-2.84177">
        <ele>122.4</ele>
        <time>2015-09-15T12:49:49Z</time>
      </trkpt>
      <trkpt lat="48.53312" lon="-2.84192">
        <ele>122.5</ele>
        <time>2015-09-15T12:49:53Z</time>
      </trkpt>
      <trkpt lat="48.53306" lon="-2.84206">
        <ele>122.7</ele>
        <time>2015-09-15T12:49:58Z</time>
      </trkpt>
      <trkpt lat="48.53301" lon="-2.84219">
        <ele>122.8</ele>
        <time>2015-09-15T12:50:02Z</time>
      </trkpt>
      <trkpt lat="48.53296" lon="-2.84232">
        <ele>122.8</ele>
        <time>2015-09-15T12:50:06Z</time>
      </trkpt>
      <trkpt lat="48.5329" lon="-2.84243">
        <ele>122.9</ele>
        <time>2015-09-15T12:50:09Z</time>
      </trkpt>
      <trkpt lat="48.53284" lon="-2.84256">
        <ele>123.3</ele>
        <time>2015-09-15T12:50:14Z</time>
      </trkpt>
      <trkpt lat="48.53278" lon="-2.84267">
        <ele>123.8</ele>
        <time>2015-09-15T12:50:18Z</time>
      </trkpt>
      <trkpt lat="48.53271" lon="-2.84276">
        <ele>124.3</ele>
        <time>2015-09-15T12:50:22Z</time>
      </trkpt>
      <trkpt lat="48.53262" lon="-2.84272">
        <ele>124.6</ele>
        <time>2015-09-15T12:50:26Z</time>
      </trkpt>
      <trkpt lat="48.53255" lon="-2.84258">
        <ele>124.7</ele>
        <time>2015-09-15T12:50:30Z</time>
      </trkpt>
      <trkpt lat="48.53245" lon="-2.84249">
        <ele>125</ele>
        <time>2015-09-15T12:50:34Z</time>
      </trkpt>
      <trkpt lat="48.53237" lon="-2.84242">
        <ele>125.4</ele>
        <time>2015-09-15T12:50:37Z</time>
      </trkpt>
      <trkpt lat="48.53226" lon="-2.84234">
        <ele>125.9</ele>
        <time>2015-09-15T12:50:41Z</time>
      </trkpt>
      <trkpt lat="48.53217" lon="-2.84228">
        <ele>126.5</ele>
        <time>2015-09-15T12:50:45Z</time>
      </trkpt>
      <trkpt lat="48.53208" lon="-2.84224">
        <ele>127</ele>
        <time>2015-09-15T12:50:49Z</time>
      </trkpt>
      <trkpt lat="48.53199" lon="-2.8422">
        <ele>127.4</ele>
        <time>2015-09-15T12:50:53Z</time>
      </trkpt>
      <trkpt lat="48.53189" lon="-2.84215">
        <ele>127.9</ele>
        <time>2015-09-15T12:50:57Z</time>
      </trkpt>
      <trkpt lat="48.53179" lon="-2.8421">
        <ele>128.3</ele>
        <time>2015-09-15T12:51:01Z</time>
      </trkpt>
      <trkpt lat="48.53168" lon="-2.84207">
        <ele>128.6</ele>
        <time>2015-09-15T12:51:05Z</time>
      </trkpt>
      <trkpt lat="48.53158" lon="-2.84204">
        <ele>128.9</ele>
        <time>2015-09-15T12:51:09Z</time>
      </trkpt>
      <trkpt lat="48.53148" lon="-2.84201">
        <ele>129.3</ele>
        <time>2015-09-15T12:51:13Z</time>
      </trkpt>
      <trkpt lat="48.53137" lon="-2.84197">
        <ele>129.6</ele>
        <time>2015-09-15T12:51:17Z</time>
      </trkpt>
      <trkpt lat="48.53125" lon="-2.84195">
        <ele>129.9</ele>
        <time>2015-09-15T12:51:21Z</time>
      </trkpt>
      <trkpt lat="48.53115" lon="-2.84194">
        <ele>130.1</ele>
        <time>2015-09-15T12:51:24Z</time>
      </trkpt>
      <trkpt lat="48.53105" lon="-2.84193">
        <ele>130.2</ele>
        <time>2015-09-15T12:51:27Z</time>
      </trkpt>
      <trkpt lat="48.53095" lon="-2.84192">
        <ele>130.4</ele>
        <time>2015-09-15T12:51:30Z</time>
      </trkpt>
      <trkpt lat="48.53085" lon="-2.84191">
        <ele>130.5</ele>
        <time>2015-09-15T12:51:33Z</time>
      </trkpt>
      <trkpt lat="48.53076" lon="-2.8419">
        <ele>130.7</ele>
        <time>2015-09-15T12:51:36Z</time>
      </trkpt>
      <trkpt lat="48.53066" lon="-2.84186">
        <ele>130.8</ele>
        <time>2015-09-15T12:51:39Z</time>
      </trkpt>
      <trkpt lat="48.53052" lon="-2.84187">
        <ele>130.9</ele>
        <time>2015-09-15T12:51:42Z</time>
      </trkpt>
      <trkpt lat="48.53042" lon="-2.84186">
        <ele>130.8</ele>
        <time>2015-09-15T12:51:44Z</time>
      </trkpt>
      <trkpt lat="48.53031" lon="-2.84183">
        <ele>130.7</ele>
        <time>2015-09-15T12:51:46Z</time>
      </trkpt>
      <trkpt lat="48.5302" lon="-2.84178">
        <ele>130.5</ele>
        <time>2015-09-15T12:51:48Z</time>
      </trkpt>
      <trkpt lat="48.5301" lon="-2.84168">
        <ele>130.3</ele>
        <time>2015-09-15T12:51:50Z</time>
      </trkpt>
      <trkpt lat="48.53002" lon="-2.84157">
        <ele>130.1</ele>
        <time>2015-09-15T12:51:52Z</time>
      </trkpt>
      <trkpt lat="48.52996" lon="-2.84143">
        <ele>129.9</ele>
        <time>2015-09-15T12:51:54Z</time>
      </trkpt>
      <trkpt lat="48.52991" lon="-2.84129">
        <ele>129.7</ele>
        <time>2015-09-15T12:51:56Z</time>
      </trkpt>
      <trkpt lat="48.52986" lon="-2.84115">
        <ele>129.5</ele>
        <time>2015-09-15T12:51:58Z</time>
      </trkpt>
      <trkpt lat="48.52981" lon="-2.84102">
        <ele>129.4</ele>
        <time>2015-09-15T12:52:00Z</time>
      </trkpt>
      <trkpt lat="48.52976" lon="-2.84088">
        <ele>129.3</ele>
        <time>2015-09-15T12:52:02Z</time>
      </trkpt>
      <trkpt lat="48.52972" lon="-2.84076">
        <ele>129.1</ele>
        <time>2015-09-15T12:52:04Z</time>
      </trkpt>
      <trkpt lat="48.52966" lon="-2.84063">
        <ele>129</ele>
        <time>2015-09-15T12:52:06Z</time>
      </trkpt>
      <trkpt lat="48.52959" lon="-2.84052">
        <ele>128.9</ele>
        <time>2015-09-15T12:52:08Z</time>
      </trkpt>
      <trkpt lat="48.52952" lon="-2.84041">
        <ele>128.8</ele>
        <time>2015-09-15T12:52:10Z</time>
      </trkpt>
      <trkpt lat="48.52945" lon="-2.8403">
        <ele>128.7</ele>
        <time>2015-09-15T12:52:12Z</time>
      </trkpt>
      <trkpt lat="48.52938" lon="-2.84019">
        <ele>128.7</ele>
        <time>2015-09-15T12:52:14Z</time>
      </trkpt>
      <trkpt lat="48.52931" lon="-2.84009">
        <ele>128.6</ele>
        <time>2015-09-15T12:52:16Z</time>
      </trkpt>
      <trkpt lat="48.52924" lon="-2.83998">
        <ele>128.5</ele>
        <time>2015-09-15T12:52:18Z</time>
      </trkpt>
      <trkpt lat="48.52917" lon="-2.83988">
        <ele>128.5</ele>
        <time>2015-09-15T12:52:20Z</time>
      </trkpt>
      <trkpt lat="48.5291" lon="-2.83978">
        <ele>128.4</ele>
        <time>2015-09-15T12:52:22Z</time>
      </trkpt>
      <trkpt lat="48.52902" lon="-2.8397">
        <ele>128.4</ele>
        <time>2015-09-15T12:52:24Z</time>
      </trkpt>
      <trkpt lat="48.52894" lon="-2.83963">
        <ele>128.3</ele>
        <time>2015-09-15T12:52:26Z</time>
      </trkpt>
      <trkpt lat="48.52886" lon="-2.83957">
        <ele>128.3</ele>
        <time>2015-09-15T12:52:28Z</time>
      </trkpt>
      <trkpt lat="48.52874" lon="-2.83949">
        <ele>128.3</ele>
        <time>2015-09-15T12:52:31Z</time>
      </trkpt>
      <trkpt lat="48.52866" lon="-2.83943">
        <ele>128.3</ele>
        <time>2015-09-15T12:52:33Z</time>
      </trkpt>
      <trkpt lat="48.52857" lon="-2.83938">
        <ele>128.2</ele>
        <time>2015-09-15T12:52:35Z</time>
      </trkpt>
      <trkpt lat="48.52845" lon="-2.83929">
        <ele>128.2</ele>
        <time>2015-09-15T12:52:38Z</time>
      </trkpt>
      <trkpt lat="48.52837" lon="-2.83923">
        <ele>128.2</ele>
        <time>2015-09-15T12:52:40Z</time>
      </trkpt>
      <trkpt lat="48.52829" lon="-2.83916">
        <ele>128.2</ele>
        <time>2015-09-15T12:52:42Z</time>
      </trkpt>
      <trkpt lat="48.52821" lon="-2.83907">
        <ele>128.2</ele>
        <time>2015-09-15T12:52:44Z</time>
      </trkpt>
      <trkpt lat="48.52813" lon="-2.83896">
        <ele>128.2</ele>
        <time>2015-09-15T12:52:46Z</time>
      </trkpt>
      <trkpt lat="48.52806" lon="-2.83885">
        <ele>128.2</ele>
        <time>2015-09-15T12:52:48Z</time>
      </trkpt>
      <trkpt lat="48.52799" lon="-2.83872">
        <ele>128</ele>
        <time>2015-09-15T12:52:50Z</time>
      </trkpt>
      <trkpt lat="48.52792" lon="-2.83859">
        <ele>127.9</ele>
        <time>2015-09-15T12:52:52Z</time>
      </trkpt>
      <trkpt lat="48.52786" lon="-2.83844">
        <ele>127.6</ele>
        <time>2015-09-15T12:52:54Z</time>
      </trkpt>
      <trkpt lat="48.52779" lon="-2.8383">
        <ele>127.4</ele>
        <time>2015-09-15T12:52:56Z</time>
      </trkpt>
      <trkpt lat="48.52772" lon="-2.83816">
        <ele>127.2</ele>
        <time>2015-09-15T12:52:58Z</time>
      </trkpt>
      <trkpt lat="48.52765" lon="-2.83803">
        <ele>126.9</ele>
        <time>2015-09-15T12:53:00Z</time>
      </trkpt>
      <trkpt lat="48.52758" lon="-2.8379">
        <ele>126.5</ele>
        <time>2015-09-15T12:53:02Z</time>
      </trkpt>
      <trkpt lat="48.5275" lon="-2.83777">
        <ele>126.1</ele>
        <time>2015-09-15T12:53:04Z</time>
      </trkpt>
      <trkpt lat="48.52743" lon="-2.83764">
        <ele>125.8</ele>
        <time>2015-09-15T12:53:06Z</time>
      </trkpt>
      <trkpt lat="48.52742" lon="-2.8375">
        <ele>125.5</ele>
        <time>2015-09-15T12:53:08Z</time>
      </trkpt>
      <trkpt lat="48.52749" lon="-2.83737">
        <ele>125.1</ele>
        <time>2015-09-15T12:53:10Z</time>
      </trkpt>
      <trkpt lat="48.52757" lon="-2.83723">
        <ele>124.6</ele>
        <time>2015-09-15T12:53:12Z</time>
      </trkpt>
      <trkpt lat="48.52766" lon="-2.83708">
        <ele>124.1</ele>
        <time>2015-09-15T12:53:14Z</time>
      </trkpt>
      <trkpt lat="48.52773" lon="-2.83692">
        <ele>123.7</ele>
        <time>2015-09-15T12:53:16Z</time>
      </trkpt>
      <trkpt lat="48.5278" lon="-2.83676">
        <ele>123.3</ele>
        <time>2015-09-15T12:53:18Z</time>
      </trkpt>
      <trkpt lat="48.52786" lon="-2.83662">
        <ele>123</ele>
        <time>2015-09-15T12:53:20Z</time>
      </trkpt>
      <trkpt lat="48.52791" lon="-2.83648">
        <ele>122.7</ele>
        <time>2015-09-15T12:53:22Z</time>
      </trkpt>
      <trkpt lat="48.52797" lon="-2.83634">
        <ele>122.4</ele>
        <time>2015-09-15T12:53:24Z</time>
      </trkpt>
      <trkpt lat="48.52803" lon="-2.83621">
        <ele>122.2</ele>
        <time>2015-09-15T12:53:26Z</time>
      </trkpt>
      <trkpt lat="48.52808" lon="-2.83607">
        <ele>122</ele>
        <time>2015-09-15T12:53:28Z</time>
      </trkpt>
      <trkpt lat="48.52814" lon="-2.83594">
        <ele>121.8</ele>
        <time>2015-09-15T12:53:30Z</time>
      </trkpt>
      <trkpt lat="48.5282" lon="-2.83579">
        <ele>121.5</ele>
        <time>2015-09-15T12:53:32Z</time>
      </trkpt>
      <trkpt lat="48.52827" lon="-2.83563">
        <ele>121.2</ele>
        <time>2015-09-15T12:53:34Z</time>
      </trkpt>
      <trkpt lat="48.52834" lon="-2.83546">
        <ele>120.9</ele>
        <time>2015-09-15T12:53:36Z</time>
      </trkpt>
      <trkpt lat="48.5284" lon="-2.83529">
        <ele>120.5</ele>
        <time>2015-09-15T12:53:38Z</time>
      </trkpt>
      <trkpt lat="48.52845" lon="-2.83508">
        <ele>120.1</ele>
        <time>2015-09-15T12:53:40Z</time>
      </trkpt>
      <trkpt lat="48.52841" lon="-2.83486">
        <ele>119.5</ele>
        <time>2015-09-15T12:53:42Z</time>
      </trkpt>
      <trkpt lat="48.52831" lon="-2.83465">
        <ele>118.7</ele>
        <time>2015-09-15T12:53:44Z</time>
      </trkpt>
      <trkpt lat="48.52824" lon="-2.83456">
        <ele>118.2</ele>
        <time>2015-09-15T12:53:45Z</time>
      </trkpt>
      <trkpt lat="48.52816" lon="-2.83448">
        <ele>117.8</ele>
        <time>2015-09-15T12:53:46Z</time>
      </trkpt>
      <trkpt lat="48.52809" lon="-2.8344">
        <ele>117.3</ele>
        <time>2015-09-15T12:53:47Z</time>
      </trkpt>
      <trkpt lat="48.52796" lon="-2.83429">
        <ele>116.4</ele>
        <time>2015-09-15T12:53:49Z</time>
      </trkpt>
      <trkpt lat="48.52784" lon="-2.8342">
        <ele>115.6</ele>
        <time>2015-09-15T12:53:51Z</time>
      </trkpt>
      <trkpt lat="48.52773" lon="-2.8341">
        <ele>115</ele>
        <time>2015-09-15T12:53:53Z</time>
      </trkpt>
      <trkpt lat="48.52765" lon="-2.83403">
        <ele>114.6</ele>
        <time>2015-09-15T12:53:55Z</time>
      </trkpt>
      <trkpt lat="48.52755" lon="-2.83394">
        <ele>114.2</ele>
        <time>2015-09-15T12:53:58Z</time>
      </trkpt>
      <trkpt lat="48.52747" lon="-2.83386">
        <ele>113.9</ele>
        <time>2015-09-15T12:54:01Z</time>
      </trkpt>
      <trkpt lat="48.52741" lon="-2.83374">
        <ele>113.7</ele>
        <time>2015-09-15T12:54:04Z</time>
      </trkpt>
      <trkpt lat="48.52744" lon="-2.83358">
        <ele>113.5</ele>
        <time>2015-09-15T12:54:07Z</time>
      </trkpt>
      <trkpt lat="48.52751" lon="-2.83347">
        <ele>113.4</ele>
        <time>2015-09-15T12:54:10Z</time>
      </trkpt>
      <trkpt lat="48.52758" lon="-2.83334">
        <ele>113.3</ele>
        <time>2015-09-15T12:54:14Z</time>
      </trkpt>
      <trkpt lat="48.52763" lon="-2.83321">
        <ele>113.2</ele>
        <time>2015-09-15T12:54:18Z</time>
      </trkpt>
      <trkpt lat="48.5277" lon="-2.83311">
        <ele>113.1</ele>
        <time>2015-09-15T12:54:22Z</time>
      </trkpt>
      <trkpt lat="48.52775" lon="-2.83298">
        <ele>113</ele>
        <time>2015-09-15T12:54:26Z</time>
      </trkpt>
      <trkpt lat="48.5278" lon="-2.83282">
        <ele>113</ele>
        <time>2015-09-15T12:54:29Z</time>
      </trkpt>
      <trkpt lat="48.52786" lon="-2.8327">
        <ele>112.9</ele>
        <time>2015-09-15T12:54:31Z</time>
      </trkpt>
      <trkpt lat="48.52792" lon="-2.83256">
        <ele>112.9</ele>
        <time>2015-09-15T12:54:34Z</time>
      </trkpt>
      <trkpt lat="48.52799" lon="-2.83241">
        <ele>112.9</ele>
        <time>2015-09-15T12:54:37Z</time>
      </trkpt>
      <trkpt lat="48.52805" lon="-2.83225">
        <ele>112.9</ele>
        <time>2015-09-15T12:54:40Z</time>
      </trkpt>
      <trkpt lat="48.52811" lon="-2.8321">
        <ele>112.9</ele>
        <time>2015-09-15T12:54:42Z</time>
      </trkpt>
      <trkpt lat="48.52819" lon="-2.83196">
        <ele>112.9</ele>
        <time>2015-09-15T12:54:44Z</time>
      </trkpt>
      <trkpt lat="48.52824" lon="-2.83183">
        <ele>112.8</ele>
        <time>2015-09-15T12:54:46Z</time>
      </trkpt>
      <trkpt lat="48.52829" lon="-2.83171">
        <ele>112.8</ele>
        <time>2015-09-15T12:54:48Z</time>
      </trkpt>
      <trkpt lat="48.52833" lon="-2.83158">
        <ele>112.8</ele>
        <time>2015-09-15T12:54:50Z</time>
      </trkpt>
      <trkpt lat="48.52838" lon="-2.83145">
        <ele>112.8</ele>
        <time>2015-09-15T12:54:52Z</time>
      </trkpt>
      <trkpt lat="48.52842" lon="-2.83132">
        <ele>112.8</ele>
        <time>2015-09-15T12:54:54Z</time>
      </trkpt>
      <trkpt lat="48.52846" lon="-2.83118">
        <ele>112.7</ele>
        <time>2015-09-15T12:54:56Z</time>
      </trkpt>
      <trkpt lat="48.52851" lon="-2.83104">
        <ele>112.7</ele>
        <time>2015-09-15T12:54:58Z</time>
      </trkpt>
      <trkpt lat="48.52854" lon="-2.83091">
        <ele>112.6</ele>
        <time>2015-09-15T12:55:00Z</time>
      </trkpt>
      <trkpt lat="48.5286" lon="-2.83072">
        <ele>112.4</ele>
        <time>2015-09-15T12:55:03Z</time>
      </trkpt>
      <trkpt lat="48.52865" lon="-2.83054">
        <ele>112.3</ele>
        <time>2015-09-15T12:55:06Z</time>
      </trkpt>
      <trkpt lat="48.52871" lon="-2.83037">
        <ele>112.2</ele>
        <time>2015-09-15T12:55:09Z</time>
      </trkpt>
      <trkpt lat="48.52878" lon="-2.8302">
        <ele>112.1</ele>
        <time>2015-09-15T12:55:12Z</time>
      </trkpt>
      <trkpt lat="48.52883" lon="-2.83009">
        <ele>112</ele>
        <time>2015-09-15T12:55:14Z</time>
      </trkpt>
      <trkpt lat="48.52891" lon="-2.82993">
        <ele>112</ele>
        <time>2015-09-15T12:55:17Z</time>
      </trkpt>
      <trkpt lat="48.52897" lon="-2.82975">
        <ele>111.9</ele>
        <time>2015-09-15T12:55:20Z</time>
      </trkpt>
      <trkpt lat="48.52897" lon="-2.82961">
        <ele>111.9</ele>
        <time>2015-09-15T12:55:22Z</time>
      </trkpt>
      <trkpt lat="48.52892" lon="-2.82949">
        <ele>111.8</ele>
        <time>2015-09-15T12:55:24Z</time>
      </trkpt>
      <trkpt lat="48.52885" lon="-2.82938">
        <ele>111.8</ele>
        <time>2015-09-15T12:55:26Z</time>
      </trkpt>
      <trkpt lat="48.52879" lon="-2.82923">
        <ele>111.7</ele>
        <time>2015-09-15T12:55:28Z</time>
      </trkpt>
      <trkpt lat="48.5288" lon="-2.82904">
        <ele>111.5</ele>
        <time>2015-09-15T12:55:30Z</time>
      </trkpt>
      <trkpt lat="48.52882" lon="-2.82884">
        <ele>111.3</ele>
        <time>2015-09-15T12:55:32Z</time>
      </trkpt>
      <trkpt lat="48.52885" lon="-2.82863">
        <ele>111</ele>
        <time>2015-09-15T12:55:34Z</time>
      </trkpt>
      <trkpt lat="48.52889" lon="-2.82842">
        <ele>110.7</ele>
        <time>2015-09-15T12:55:36Z</time>
      </trkpt>
      <trkpt lat="48.52893" lon="-2.8282">
        <ele>110.3</ele>
        <time>2015-09-15T12:55:38Z</time>
      </trkpt>
      <trkpt lat="48.52897" lon="-2.82797">
        <ele>109.9</ele>
        <time>2015-09-15T12:55:40Z</time>
      </trkpt>
      <trkpt lat="48.529" lon="-2.82771">
        <ele>109.1</ele>
        <time>2015-09-15T12:55:42Z</time>
      </trkpt>
      <trkpt lat="48.52902" lon="-2.82745">
        <ele>108.3</ele>
        <time>2015-09-15T12:55:44Z</time>
      </trkpt>
      <trkpt lat="48.52904" lon="-2.82732">
        <ele>107.8</ele>
        <time>2015-09-15T12:55:45Z</time>
      </trkpt>
      <trkpt lat="48.5291" lon="-2.82713">
        <ele>106.8</ele>
        <time>2015-09-15T12:55:47Z</time>
      </trkpt>
      <trkpt lat="48.52922" lon="-2.82699">
        <ele>105.7</ele>
        <time>2015-09-15T12:55:49Z</time>
      </trkpt>
      <trkpt lat="48.52929" lon="-2.82683">
        <ele>104.3</ele>
        <time>2015-09-15T12:55:52Z</time>
      </trkpt>
      <trkpt lat="48.52939" lon="-2.82677">
        <ele>103.4</ele>
        <time>2015-09-15T12:55:54Z</time>
      </trkpt>
      <trkpt lat="48.52951" lon="-2.82675">
        <ele>102.6</ele>
        <time>2015-09-15T12:55:56Z</time>
      </trkpt>
      <trkpt lat="48.5296" lon="-2.82681">
        <ele>102</ele>
        <time>2015-09-15T12:55:58Z</time>
      </trkpt>
      <trkpt lat="48.52969" lon="-2.82685">
        <ele>101.5</ele>
        <time>2015-09-15T12:56:00Z</time>
      </trkpt>
      <trkpt lat="48.52975" lon="-2.82672">
        <ele>100.8</ele>
        <time>2015-09-15T12:56:03Z</time>
      </trkpt>
      <trkpt lat="48.52987" lon="-2.8266">
        <ele>100.2</ele>
        <time>2015-09-15T12:56:06Z</time>
      </trkpt>
      <trkpt lat="48.52996" lon="-2.82656">
        <ele>99.9</ele>
        <time>2015-09-15T12:56:08Z</time>
      </trkpt>
      <trkpt lat="48.53006" lon="-2.82656">
        <ele>99.5</ele>
        <time>2015-09-15T12:56:10Z</time>
      </trkpt>
      <trkpt lat="48.53015" lon="-2.82651">
        <ele>99.2</ele>
        <time>2015-09-15T12:56:12Z</time>
      </trkpt>
      <trkpt lat="48.53019" lon="-2.82637">
        <ele>98.9</ele>
        <time>2015-09-15T12:56:15Z</time>
      </trkpt>
      <trkpt lat="48.53016" lon="-2.82623">
        <ele>98.6</ele>
        <time>2015-09-15T12:56:18Z</time>
      </trkpt>
      <trkpt lat="48.53022" lon="-2.82609">
        <ele>98</ele>
        <time>2015-09-15T12:56:21Z</time>
      </trkpt>
      <trkpt lat="48.53011" lon="-2.8261">
        <ele>96.8</ele>
        <time>2015-09-15T12:56:25Z</time>
      </trkpt>
      <trkpt lat="48.53002" lon="-2.82603">
        <ele>96.1</ele>
        <time>2015-09-15T12:56:27Z</time>
      </trkpt>
      <trkpt lat="48.52992" lon="-2.82603">
        <ele>95.4</ele>
        <time>2015-09-15T12:56:29Z</time>
      </trkpt>
      <trkpt lat="48.52982" lon="-2.82601">
        <ele>94</ele>
        <time>2015-09-15T12:56:34Z</time>
      </trkpt>
      <trkpt lat="48.52974" lon="-2.8259">
        <ele>93.2</ele>
        <time>2015-09-15T12:56:37Z</time>
      </trkpt>
      <trkpt lat="48.52968" lon="-2.82576">
        <ele>92.6</ele>
        <time>2015-09-15T12:56:39Z</time>
      </trkpt>
      <trkpt lat="48.52969" lon="-2.82562">
        <ele>91.9</ele>
        <time>2015-09-15T12:56:41Z</time>
      </trkpt>
      <trkpt lat="48.52975" lon="-2.82549">
        <ele>91.1</ele>
        <time>2015-09-15T12:56:43Z</time>
      </trkpt>
      <trkpt lat="48.52984" lon="-2.82537">
        <ele>89.6</ele>
        <time>2015-09-15T12:56:46Z</time>
      </trkpt>
      <trkpt lat="48.52993" lon="-2.82543">
        <ele>88.1</ele>
        <time>2015-09-15T12:56:49Z</time>
      </trkpt>
      <trkpt lat="48.53003" lon="-2.82544">
        <ele>86.4</ele>
        <time>2015-09-15T12:56:53Z</time>
      </trkpt>
      <trkpt lat="48.52998" lon="-2.8253">
        <ele>84.9</ele>
        <time>2015-09-15T12:56:57Z</time>
      </trkpt>
      <trkpt lat="48.52994" lon="-2.82515">
        <ele>83.9</ele>
        <time>2015-09-15T12:56:59Z</time>
      </trkpt>
      <trkpt lat="48.52989" lon="-2.82501">
        <ele>82.9</ele>
        <time>2015-09-15T12:57:01Z</time>
      </trkpt>
      <trkpt lat="48.52984" lon="-2.82488">
        <ele>81.7</ele>
        <time>2015-09-15T12:57:03Z</time>
      </trkpt>
      <trkpt lat="48.52984" lon="-2.82473">
        <ele>79.7</ele>
        <time>2015-09-15T12:57:06Z</time>
      </trkpt>
      <trkpt lat="48.52991" lon="-2.82459">
        <ele>77.5</ele>
        <time>2015-09-15T12:57:09Z</time>
      </trkpt>
      <trkpt lat="48.53002" lon="-2.8246">
        <ele>75.9</ele>
        <time>2015-09-15T12:57:11Z</time>
      </trkpt>
      <trkpt lat="48.53012" lon="-2.82464">
        <ele>74.2</ele>
        <time>2015-09-15T12:57:13Z</time>
      </trkpt>
      <trkpt lat="48.53025" lon="-2.82474">
        <ele>72.4</ele>
        <time>2015-09-15T12:57:15Z</time>
      </trkpt>
      <trkpt lat="48.53034" lon="-2.82482">
        <ele>70.7</ele>
        <time>2015-09-15T12:57:17Z</time>
      </trkpt>
      <trkpt lat="48.53046" lon="-2.82486">
        <ele>69.1</ele>
        <time>2015-09-15T12:57:19Z</time>
      </trkpt>
      <trkpt lat="48.53059" lon="-2.82494">
        <ele>67.1</ele>
        <time>2015-09-15T12:57:22Z</time>
      </trkpt>
      <trkpt lat="48.53069" lon="-2.82504">
        <ele>64.9</ele>
        <time>2015-09-15T12:57:26Z</time>
      </trkpt>
      <trkpt lat="48.53075" lon="-2.82516">
        <ele>63.2</ele>
        <time>2015-09-15T12:57:30Z</time>
      </trkpt>
      <trkpt lat="48.5308" lon="-2.82527">
        <ele>61.7</ele>
        <time>2015-09-15T12:57:35Z</time>
      </trkpt>
      <trkpt lat="48.53087" lon="-2.82539">
        <ele>60.5</ele>
        <time>2015-09-15T12:57:40Z</time>
      </trkpt>
      <trkpt lat="48.53095" lon="-2.82549">
        <ele>59.7</ele>
        <time>2015-09-15T12:57:45Z</time>
      </trkpt>
      <trkpt lat="48.53105" lon="-2.82548">
        <ele>59.1</ele>
        <time>2015-09-15T12:57:50Z</time>
      </trkpt>
      <trkpt lat="48.53108" lon="-2.82534">
        <ele>58.8</ele>
        <time>2015-09-15T12:57:52Z</time>
      </trkpt>
      <trkpt lat="48.53106" lon="-2.82514">
        <ele>58.3</ele>
        <time>2015-09-15T12:57:54Z</time>
      </trkpt>
      <trkpt lat="48.53101" lon="-2.82491">
        <ele>57.7</ele>
        <time>2015-09-15T12:57:56Z</time>
      </trkpt>
      <trkpt lat="48.53095" lon="-2.82468">
        <ele>56.9</ele>
        <time>2015-09-15T12:57:58Z</time>
      </trkpt>
      <trkpt lat="48.53089" lon="-2.82444">
        <ele>56.1</ele>
        <time>2015-09-15T12:58:00Z</time>
      </trkpt>
      <trkpt lat="48.53087" lon="-2.82417">
        <ele>55.2</ele>
        <time>2015-09-15T12:58:02Z</time>
      </trkpt>
      <trkpt lat="48.53089" lon="-2.82398">
        <ele>54.3</ele>
        <time>2015-09-15T12:58:04Z</time>
      </trkpt>
      <trkpt lat="48.53091" lon="-2.82382">
        <ele>53</ele>
        <time>2015-09-15T12:58:07Z</time>
      </trkpt>
      <trkpt lat="48.53095" lon="-2.82369">
        <ele>52</ele>
        <time>2015-09-15T12:58:10Z</time>
      </trkpt>
      <trkpt lat="48.53097" lon="-2.82353">
        <ele>50.7</ele>
        <time>2015-09-15T12:58:14Z</time>
      </trkpt>
      <trkpt lat="48.53092" lon="-2.82342">
        <ele>49.9</ele>
        <time>2015-09-15T12:58:17Z</time>
      </trkpt>
      <trkpt lat="48.53085" lon="-2.82331">
        <ele>49.1</ele>
        <time>2015-09-15T12:58:20Z</time>
      </trkpt>
      <trkpt lat="48.53077" lon="-2.8232">
        <ele>48.3</ele>
        <time>2015-09-15T12:58:23Z</time>
      </trkpt>
      <trkpt lat="48.53069" lon="-2.82309">
        <ele>47.6</ele>
        <time>2015-09-15T12:58:26Z</time>
      </trkpt>
      <trkpt lat="48.5306" lon="-2.82296">
        <ele>47</ele>
        <time>2015-09-15T12:58:29Z</time>
      </trkpt>
      <trkpt lat="48.53049" lon="-2.82284">
        <ele>46.4</ele>
        <time>2015-09-15T12:58:32Z</time>
      </trkpt>
      <trkpt lat="48.53042" lon="-2.82277">
        <ele>46</ele>
        <time>2015-09-15T12:58:34Z</time>
      </trkpt>
      <trkpt lat="48.53033" lon="-2.8227">
        <ele>45.6</ele>
        <time>2015-09-15T12:58:36Z</time>
      </trkpt>
      <trkpt lat="48.53021" lon="-2.82264">
        <ele>45</ele>
        <time>2015-09-15T12:58:39Z</time>
      </trkpt>
      <trkpt lat="48.53012" lon="-2.82258">
        <ele>44.5</ele>
        <time>2015-09-15T12:58:42Z</time>
      </trkpt>
      <trkpt lat="48.53" lon="-2.82252">
        <ele>44</ele>
        <time>2015-09-15T12:58:45Z</time>
      </trkpt>
      <trkpt lat="48.52989" lon="-2.82244">
        <ele>43.6</ele>
        <time>2015-09-15T12:58:48Z</time>
      </trkpt>
      <trkpt lat="48.5298" lon="-2.82233">
        <ele>43.2</ele>
        <time>2015-09-15T12:58:51Z</time>
      </trkpt>
      <trkpt lat="48.52973" lon="-2.8222">
        <ele>42.9</ele>
        <time>2015-09-15T12:58:54Z</time>
      </trkpt>
      <trkpt lat="48.52966" lon="-2.82206">
        <ele>42.5</ele>
        <time>2015-09-15T12:58:57Z</time>
      </trkpt>
      <trkpt lat="48.5296" lon="-2.82192">
        <ele>42.1</ele>
        <time>2015-09-15T12:59:00Z</time>
      </trkpt>
      <trkpt lat="48.52955" lon="-2.8218">
        <ele>41.8</ele>
        <time>2015-09-15T12:59:03Z</time>
      </trkpt>
      <trkpt lat="48.52945" lon="-2.82172">
        <ele>41.2</ele>
        <time>2015-09-15T12:59:09Z</time>
      </trkpt>
      <trkpt lat="48.52942" lon="-2.82157">
        <ele>40.9</ele>
        <time>2015-09-15T12:59:13Z</time>
      </trkpt>
      <trkpt lat="48.52942" lon="-2.82144">
        <ele>40.7</ele>
        <time>2015-09-15T12:59:16Z</time>
      </trkpt>
      <trkpt lat="48.52942" lon="-2.82126">
        <ele>40.5</ele>
        <time>2015-09-15T12:59:20Z</time>
      </trkpt>
      <trkpt lat="48.52941" lon="-2.82112">
        <ele>40.4</ele>
        <time>2015-09-15T12:59:23Z</time>
      </trkpt>
      <trkpt lat="48.5294" lon="-2.82098">
        <ele>40.3</ele>
        <time>2015-09-15T12:59:26Z</time>
      </trkpt>
      <trkpt lat="48.52938" lon="-2.82085">
        <ele>40.2</ele>
        <time>2015-09-15T12:59:29Z</time>
      </trkpt>
      <trkpt lat="48.52935" lon="-2.8207">
        <ele>40.1</ele>
        <time>2015-09-15T12:59:32Z</time>
      </trkpt>
      <trkpt lat="48.52931" lon="-2.82054">
        <ele>40.1</ele>
        <time>2015-09-15T12:59:35Z</time>
      </trkpt>
      <trkpt lat="48.52927" lon="-2.82036">
        <ele>40</ele>
        <time>2015-09-15T12:59:38Z</time>
      </trkpt>
      <trkpt lat="48.52925" lon="-2.82023">
        <ele>40</ele>
        <time>2015-09-15T12:59:40Z</time>
      </trkpt>
      <trkpt lat="48.52922" lon="-2.82009">
        <ele>40</ele>
        <time>2015-09-15T12:59:42Z</time>
      </trkpt>
      <trkpt lat="48.5292" lon="-2.81996">
        <ele>40</ele>
        <time>2015-09-15T12:59:44Z</time>
      </trkpt>
      <trkpt lat="48.52918" lon="-2.81982">
        <ele>39.9</ele>
        <time>2015-09-15T12:59:46Z</time>
      </trkpt>
      <trkpt lat="48.52916" lon="-2.81968">
        <ele>39.9</ele>
        <time>2015-09-15T12:59:48Z</time>
      </trkpt>
      <trkpt lat="48.52914" lon="-2.81953">
        <ele>39.8</ele>
        <time>2015-09-15T12:59:50Z</time>
      </trkpt>
      <trkpt lat="48.52913" lon="-2.81938">
        <ele>39.7</ele>
        <time>2015-09-15T12:59:52Z</time>
      </trkpt>
      <trkpt lat="48.52913" lon="-2.81923">
        <ele>39.6</ele>
        <time>2015-09-15T12:59:54Z</time>
      </trkpt>
      <trkpt lat="48.52913" lon="-2.81907">
        <ele>39.4</ele>
        <time>2015-09-15T12:59:56Z</time>
      </trkpt>
      <trkpt lat="48.52913" lon="-2.81891">
        <ele>39.3</ele>
        <time>2015-09-15T12:59:58Z</time>
      </trkpt>
      <trkpt lat="48.52914" lon="-2.81875">
        <ele>39.1</ele>
        <time>2015-09-15T13:00:00Z</time>
      </trkpt>
      <trkpt lat="48.52915" lon="-2.81858">
        <ele>38.8</ele>
        <time>2015-09-15T13:00:02Z</time>
      </trkpt>
      <trkpt lat="48.52918" lon="-2.81841">
        <ele>38.6</ele>
        <time>2015-09-15T13:00:04Z</time>
      </trkpt>
      <trkpt lat="48.5292" lon="-2.81824">
        <ele>38.3</ele>
        <time>2015-09-15T13:00:06Z</time>
      </trkpt>
      <trkpt lat="48.52923" lon="-2.81807">
        <ele>38.1</ele>
        <time>2015-09-15T13:00:08Z</time>
      </trkpt>
      <trkpt lat="48.52926" lon="-2.81791">
        <ele>37.8</ele>
        <time>2015-09-15T13:00:10Z</time>
      </trkpt>
      <trkpt lat="48.5293" lon="-2.81776">
        <ele>37.5</ele>
        <time>2015-09-15T13:00:12Z</time>
      </trkpt>
      <trkpt lat="48.52934" lon="-2.81761">
        <ele>37.3</ele>
        <time>2015-09-15T13:00:14Z</time>
      </trkpt>
      <trkpt lat="48.52938" lon="-2.81746">
        <ele>37</ele>
        <time>2015-09-15T13:00:16Z</time>
      </trkpt>
      <trkpt lat="48.52941" lon="-2.81731">
        <ele>36.8</ele>
        <time>2015-09-15T13:00:18Z</time>
      </trkpt>
      <trkpt lat="48.52944" lon="-2.81717">
        <ele>36.6</ele>
        <time>2015-09-15T13:00:20Z</time>
      </trkpt>
      <trkpt lat="48.52946" lon="-2.81703">
        <ele>36.3</ele>
        <time>2015-09-15T13:00:22Z</time>
      </trkpt>
      <trkpt lat="48.52949" lon="-2.81684">
        <ele>36</ele>
        <time>2015-09-15T13:00:25Z</time>
      </trkpt>
      <trkpt lat="48.52952" lon="-2.81667">
        <ele>35.8</ele>
        <time>2015-09-15T13:00:28Z</time>
      </trkpt>
      <trkpt lat="48.52954" lon="-2.81649">
        <ele>35.5</ele>
        <time>2015-09-15T13:00:31Z</time>
      </trkpt>
      <trkpt lat="48.52957" lon="-2.81631">
        <ele>35.4</ele>
        <time>2015-09-15T13:00:34Z</time>
      </trkpt>
      <trkpt lat="48.52961" lon="-2.81613">
        <ele>35.2</ele>
        <time>2015-09-15T13:00:37Z</time>
      </trkpt>
      <trkpt lat="48.52966" lon="-2.81595">
        <ele>35.1</ele>
        <time>2015-09-15T13:00:40Z</time>
      </trkpt>
      <trkpt lat="48.5297" lon="-2.81578">
        <ele>35</ele>
        <time>2015-09-15T13:00:43Z</time>
      </trkpt>
      <trkpt lat="48.52975" lon="-2.81564">
        <ele>35</ele>
        <time>2015-09-15T13:00:46Z</time>
      </trkpt>
      <trkpt lat="48.52979" lon="-2.8155">
        <ele>34.9</ele>
        <time>2015-09-15T13:00:49Z</time>
      </trkpt>
      <trkpt lat="48.52983" lon="-2.81535">
        <ele>34.9</ele>
        <time>2015-09-15T13:00:52Z</time>
      </trkpt>
      <trkpt lat="48.52988" lon="-2.8152">
        <ele>34.9</ele>
        <time>2015-09-15T13:00:55Z</time>
      </trkpt>
      <trkpt lat="48.52992" lon="-2.81506">
        <ele>34.9</ele>
        <time>2015-09-15T13:00:58Z</time>
      </trkpt>
      <trkpt lat="48.52996" lon="-2.8149">
        <ele>34.9</ele>
        <time>2015-09-15T13:01:01Z</time>
      </trkpt>
      <trkpt lat="48.52999" lon="-2.81474">
        <ele>34.9</ele>
        <time>2015-09-15T13:01:04Z</time>
      </trkpt>
      <trkpt lat="48.53002" lon="-2.81457">
        <ele>34.9</ele>
        <time>2015-09-15T13:01:07Z</time>
      </trkpt>
      <trkpt lat="48.53004" lon="-2.8144">
        <ele>34.9</ele>
        <time>2015-09-15T13:01:10Z</time>
      </trkpt>
      <trkpt lat="48.53005" lon="-2.81424">
        <ele>35</ele>
        <time>2015-09-15T13:01:13Z</time>
      </trkpt>
      <trkpt lat="48.53004" lon="-2.8141">
        <ele>35</ele>
        <time>2015-09-15T13:01:16Z</time>
      </trkpt>
      <trkpt lat="48.53002" lon="-2.81394">
        <ele>35</ele>
        <time>2015-09-15T13:01:19Z</time>
      </trkpt>
      <trkpt lat="48.52997" lon="-2.81376">
        <ele>35</ele>
        <time>2015-09-15T13:01:22Z</time>
      </trkpt>
      <trkpt lat="48.52994" lon="-2.81358">
        <ele>34.9</ele>
        <time>2015-09-15T13:01:25Z</time>
      </trkpt>
      <trkpt lat="48.52992" lon="-2.81344">
        <ele>34.8</ele>
        <time>2015-09-15T13:01:27Z</time>
      </trkpt>
      <trkpt lat="48.52989" lon="-2.81323">
        <ele>34.6</ele>
        <time>2015-09-15T13:01:30Z</time>
      </trkpt>
      <trkpt lat="48.52986" lon="-2.81308">
        <ele>34.5</ele>
        <time>2015-09-15T13:01:32Z</time>
      </trkpt>
      <trkpt lat="48.52982" lon="-2.81294">
        <ele>34.4</ele>
        <time>2015-09-15T13:01:34Z</time>
      </trkpt>
      <trkpt lat="48.52978" lon="-2.8128">
        <ele>34.3</ele>
        <time>2015-09-15T13:01:36Z</time>
      </trkpt>
      <trkpt lat="48.52973" lon="-2.81267">
        <ele>34.2</ele>
        <time>2015-09-15T13:01:38Z</time>
      </trkpt>
      <trkpt lat="48.52969" lon="-2.81252">
        <ele>34</ele>
        <time>2015-09-15T13:01:40Z</time>
      </trkpt>
      <trkpt lat="48.52966" lon="-2.81238">
        <ele>33.9</ele>
        <time>2015-09-15T13:01:42Z</time>
      </trkpt>
      <trkpt lat="48.52963" lon="-2.81222">
        <ele>33.9</ele>
        <time>2015-09-15T13:01:44Z</time>
      </trkpt>
      <trkpt lat="48.52959" lon="-2.81208">
        <ele>33.8</ele>
        <time>2015-09-15T13:01:46Z</time>
      </trkpt>
      <trkpt lat="48.52957" lon="-2.81192">
        <ele>33.7</ele>
        <time>2015-09-15T13:01:48Z</time>
      </trkpt>
      <trkpt lat="48.52955" lon="-2.81177">
        <ele>33.7</ele>
        <time>2015-09-15T13:01:50Z</time>
      </trkpt>
      <trkpt lat="48.52956" lon="-2.81161">
        <ele>33.8</ele>
        <time>2015-09-15T13:01:52Z</time>
      </trkpt>
      <trkpt lat="48.52957" lon="-2.81146">
        <ele>33.8</ele>
        <time>2015-09-15T13:01:54Z</time>
      </trkpt>
      <trkpt lat="48.52958" lon="-2.81132">
        <ele>34</ele>
        <time>2015-09-15T13:01:56Z</time>
      </trkpt>
      <trkpt lat="48.52961" lon="-2.81118">
        <ele>34.2</ele>
        <time>2015-09-15T13:01:58Z</time>
      </trkpt>
      <trkpt lat="48.52963" lon="-2.81104">
        <ele>34.4</ele>
        <time>2015-09-15T13:02:00Z</time>
      </trkpt>
      <trkpt lat="48.52968" lon="-2.8109">
        <ele>34.6</ele>
        <time>2015-09-15T13:02:02Z</time>
      </trkpt>
      <trkpt lat="48.52973" lon="-2.81078">
        <ele>34.8</ele>
        <time>2015-09-15T13:02:04Z</time>
      </trkpt>
      <trkpt lat="48.52979" lon="-2.81065">
        <ele>35</ele>
        <time>2015-09-15T13:02:06Z</time>
      </trkpt>
      <trkpt lat="48.52986" lon="-2.81055">
        <ele>35.2</ele>
        <time>2015-09-15T13:02:08Z</time>
      </trkpt>
      <trkpt lat="48.52994" lon="-2.81045">
        <ele>35.4</ele>
        <time>2015-09-15T13:02:10Z</time>
      </trkpt>
      <trkpt lat="48.53002" lon="-2.81037">
        <ele>35.5</ele>
        <time>2015-09-15T13:02:12Z</time>
      </trkpt>
      <trkpt lat="48.5301" lon="-2.81029">
        <ele>35.7</ele>
        <time>2015-09-15T13:02:14Z</time>
      </trkpt>
      <trkpt lat="48.53019" lon="-2.81023">
        <ele>35.8</ele>
        <time>2015-09-15T13:02:16Z</time>
      </trkpt>
      <trkpt lat="48.53029" lon="-2.81017">
        <ele>35.9</ele>
        <time>2015-09-15T13:02:18Z</time>
      </trkpt>
      <trkpt lat="48.53038" lon="-2.81012">
        <ele>36</ele>
        <time>2015-09-15T13:02:20Z</time>
      </trkpt>
      <trkpt lat="48.53047" lon="-2.81006">
        <ele>36.1</ele>
        <time>2015-09-15T13:02:22Z</time>
      </trkpt>
      <trkpt lat="48.53057" lon="-2.81001">
        <ele>36.2</ele>
        <time>2015-09-15T13:02:24Z</time>
      </trkpt>
      <trkpt lat="48.53067" lon="-2.80995">
        <ele>36.3</ele>
        <time>2015-09-15T13:02:26Z</time>
      </trkpt>
      <trkpt lat="48.53077" lon="-2.8099">
        <ele>36.3</ele>
        <time>2015-09-15T13:02:28Z</time>
      </trkpt>
      <trkpt lat="48.53086" lon="-2.80984">
        <ele>36.4</ele>
        <time>2015-09-15T13:02:30Z</time>
      </trkpt>
      <trkpt lat="48.53096" lon="-2.80978">
        <ele>36.4</ele>
        <time>2015-09-15T13:02:32Z</time>
      </trkpt>
      <trkpt lat="48.53106" lon="-2.80972">
        <ele>36.4</ele>
        <time>2015-09-15T13:02:34Z</time>
      </trkpt>
      <trkpt lat="48.53115" lon="-2.80966">
        <ele>36.5</ele>
        <time>2015-09-15T13:02:36Z</time>
      </trkpt>
      <trkpt lat="48.53124" lon="-2.80959">
        <ele>36.5</ele>
        <time>2015-09-15T13:02:38Z</time>
      </trkpt>
      <trkpt lat="48.53133" lon="-2.80952">
        <ele>36.4</ele>
        <time>2015-09-15T13:02:40Z</time>
      </trkpt>
      <trkpt lat="48.53141" lon="-2.80945">
        <ele>36.3</ele>
        <time>2015-09-15T13:02:42Z</time>
      </trkpt>
      <trkpt lat="48.53149" lon="-2.80937">
        <ele>36.3</ele>
        <time>2015-09-15T13:02:44Z</time>
      </trkpt>
      <trkpt lat="48.53158" lon="-2.8093">
        <ele>36.2</ele>
        <time>2015-09-15T13:02:46Z</time>
      </trkpt>
      <trkpt lat="48.53166" lon="-2.80923">
        <ele>36.2</ele>
        <time>2015-09-15T13:02:48Z</time>
      </trkpt>
      <trkpt lat="48.53175" lon="-2.80915">
        <ele>36.1</ele>
        <time>2015-09-15T13:02:50Z</time>
      </trkpt>
      <trkpt lat="48.53183" lon="-2.80908">
        <ele>36</ele>
        <time>2015-09-15T13:02:52Z</time>
      </trkpt>
      <trkpt lat="48.53192" lon="-2.80899">
        <ele>36</ele>
        <time>2015-09-15T13:02:54Z</time>
      </trkpt>
      <trkpt lat="48.53201" lon="-2.80891">
        <ele>36</ele>
        <time>2015-09-15T13:02:56Z</time>
      </trkpt>
      <trkpt lat="48.5321" lon="-2.80882">
        <ele>35.9</ele>
        <time>2015-09-15T13:02:58Z</time>
      </trkpt>
      <trkpt lat="48.5322" lon="-2.80872">
        <ele>35.7</ele>
        <time>2015-09-15T13:03:00Z</time>
      </trkpt>
      <trkpt lat="48.5323" lon="-2.8086">
        <ele>35.5</ele>
        <time>2015-09-15T13:03:02Z</time>
      </trkpt>
      <trkpt lat="48.5324" lon="-2.80847">
        <ele>35.2</ele>
        <time>2015-09-15T13:03:04Z</time>
      </trkpt>
      <trkpt lat="48.5325" lon="-2.80833">
        <ele>34.9</ele>
        <time>2015-09-15T13:03:06Z</time>
      </trkpt>
      <trkpt lat="48.53259" lon="-2.80817">
        <ele>34.5</ele>
        <time>2015-09-15T13:03:08Z</time>
      </trkpt>
      <trkpt lat="48.53267" lon="-2.808">
        <ele>34.2</ele>
        <time>2015-09-15T13:03:10Z</time>
      </trkpt>
      <trkpt lat="48.53275" lon="-2.80784">
        <ele>33.8</ele>
        <time>2015-09-15T13:03:12Z</time>
      </trkpt>
      <trkpt lat="48.53283" lon="-2.80768">
        <ele>33.5</ele>
        <time>2015-09-15T13:03:14Z</time>
      </trkpt>
      <trkpt lat="48.5329" lon="-2.80753">
        <ele>33.1</ele>
        <time>2015-09-15T13:03:16Z</time>
      </trkpt>
      <trkpt lat="48.53296" lon="-2.80738">
        <ele>32.8</ele>
        <time>2015-09-15T13:03:18Z</time>
      </trkpt>
      <trkpt lat="48.53303" lon="-2.80724">
        <ele>32.6</ele>
        <time>2015-09-15T13:03:20Z</time>
      </trkpt>
      <trkpt lat="48.53309" lon="-2.8071">
        <ele>32.3</ele>
        <time>2015-09-15T13:03:22Z</time>
      </trkpt>
      <trkpt lat="48.53315" lon="-2.80696">
        <ele>32.1</ele>
        <time>2015-09-15T13:03:24Z</time>
      </trkpt>
      <trkpt lat="48.53322" lon="-2.80681">
        <ele>31.9</ele>
        <time>2015-09-15T13:03:26Z</time>
      </trkpt>
      <trkpt lat="48.53327" lon="-2.80666">
        <ele>31.7</ele>
        <time>2015-09-15T13:03:28Z</time>
      </trkpt>
      <trkpt lat="48.53331" lon="-2.8065">
        <ele>31.5</ele>
        <time>2015-09-15T13:03:30Z</time>
      </trkpt>
      <trkpt lat="48.53334" lon="-2.80633">
        <ele>31.3</ele>
        <time>2015-09-15T13:03:32Z</time>
      </trkpt>
      <trkpt lat="48.53337" lon="-2.80618">
        <ele>31.1</ele>
        <time>2015-09-15T13:03:34Z</time>
      </trkpt>
      <trkpt lat="48.53339" lon="-2.80603">
        <ele>30.9</ele>
        <time>2015-09-15T13:03:36Z</time>
      </trkpt>
      <trkpt lat="48.5334" lon="-2.80588">
        <ele>30.7</ele>
        <time>2015-09-15T13:03:38Z</time>
      </trkpt>
      <trkpt lat="48.53342" lon="-2.80573">
        <ele>30.6</ele>
        <time>2015-09-15T13:03:40Z</time>
      </trkpt>
      <trkpt lat="48.53343" lon="-2.80559">
        <ele>30.4</ele>
        <time>2015-09-15T13:03:42Z</time>
      </trkpt>
      <trkpt lat="48.53343" lon="-2.80544">
        <ele>30.3</ele>
        <time>2015-09-15T13:03:44Z</time>
      </trkpt>
      <trkpt lat="48.53344" lon="-2.80525">
        <ele>30.2</ele>
        <time>2015-09-15T13:03:47Z</time>
      </trkpt>
      <trkpt lat="48.53346" lon="-2.8051">
        <ele>30</ele>
        <time>2015-09-15T13:03:50Z</time>
      </trkpt>
      <trkpt lat="48.53342" lon="-2.80491">
        <ele>29.9</ele>
        <time>2015-09-15T13:03:53Z</time>
      </trkpt>
      <trkpt lat="48.53338" lon="-2.80471">
        <ele>29.9</ele>
        <time>2015-09-15T13:03:56Z</time>
      </trkpt>
      <trkpt lat="48.53333" lon="-2.80459">
        <ele>29.8</ele>
        <time>2015-09-15T13:03:58Z</time>
      </trkpt>
      <trkpt lat="48.5333" lon="-2.80444">
        <ele>29.8</ele>
        <time>2015-09-15T13:04:00Z</time>
      </trkpt>
      <trkpt lat="48.53327" lon="-2.80431">
        <ele>29.8</ele>
        <time>2015-09-15T13:04:02Z</time>
      </trkpt>
      <trkpt lat="48.53325" lon="-2.80417">
        <ele>29.8</ele>
        <time>2015-09-15T13:04:04Z</time>
      </trkpt>
      <trkpt lat="48.53323" lon="-2.80403">
        <ele>29.8</ele>
        <time>2015-09-15T13:04:06Z</time>
      </trkpt>
      <trkpt lat="48.53318" lon="-2.8039">
        <ele>29.8</ele>
        <time>2015-09-15T13:04:08Z</time>
      </trkpt>
      <trkpt lat="48.53313" lon="-2.80377">
        <ele>29.8</ele>
        <time>2015-09-15T13:04:10Z</time>
      </trkpt>
      <trkpt lat="48.5331" lon="-2.80361">
        <ele>29.8</ele>
        <time>2015-09-15T13:04:12Z</time>
      </trkpt>
      <trkpt lat="48.53306" lon="-2.80345">
        <ele>29.7</ele>
        <time>2015-09-15T13:04:14Z</time>
      </trkpt>
      <trkpt lat="48.53303" lon="-2.80327">
        <ele>29.7</ele>
        <time>2015-09-15T13:04:16Z</time>
      </trkpt>
      <trkpt lat="48.53298" lon="-2.8031">
        <ele>29.6</ele>
        <time>2015-09-15T13:04:18Z</time>
      </trkpt>
      <trkpt lat="48.53293" lon="-2.80294">
        <ele>29.5</ele>
        <time>2015-09-15T13:04:20Z</time>
      </trkpt>
      <trkpt lat="48.53286" lon="-2.80278">
        <ele>29.4</ele>
        <time>2015-09-15T13:04:22Z</time>
      </trkpt>
      <trkpt lat="48.53279" lon="-2.80262">
        <ele>29.3</ele>
        <time>2015-09-15T13:04:24Z</time>
      </trkpt>
      <trkpt lat="48.53271" lon="-2.80247">
        <ele>29.1</ele>
        <time>2015-09-15T13:04:26Z</time>
      </trkpt>
      <trkpt lat="48.53262" lon="-2.80234">
        <ele>29</ele>
        <time>2015-09-15T13:04:28Z</time>
      </trkpt>
      <trkpt lat="48.53254" lon="-2.8022">
        <ele>28.8</ele>
        <time>2015-09-15T13:04:30Z</time>
      </trkpt>
      <trkpt lat="48.53244" lon="-2.80208">
        <ele>28.6</ele>
        <time>2015-09-15T13:04:32Z</time>
      </trkpt>
      <trkpt lat="48.53232" lon="-2.80203">
        <ele>28.4</ele>
        <time>2015-09-15T13:04:34Z</time>
      </trkpt>
      <trkpt lat="48.53222" lon="-2.80207">
        <ele>28.2</ele>
        <time>2015-09-15T13:04:36Z</time>
      </trkpt>
      <trkpt lat="48.53212" lon="-2.80213">
        <ele>28.1</ele>
        <time>2015-09-15T13:04:38Z</time>
      </trkpt>
      <trkpt lat="48.53201" lon="-2.80219">
        <ele>28</ele>
        <time>2015-09-15T13:04:40Z</time>
      </trkpt>
      <trkpt lat="48.53189" lon="-2.80221">
        <ele>27.9</ele>
        <time>2015-09-15T13:04:42Z</time>
      </trkpt>
      <trkpt lat="48.53178" lon="-2.80219">
        <ele>27.8</ele>
        <time>2015-09-15T13:04:44Z</time>
      </trkpt>
      <trkpt lat="48.53167" lon="-2.80211">
        <ele>27.8</ele>
        <time>2015-09-15T13:04:46Z</time>
      </trkpt>
      <trkpt lat="48.53159" lon="-2.80199">
        <ele>27.8</ele>
        <time>2015-09-15T13:04:48Z</time>
      </trkpt>
      <trkpt lat="48.53153" lon="-2.80183">
        <ele>27.7</ele>
        <time>2015-09-15T13:04:50Z</time>
      </trkpt>
      <trkpt lat="48.53152" lon="-2.80165">
        <ele>27.7</ele>
        <time>2015-09-15T13:04:52Z</time>
      </trkpt>
      <trkpt lat="48.53155" lon="-2.80148">
        <ele>27.7</ele>
        <time>2015-09-15T13:04:54Z</time>
      </trkpt>
      <trkpt lat="48.5316" lon="-2.80132">
        <ele>27.7</ele>
        <time>2015-09-15T13:04:56Z</time>
      </trkpt>
      <trkpt lat="48.53166" lon="-2.80119">
        <ele>27.7</ele>
        <time>2015-09-15T13:04:58Z</time>
      </trkpt>
      <trkpt lat="48.53172" lon="-2.80105">
        <ele>27.7</ele>
        <time>2015-09-15T13:05:00Z</time>
      </trkpt>
      <trkpt lat="48.53177" lon="-2.80092">
        <ele>27.7</ele>
        <time>2015-09-15T13:05:02Z</time>
      </trkpt>
      <trkpt lat="48.53182" lon="-2.80078">
        <ele>27.7</ele>
        <time>2015-09-15T13:05:04Z</time>
      </trkpt>
      <trkpt lat="48.53188" lon="-2.80066">
        <ele>27.7</ele>
        <time>2015-09-15T13:05:06Z</time>
      </trkpt>
      <trkpt lat="48.53195" lon="-2.80054">
        <ele>27.7</ele>
        <time>2015-09-15T13:05:08Z</time>
      </trkpt>
      <trkpt lat="48.53202" lon="-2.80044">
        <ele>27.8</ele>
        <time>2015-09-15T13:05:10Z</time>
      </trkpt>
      <trkpt lat="48.5321" lon="-2.80034">
        <ele>27.9</ele>
        <time>2015-09-15T13:05:12Z</time>
      </trkpt>
      <trkpt lat="48.53217" lon="-2.80025">
        <ele>27.9</ele>
        <time>2015-09-15T13:05:14Z</time>
      </trkpt>
      <trkpt lat="48.53228" lon="-2.80014">
        <ele>28</ele>
        <time>2015-09-15T13:05:17Z</time>
      </trkpt>
      <trkpt lat="48.53235" lon="-2.80006">
        <ele>28</ele>
        <time>2015-09-15T13:05:19Z</time>
      </trkpt>
      <trkpt lat="48.53243" lon="-2.79997">
        <ele>28.1</ele>
        <time>2015-09-15T13:05:21Z</time>
      </trkpt>
      <trkpt lat="48.53251" lon="-2.79987">
        <ele>28.1</ele>
        <time>2015-09-15T13:05:23Z</time>
      </trkpt>
      <trkpt lat="48.5326" lon="-2.79977">
        <ele>28.1</ele>
        <time>2015-09-15T13:05:25Z</time>
      </trkpt>
      <trkpt lat="48.53268" lon="-2.79967">
        <ele>28.2</ele>
        <time>2015-09-15T13:05:27Z</time>
      </trkpt>
      <trkpt lat="48.53277" lon="-2.79957">
        <ele>28.2</ele>
        <time>2015-09-15T13:05:29Z</time>
      </trkpt>
      <trkpt lat="48.53286" lon="-2.79946">
        <ele>28.2</ele>
        <time>2015-09-15T13:05:31Z</time>
      </trkpt>
      <trkpt lat="48.53295" lon="-2.79935">
        <ele>28</ele>
        <time>2015-09-15T13:05:33Z</time>
      </trkpt>
      <trkpt lat="48.53304" lon="-2.79925">
        <ele>27.8</ele>
        <time>2015-09-15T13:05:35Z</time>
      </trkpt>
      <trkpt lat="48.5331" lon="-2.79911">
        <ele>27.5</ele>
        <time>2015-09-15T13:05:37Z</time>
      </trkpt>
      <trkpt lat="48.53317" lon="-2.79897">
        <ele>27.2</ele>
        <time>2015-09-15T13:05:39Z</time>
      </trkpt>
      <trkpt lat="48.53324" lon="-2.79884">
        <ele>26.8</ele>
        <time>2015-09-15T13:05:41Z</time>
      </trkpt>
      <trkpt lat="48.53324" lon="-2.79869">
        <ele>26.5</ele>
        <time>2015-09-15T13:05:43Z</time>
      </trkpt>
      <trkpt lat="48.53325" lon="-2.79853">
        <ele>26.2</ele>
        <time>2015-09-15T13:05:45Z</time>
      </trkpt>
      <trkpt lat="48.53327" lon="-2.79833">
        <ele>25.8</ele>
        <time>2015-09-15T13:05:48Z</time>
      </trkpt>
      <trkpt lat="48.53321" lon="-2.79814">
        <ele>25.6</ele>
        <time>2015-09-15T13:05:50Z</time>
      </trkpt>
      <trkpt lat="48.53316" lon="-2.79799">
        <ele>25.4</ele>
        <time>2015-09-15T13:05:52Z</time>
      </trkpt>
      <trkpt lat="48.5331" lon="-2.79787">
        <ele>25.2</ele>
        <time>2015-09-15T13:05:54Z</time>
      </trkpt>
      <trkpt lat="48.53304" lon="-2.79776">
        <ele>25.1</ele>
        <time>2015-09-15T13:05:56Z</time>
      </trkpt>
      <trkpt lat="48.53298" lon="-2.79764">
        <ele>24.9</ele>
        <time>2015-09-15T13:05:58Z</time>
      </trkpt>
      <trkpt lat="48.53292" lon="-2.79753">
        <ele>24.8</ele>
        <time>2015-09-15T13:06:00Z</time>
      </trkpt>
      <trkpt lat="48.53283" lon="-2.79743">
        <ele>24.7</ele>
        <time>2015-09-15T13:06:02Z</time>
      </trkpt>
      <trkpt lat="48.53272" lon="-2.7973">
        <ele>24.6</ele>
        <time>2015-09-15T13:06:05Z</time>
      </trkpt>
      <trkpt lat="48.53263" lon="-2.79721">
        <ele>24.5</ele>
        <time>2015-09-15T13:06:07Z</time>
      </trkpt>
      <trkpt lat="48.53255" lon="-2.79714">
        <ele>24.4</ele>
        <time>2015-09-15T13:06:09Z</time>
      </trkpt>
      <trkpt lat="48.53246" lon="-2.79706">
        <ele>24.4</ele>
        <time>2015-09-15T13:06:11Z</time>
      </trkpt>
      <trkpt lat="48.53237" lon="-2.79699">
        <ele>24.3</ele>
        <time>2015-09-15T13:06:14Z</time>
      </trkpt>
      <trkpt lat="48.53227" lon="-2.79695">
        <ele>24.3</ele>
        <time>2015-09-15T13:06:16Z</time>
      </trkpt>
      <trkpt lat="48.53213" lon="-2.79686">
        <ele>24.2</ele>
        <time>2015-09-15T13:06:19Z</time>
      </trkpt>
      <trkpt lat="48.53204" lon="-2.79682">
        <ele>24.2</ele>
        <time>2015-09-15T13:06:21Z</time>
      </trkpt>
      <trkpt lat="48.53192" lon="-2.79676">
        <ele>24.2</ele>
        <time>2015-09-15T13:06:24Z</time>
      </trkpt>
      <trkpt lat="48.53183" lon="-2.79671">
        <ele>24.1</ele>
        <time>2015-09-15T13:06:26Z</time>
      </trkpt>
      <trkpt lat="48.53172" lon="-2.79662">
        <ele>24.1</ele>
        <time>2015-09-15T13:06:29Z</time>
      </trkpt>
      <trkpt lat="48.53162" lon="-2.79654">
        <ele>24.1</ele>
        <time>2015-09-15T13:06:32Z</time>
      </trkpt>
      <trkpt lat="48.53153" lon="-2.7965">
        <ele>24.1</ele>
        <time>2015-09-15T13:06:34Z</time>
      </trkpt>
      <trkpt lat="48.53142" lon="-2.79645">
        <ele>24.1</ele>
        <time>2015-09-15T13:06:36Z</time>
      </trkpt>
      <trkpt lat="48.53133" lon="-2.7964">
        <ele>24</ele>
        <time>2015-09-15T13:06:38Z</time>
      </trkpt>
      <trkpt lat="48.53121" lon="-2.79636">
        <ele>24</ele>
        <time>2015-09-15T13:06:40Z</time>
      </trkpt>
      <trkpt lat="48.53112" lon="-2.79629">
        <ele>24</ele>
        <time>2015-09-15T13:06:42Z</time>
      </trkpt>
      <trkpt lat="48.53102" lon="-2.79626">
        <ele>24</ele>
        <time>2015-09-15T13:06:43Z</time>
      </trkpt>
      <trkpt lat="48.53092" lon="-2.79619">
        <ele>24</ele>
        <time>2015-09-15T13:06:45Z</time>
      </trkpt>
      <trkpt lat="48.53084" lon="-2.79607">
        <ele>24</ele>
        <time>2015-09-15T13:06:47Z</time>
      </trkpt>
      <trkpt lat="48.53078" lon="-2.79596">
        <ele>24</ele>
        <time>2015-09-15T13:06:49Z</time>
      </trkpt>
      <trkpt lat="48.53075" lon="-2.79577">
        <ele>24</ele>
        <time>2015-09-15T13:06:52Z</time>
      </trkpt>
      <trkpt lat="48.53076" lon="-2.79562">
        <ele>24</ele>
        <time>2015-09-15T13:06:54Z</time>
      </trkpt>
      <trkpt lat="48.53077" lon="-2.79548">
        <ele>24</ele>
        <time>2015-09-15T13:06:56Z</time>
      </trkpt>
      <trkpt lat="48.53078" lon="-2.79533">
        <ele>24</ele>
        <time>2015-09-15T13:06:58Z</time>
      </trkpt>
      <trkpt lat="48.53079" lon="-2.79519">
        <ele>24</ele>
        <time>2015-09-15T13:07:00Z</time>
      </trkpt>
      <trkpt lat="48.53082" lon="-2.79504">
        <ele>24</ele>
        <time>2015-09-15T13:07:02Z</time>
      </trkpt>
      <trkpt lat="48.53084" lon="-2.7949">
        <ele>24</ele>
        <time>2015-09-15T13:07:04Z</time>
      </trkpt>
      <trkpt lat="48.53087" lon="-2.79473">
        <ele>24</ele>
        <time>2015-09-15T13:07:06Z</time>
      </trkpt>
      <trkpt lat="48.53091" lon="-2.79457">
        <ele>24</ele>
        <time>2015-09-15T13:07:08Z</time>
      </trkpt>
      <trkpt lat="48.53095" lon="-2.79441">
        <ele>24</ele>
        <time>2015-09-15T13:07:10Z</time>
      </trkpt>
      <trkpt lat="48.531" lon="-2.79426">
        <ele>24</ele>
        <time>2015-09-15T13:07:12Z</time>
      </trkpt>
      <trkpt lat="48.53106" lon="-2.79411">
        <ele>24</ele>
        <time>2015-09-15T13:07:14Z</time>
      </trkpt>
      <trkpt lat="48.53111" lon="-2.79395">
        <ele>24</ele>
        <time>2015-09-15T13:07:16Z</time>
      </trkpt>
      <trkpt lat="48.53117" lon="-2.79379">
        <ele>24</ele>
        <time>2015-09-15T13:07:18Z</time>
      </trkpt>
      <trkpt lat="48.53122" lon="-2.79364">
        <ele>24</ele>
        <time>2015-09-15T13:07:20Z</time>
      </trkpt>
      <trkpt lat="48.53128" lon="-2.7935">
        <ele>24</ele>
        <time>2015-09-15T13:07:22Z</time>
      </trkpt>
      <trkpt lat="48.53134" lon="-2.79336">
        <ele>24</ele>
        <time>2015-09-15T13:07:24Z</time>
      </trkpt>
      <trkpt lat="48.53141" lon="-2.79323">
        <ele>24</ele>
        <time>2015-09-15T13:07:26Z</time>
      </trkpt>
      <trkpt lat="48.53148" lon="-2.7931">
        <ele>24</ele>
        <time>2015-09-15T13:07:28Z</time>
      </trkpt>
      <trkpt lat="48.53155" lon="-2.79299">
        <ele>24</ele>
        <time>2015-09-15T13:07:30Z</time>
      </trkpt>
      <trkpt lat="48.53163" lon="-2.79288">
        <ele>24</ele>
        <time>2015-09-15T13:07:32Z</time>
      </trkpt>
      <trkpt lat="48.53171" lon="-2.79278">
        <ele>24</ele>
        <time>2015-09-15T13:07:34Z</time>
      </trkpt>
      <trkpt lat="48.53179" lon="-2.79268">
        <ele>24</ele>
        <time>2015-09-15T13:07:36Z</time>
      </trkpt>
      <trkpt lat="48.53187" lon="-2.79259">
        <ele>24.1</ele>
        <time>2015-09-15T13:07:38Z</time>
      </trkpt>
      <trkpt lat="48.53194" lon="-2.79249">
        <ele>24.2</ele>
        <time>2015-09-15T13:07:40Z</time>
      </trkpt>
      <trkpt lat="48.53202" lon="-2.79239">
        <ele>24.3</ele>
        <time>2015-09-15T13:07:42Z</time>
      </trkpt>
      <trkpt lat="48.5321" lon="-2.79229">
        <ele>24.4</ele>
        <time>2015-09-15T13:07:44Z</time>
      </trkpt>
      <trkpt lat="48.53218" lon="-2.7922">
        <ele>24.5</ele>
        <time>2015-09-15T13:07:46Z</time>
      </trkpt>
      <trkpt lat="48.53226" lon="-2.79211">
        <ele>24.6</ele>
        <time>2015-09-15T13:07:48Z</time>
      </trkpt>
      <trkpt lat="48.53234" lon="-2.79202">
        <ele>24.6</ele>
        <time>2015-09-15T13:07:50Z</time>
      </trkpt>
      <trkpt lat="48.53241" lon="-2.79193">
        <ele>24.7</ele>
        <time>2015-09-15T13:07:52Z</time>
      </trkpt>
      <trkpt lat="48.53248" lon="-2.79184">
        <ele>24.8</ele>
        <time>2015-09-15T13:07:54Z</time>
      </trkpt>
      <trkpt lat="48.53256" lon="-2.79175">
        <ele>24.9</ele>
        <time>2015-09-15T13:07:56Z</time>
      </trkpt>
      <trkpt lat="48.53264" lon="-2.79167">
        <ele>25</ele>
        <time>2015-09-15T13:07:58Z</time>
      </trkpt>
      <trkpt lat="48.53272" lon="-2.79158">
        <ele>25</ele>
        <time>2015-09-15T13:08:00Z</time>
      </trkpt>
      <trkpt lat="48.53282" lon="-2.79147">
        <ele>25.1</ele>
        <time>2015-09-15T13:08:03Z</time>
      </trkpt>
      <trkpt lat="48.5329" lon="-2.7914">
        <ele>25.2</ele>
        <time>2015-09-15T13:08:05Z</time>
      </trkpt>
      <trkpt lat="48.533" lon="-2.79134">
        <ele>25.2</ele>
        <time>2015-09-15T13:08:07Z</time>
      </trkpt>
      <trkpt lat="48.53311" lon="-2.79125">
        <ele>25.3</ele>
        <time>2015-09-15T13:08:10Z</time>
      </trkpt>
      <trkpt lat="48.5332" lon="-2.79116">
        <ele>25.3</ele>
        <time>2015-09-15T13:08:12Z</time>
      </trkpt>
      <trkpt lat="48.53327" lon="-2.79105">
        <ele>25.4</ele>
        <time>2015-09-15T13:08:14Z</time>
      </trkpt>
      <trkpt lat="48.53333" lon="-2.79094">
        <ele>25.5</ele>
        <time>2015-09-15T13:08:16Z</time>
      </trkpt>
      <trkpt lat="48.5334" lon="-2.79077">
        <ele>25.5</ele>
        <time>2015-09-15T13:08:19Z</time>
      </trkpt>
      <trkpt lat="48.53345" lon="-2.79063">
        <ele>25.6</ele>
        <time>2015-09-15T13:08:21Z</time>
      </trkpt>
      <trkpt lat="48.5335" lon="-2.79049">
        <ele>25.6</ele>
        <time>2015-09-15T13:08:23Z</time>
      </trkpt>
      <trkpt lat="48.53354" lon="-2.79034">
        <ele>25.6</ele>
        <time>2015-09-15T13:08:25Z</time>
      </trkpt>
      <trkpt lat="48.5336" lon="-2.7902">
        <ele>25.6</ele>
        <time>2015-09-15T13:08:27Z</time>
      </trkpt>
      <trkpt lat="48.53366" lon="-2.79005">
        <ele>25.5</ele>
        <time>2015-09-15T13:08:29Z</time>
      </trkpt>
      <trkpt lat="48.53373" lon="-2.78992">
        <ele>25.5</ele>
        <time>2015-09-15T13:08:31Z</time>
      </trkpt>
      <trkpt lat="48.53379" lon="-2.78981">
        <ele>25.4</ele>
        <time>2015-09-15T13:08:33Z</time>
      </trkpt>
      <trkpt lat="48.53387" lon="-2.78972">
        <ele>25.4</ele>
        <time>2015-09-15T13:08:35Z</time>
      </trkpt>
      <trkpt lat="48.53394" lon="-2.78962">
        <ele>25.3</ele>
        <time>2015-09-15T13:08:37Z</time>
      </trkpt>
      <trkpt lat="48.53403" lon="-2.78954">
        <ele>25.3</ele>
        <time>2015-09-15T13:08:39Z</time>
      </trkpt>
      <trkpt lat="48.53411" lon="-2.78944">
        <ele>25.2</ele>
        <time>2015-09-15T13:08:41Z</time>
      </trkpt>
      <trkpt lat="48.53418" lon="-2.78933">
        <ele>25.1</ele>
        <time>2015-09-15T13:08:43Z</time>
      </trkpt>
      <trkpt lat="48.53421" lon="-2.78916">
        <ele>25</ele>
        <time>2015-09-15T13:08:45Z</time>
      </trkpt>
      <trkpt lat="48.53424" lon="-2.78901">
        <ele>24.9</ele>
        <time>2015-09-15T13:08:47Z</time>
      </trkpt>
      <trkpt lat="48.53427" lon="-2.78884">
        <ele>24.8</ele>
        <time>2015-09-15T13:08:49Z</time>
      </trkpt>
      <trkpt lat="48.53429" lon="-2.78864">
        <ele>24.6</ele>
        <time>2015-09-15T13:08:51Z</time>
      </trkpt>
      <trkpt lat="48.53432" lon="-2.78846">
        <ele>24.5</ele>
        <time>2015-09-15T13:08:53Z</time>
      </trkpt>
      <trkpt lat="48.53435" lon="-2.78827">
        <ele>24.3</ele>
        <time>2015-09-15T13:08:55Z</time>
      </trkpt>
      <trkpt lat="48.53439" lon="-2.78809">
        <ele>24.1</ele>
        <time>2015-09-15T13:08:57Z</time>
      </trkpt>
      <trkpt lat="48.53443" lon="-2.78791">
        <ele>24</ele>
        <time>2015-09-15T13:08:59Z</time>
      </trkpt>
      <trkpt lat="48.53446" lon="-2.78774">
        <ele>23.8</ele>
        <time>2015-09-15T13:09:01Z</time>
      </trkpt>
      <trkpt lat="48.5345" lon="-2.78757">
        <ele>23.7</ele>
        <time>2015-09-15T13:09:03Z</time>
      </trkpt>
      <trkpt lat="48.53452" lon="-2.78739">
        <ele>23.6</ele>
        <time>2015-09-15T13:09:05Z</time>
      </trkpt>
      <trkpt lat="48.53454" lon="-2.78722">
        <ele>23.5</ele>
        <time>2015-09-15T13:09:07Z</time>
      </trkpt>
      <trkpt lat="48.53454" lon="-2.78706">
        <ele>23.4</ele>
        <time>2015-09-15T13:09:09Z</time>
      </trkpt>
      <trkpt lat="48.53454" lon="-2.78691">
        <ele>23.3</ele>
        <time>2015-09-15T13:09:11Z</time>
      </trkpt>
      <trkpt lat="48.53454" lon="-2.78676">
        <ele>23.2</ele>
        <time>2015-09-15T13:09:13Z</time>
      </trkpt>
      <trkpt lat="48.53453" lon="-2.78661">
        <ele>23.2</ele>
        <time>2015-09-15T13:09:15Z</time>
      </trkpt>
      <trkpt lat="48.53452" lon="-2.78647">
        <ele>23.2</ele>
        <time>2015-09-15T13:09:17Z</time>
      </trkpt>
      <trkpt lat="48.53451" lon="-2.78632">
        <ele>23.3</ele>
        <time>2015-09-15T13:09:19Z</time>
      </trkpt>
      <trkpt lat="48.53449" lon="-2.78618">
        <ele>23.4</ele>
        <time>2015-09-15T13:09:21Z</time>
      </trkpt>
      <trkpt lat="48.53446" lon="-2.78605">
        <ele>23.6</ele>
        <time>2015-09-15T13:09:23Z</time>
      </trkpt>
      <trkpt lat="48.53444" lon="-2.78591">
        <ele>23.8</ele>
        <time>2015-09-15T13:09:25Z</time>
      </trkpt>
      <trkpt lat="48.53441" lon="-2.78578">
        <ele>24</ele>
        <time>2015-09-15T13:09:27Z</time>
      </trkpt>
      <trkpt lat="48.53438" lon="-2.78565">
        <ele>24.3</ele>
        <time>2015-09-15T13:09:29Z</time>
      </trkpt>
      <trkpt lat="48.53434" lon="-2.78552">
        <ele>24.7</ele>
        <time>2015-09-15T13:09:31Z</time>
      </trkpt>
      <trkpt lat="48.53431" lon="-2.78539">
        <ele>25</ele>
        <time>2015-09-15T13:09:33Z</time>
      </trkpt>
      <trkpt lat="48.53427" lon="-2.78526">
        <ele>25.5</ele>
        <time>2015-09-15T13:09:35Z</time>
      </trkpt>
      <trkpt lat="48.53423" lon="-2.78514">
        <ele>25.9</ele>
        <time>2015-09-15T13:09:37Z</time>
      </trkpt>
      <trkpt lat="48.53419" lon="-2.78496">
        <ele>26.7</ele>
        <time>2015-09-15T13:09:40Z</time>
      </trkpt>
      <trkpt lat="48.53414" lon="-2.78478">
        <ele>27.5</ele>
        <time>2015-09-15T13:09:43Z</time>
      </trkpt>
      <trkpt lat="48.53409" lon="-2.78461">
        <ele>28.2</ele>
        <time>2015-09-15T13:09:46Z</time>
      </trkpt>
      <trkpt lat="48.53402" lon="-2.78449">
        <ele>28.8</ele>
        <time>2015-09-15T13:09:49Z</time>
      </trkpt>
      <trkpt lat="48.53392" lon="-2.7844">
        <ele>29.3</ele>
        <time>2015-09-15T13:09:52Z</time>
      </trkpt>
      <trkpt lat="48.53383" lon="-2.78432">
        <ele>29.6</ele>
        <time>2015-09-15T13:09:54Z</time>
      </trkpt>
      <trkpt lat="48.53375" lon="-2.78426">
        <ele>29.8</ele>
        <time>2015-09-15T13:09:56Z</time>
      </trkpt>
      <trkpt lat="48.53366" lon="-2.78419">
        <ele>30</ele>
        <time>2015-09-15T13:09:58Z</time>
      </trkpt>
      <trkpt lat="48.53358" lon="-2.7841">
        <ele>30.1</ele>
        <time>2015-09-15T13:10:00Z</time>
      </trkpt>
      <trkpt lat="48.53351" lon="-2.784">
        <ele>30.2</ele>
        <time>2015-09-15T13:10:02Z</time>
      </trkpt>
      <trkpt lat="48.53344" lon="-2.78391">
        <ele>30.2</ele>
        <time>2015-09-15T13:10:04Z</time>
      </trkpt>
      <trkpt lat="48.53335" lon="-2.78382">
        <ele>30.1</ele>
        <time>2015-09-15T13:10:06Z</time>
      </trkpt>
      <trkpt lat="48.53327" lon="-2.78375">
        <ele>30</ele>
        <time>2015-09-15T13:10:08Z</time>
      </trkpt>
      <trkpt lat="48.53318" lon="-2.78368">
        <ele>29.9</ele>
        <time>2015-09-15T13:10:10Z</time>
      </trkpt>
      <trkpt lat="48.53307" lon="-2.7836">
        <ele>29.8</ele>
        <time>2015-09-15T13:10:12Z</time>
      </trkpt>
      <trkpt lat="48.53298" lon="-2.78353">
        <ele>29.6</ele>
        <time>2015-09-15T13:10:14Z</time>
      </trkpt>
      <trkpt lat="48.53289" lon="-2.78345">
        <ele>29.4</ele>
        <time>2015-09-15T13:10:16Z</time>
      </trkpt>
      <trkpt lat="48.53279" lon="-2.78337">
        <ele>29.1</ele>
        <time>2015-09-15T13:10:18Z</time>
      </trkpt>
      <trkpt lat="48.53269" lon="-2.78327">
        <ele>28.9</ele>
        <time>2015-09-15T13:10:20Z</time>
      </trkpt>
      <trkpt lat="48.5326" lon="-2.78318">
        <ele>28.6</ele>
        <time>2015-09-15T13:10:22Z</time>
      </trkpt>
      <trkpt lat="48.53249" lon="-2.78307">
        <ele>28.2</ele>
        <time>2015-09-15T13:10:24Z</time>
      </trkpt>
      <trkpt lat="48.53238" lon="-2.78296">
        <ele>27.8</ele>
        <time>2015-09-15T13:10:26Z</time>
      </trkpt>
      <trkpt lat="48.53227" lon="-2.78284">
        <ele>27.3</ele>
        <time>2015-09-15T13:10:28Z</time>
      </trkpt>
      <trkpt lat="48.53215" lon="-2.78271">
        <ele>26.7</ele>
        <time>2015-09-15T13:10:30Z</time>
      </trkpt>
      <trkpt lat="48.53204" lon="-2.78259">
        <ele>26.1</ele>
        <time>2015-09-15T13:10:32Z</time>
      </trkpt>
      <trkpt lat="48.53193" lon="-2.78246">
        <ele>25.5</ele>
        <time>2015-09-15T13:10:34Z</time>
      </trkpt>
      <trkpt lat="48.53181" lon="-2.78235">
        <ele>24.9</ele>
        <time>2015-09-15T13:10:36Z</time>
      </trkpt>
      <trkpt lat="48.5317" lon="-2.78223">
        <ele>24.4</ele>
        <time>2015-09-15T13:10:38Z</time>
      </trkpt>
      <trkpt lat="48.53159" lon="-2.78211">
        <ele>23.8</ele>
        <time>2015-09-15T13:10:40Z</time>
      </trkpt>
      <trkpt lat="48.53149" lon="-2.78198">
        <ele>23.4</ele>
        <time>2015-09-15T13:10:42Z</time>
      </trkpt>
      <trkpt lat="48.53138" lon="-2.78186">
        <ele>22.8</ele>
        <time>2015-09-15T13:10:44Z</time>
      </trkpt>
      <trkpt lat="48.53127" lon="-2.78175">
        <ele>22.4</ele>
        <time>2015-09-15T13:10:46Z</time>
      </trkpt>
      <trkpt lat="48.53116" lon="-2.78165">
        <ele>22</ele>
        <time>2015-09-15T13:10:48Z</time>
      </trkpt>
      <trkpt lat="48.53105" lon="-2.78155">
        <ele>21.5</ele>
        <time>2015-09-15T13:10:50Z</time>
      </trkpt>
      <trkpt lat="48.53093" lon="-2.78148">
        <ele>21.2</ele>
        <time>2015-09-15T13:10:52Z</time>
      </trkpt>
      <trkpt lat="48.53084" lon="-2.78142">
        <ele>20.8</ele>
        <time>2015-09-15T13:10:54Z</time>
      </trkpt>
      <trkpt lat="48.53074" lon="-2.78136">
        <ele>20.4</ele>
        <time>2015-09-15T13:10:56Z</time>
      </trkpt>
      <trkpt lat="48.53065" lon="-2.78131">
        <ele>20.1</ele>
        <time>2015-09-15T13:10:58Z</time>
      </trkpt>
      <trkpt lat="48.53055" lon="-2.78127">
        <ele>19.8</ele>
        <time>2015-09-15T13:11:00Z</time>
      </trkpt>
      <trkpt lat="48.53044" lon="-2.78125">
        <ele>19.6</ele>
        <time>2015-09-15T13:11:02Z</time>
      </trkpt>
      <trkpt lat="48.53033" lon="-2.78124">
        <ele>19.4</ele>
        <time>2015-09-15T13:11:04Z</time>
      </trkpt>
      <trkpt lat="48.53022" lon="-2.78125">
        <ele>19.1</ele>
        <time>2015-09-15T13:11:06Z</time>
      </trkpt>
      <trkpt lat="48.53012" lon="-2.78128">
        <ele>18.9</ele>
        <time>2015-09-15T13:11:08Z</time>
      </trkpt>
      <trkpt lat="48.53003" lon="-2.78134">
        <ele>18.8</ele>
        <time>2015-09-15T13:11:10Z</time>
      </trkpt>
      <trkpt lat="48.52993" lon="-2.7814">
        <ele>18.6</ele>
        <time>2015-09-15T13:11:12Z</time>
      </trkpt>
      <trkpt lat="48.52984" lon="-2.78147">
        <ele>18.5</ele>
        <time>2015-09-15T13:11:14Z</time>
      </trkpt>
      <trkpt lat="48.52975" lon="-2.78154">
        <ele>18.3</ele>
        <time>2015-09-15T13:11:16Z</time>
      </trkpt>
      <trkpt lat="48.52967" lon="-2.7816">
        <ele>18.2</ele>
        <time>2015-09-15T13:11:18Z</time>
      </trkpt>
      <trkpt lat="48.52955" lon="-2.7817">
        <ele>18.1</ele>
        <time>2015-09-15T13:11:21Z</time>
      </trkpt>
      <trkpt lat="48.52945" lon="-2.78177">
        <ele>18</ele>
        <time>2015-09-15T13:11:24Z</time>
      </trkpt>
      <trkpt lat="48.52936" lon="-2.78184">
        <ele>17.9</ele>
        <time>2015-09-15T13:11:27Z</time>
      </trkpt>
      <trkpt lat="48.52925" lon="-2.78194">
        <ele>17.8</ele>
        <time>2015-09-15T13:11:30Z</time>
      </trkpt>
      <trkpt lat="48.52914" lon="-2.78202">
        <ele>17.8</ele>
        <time>2015-09-15T13:11:33Z</time>
      </trkpt>
      <trkpt lat="48.52902" lon="-2.78208">
        <ele>17.7</ele>
        <time>2015-09-15T13:11:36Z</time>
      </trkpt>
      <trkpt lat="48.52893" lon="-2.7821">
        <ele>17.7</ele>
        <time>2015-09-15T13:11:38Z</time>
      </trkpt>
      <trkpt lat="48.52883" lon="-2.78209">
        <ele>17.7</ele>
        <time>2015-09-15T13:11:40Z</time>
      </trkpt>
      <trkpt lat="48.52874" lon="-2.78205">
        <ele>17.6</ele>
        <time>2015-09-15T13:11:42Z</time>
      </trkpt>
      <trkpt lat="48.52863" lon="-2.78196">
        <ele>17.6</ele>
        <time>2015-09-15T13:11:45Z</time>
      </trkpt>
      <trkpt lat="48.52854" lon="-2.78188">
        <ele>17.6</ele>
        <time>2015-09-15T13:11:47Z</time>
      </trkpt>
      <trkpt lat="48.52847" lon="-2.7818">
        <ele>17.6</ele>
        <time>2015-09-15T13:11:49Z</time>
      </trkpt>
      <trkpt lat="48.52839" lon="-2.78171">
        <ele>17.6</ele>
        <time>2015-09-15T13:11:51Z</time>
      </trkpt>
      <trkpt lat="48.52831" lon="-2.78163">
        <ele>17.5</ele>
        <time>2015-09-15T13:11:53Z</time>
      </trkpt>
      <trkpt lat="48.52822" lon="-2.78149">
        <ele>17.6</ele>
        <time>2015-09-15T13:11:56Z</time>
      </trkpt>
      <trkpt lat="48.52814" lon="-2.78134">
        <ele>17.7</ele>
        <time>2015-09-15T13:11:59Z</time>
      </trkpt>
      <trkpt lat="48.52808" lon="-2.78118">
        <ele>18</ele>
        <time>2015-09-15T13:12:02Z</time>
      </trkpt>
      <trkpt lat="48.52803" lon="-2.78102">
        <ele>18.2</ele>
        <time>2015-09-15T13:12:05Z</time>
      </trkpt>
      <trkpt lat="48.528" lon="-2.78086">
        <ele>18.3</ele>
        <time>2015-09-15T13:12:08Z</time>
      </trkpt>
      <trkpt lat="48.52796" lon="-2.7807">
        <ele>18.5</ele>
        <time>2015-09-15T13:12:11Z</time>
      </trkpt>
      <trkpt lat="48.52795" lon="-2.78051">
        <ele>18.6</ele>
        <time>2015-09-15T13:12:14Z</time>
      </trkpt>
      <trkpt lat="48.52794" lon="-2.78037">
        <ele>18.6</ele>
        <time>2015-09-15T13:12:16Z</time>
      </trkpt>
      <trkpt lat="48.52793" lon="-2.78022">
        <ele>18.6</ele>
        <time>2015-09-15T13:12:18Z</time>
      </trkpt>
      <trkpt lat="48.52792" lon="-2.78007">
        <ele>18.7</ele>
        <time>2015-09-15T13:12:20Z</time>
      </trkpt>
      <trkpt lat="48.52791" lon="-2.77992">
        <ele>18.7</ele>
        <time>2015-09-15T13:12:22Z</time>
      </trkpt>
      <trkpt lat="48.52791" lon="-2.77978">
        <ele>18.6</ele>
        <time>2015-09-15T13:12:24Z</time>
      </trkpt>
      <trkpt lat="48.5279" lon="-2.77963">
        <ele>18.6</ele>
        <time>2015-09-15T13:12:26Z</time>
      </trkpt>
      <trkpt lat="48.5279" lon="-2.77947">
        <ele>18.5</ele>
        <time>2015-09-15T13:12:28Z</time>
      </trkpt>
      <trkpt lat="48.52789" lon="-2.77932">
        <ele>18.4</ele>
        <time>2015-09-15T13:12:30Z</time>
      </trkpt>
      <trkpt lat="48.52788" lon="-2.77915">
        <ele>18.3</ele>
        <time>2015-09-15T13:12:32Z</time>
      </trkpt>
      <trkpt lat="48.52788" lon="-2.77899">
        <ele>18.1</ele>
        <time>2015-09-15T13:12:34Z</time>
      </trkpt>
      <trkpt lat="48.52787" lon="-2.77882">
        <ele>17.9</ele>
        <time>2015-09-15T13:12:36Z</time>
      </trkpt>
      <trkpt lat="48.52786" lon="-2.77866">
        <ele>17.8</ele>
        <time>2015-09-15T13:12:38Z</time>
      </trkpt>
      <trkpt lat="48.52785" lon="-2.7785">
        <ele>17.6</ele>
        <time>2015-09-15T13:12:40Z</time>
      </trkpt>
      <trkpt lat="48.52785" lon="-2.77835">
        <ele>17.5</ele>
        <time>2015-09-15T13:12:42Z</time>
      </trkpt>
      <trkpt lat="48.52784" lon="-2.77821">
        <ele>17.3</ele>
        <time>2015-09-15T13:12:44Z</time>
      </trkpt>
      <trkpt lat="48.52783" lon="-2.77807">
        <ele>17.1</ele>
        <time>2015-09-15T13:12:46Z</time>
      </trkpt>
      <trkpt lat="48.52782" lon="-2.77793">
        <ele>16.9</ele>
        <time>2015-09-15T13:12:48Z</time>
      </trkpt>
      <trkpt lat="48.52781" lon="-2.7778">
        <ele>16.8</ele>
        <time>2015-09-15T13:12:50Z</time>
      </trkpt>
      <trkpt lat="48.5278" lon="-2.77766">
        <ele>16.6</ele>
        <time>2015-09-15T13:12:52Z</time>
      </trkpt>
      <trkpt lat="48.52779" lon="-2.77752">
        <ele>16.5</ele>
        <time>2015-09-15T13:12:54Z</time>
      </trkpt>
      <trkpt lat="48.52777" lon="-2.77738">
        <ele>16.4</ele>
        <time>2015-09-15T13:12:56Z</time>
      </trkpt>
      <trkpt lat="48.52775" lon="-2.77724">
        <ele>16.3</ele>
        <time>2015-09-15T13:12:58Z</time>
      </trkpt>
      <trkpt lat="48.52774" lon="-2.77711">
        <ele>16.3</ele>
        <time>2015-09-15T13:13:00Z</time>
      </trkpt>
      <trkpt lat="48.52772" lon="-2.77697">
        <ele>16.2</ele>
        <time>2015-09-15T13:13:02Z</time>
      </trkpt>
      <trkpt lat="48.5277" lon="-2.77682">
        <ele>16.1</ele>
        <time>2015-09-15T13:13:04Z</time>
      </trkpt>
      <trkpt lat="48.52768" lon="-2.77668">
        <ele>16.1</ele>
        <time>2015-09-15T13:13:06Z</time>
      </trkpt>
      <trkpt lat="48.52766" lon="-2.77654">
        <ele>16</ele>
        <time>2015-09-15T13:13:08Z</time>
      </trkpt>
      <trkpt lat="48.52764" lon="-2.77639">
        <ele>15.9</ele>
        <time>2015-09-15T13:13:10Z</time>
      </trkpt>
      <trkpt lat="48.5276" lon="-2.77624">
        <ele>15.8</ele>
        <time>2015-09-15T13:13:12Z</time>
      </trkpt>
      <trkpt lat="48.52757" lon="-2.77609">
        <ele>15.8</ele>
        <time>2015-09-15T13:13:14Z</time>
      </trkpt>
      <trkpt lat="48.52752" lon="-2.77595">
        <ele>15.7</ele>
        <time>2015-09-15T13:13:16Z</time>
      </trkpt>
      <trkpt lat="48.52748" lon="-2.77582">
        <ele>15.7</ele>
        <time>2015-09-15T13:13:18Z</time>
      </trkpt>
      <trkpt lat="48.52743" lon="-2.77568">
        <ele>15.6</ele>
        <time>2015-09-15T13:13:20Z</time>
      </trkpt>
      <trkpt lat="48.52739" lon="-2.77555">
        <ele>15.6</ele>
        <time>2015-09-15T13:13:22Z</time>
      </trkpt>
      <trkpt lat="48.52734" lon="-2.77542">
        <ele>15.5</ele>
        <time>2015-09-15T13:13:24Z</time>
      </trkpt>
      <trkpt lat="48.5273" lon="-2.7753">
        <ele>15.5</ele>
        <time>2015-09-15T13:13:26Z</time>
      </trkpt>
      <trkpt lat="48.52725" lon="-2.77517">
        <ele>15.5</ele>
        <time>2015-09-15T13:13:28Z</time>
      </trkpt>
      <trkpt lat="48.52721" lon="-2.77505">
        <ele>15.4</ele>
        <time>2015-09-15T13:13:30Z</time>
      </trkpt>
      <trkpt lat="48.52717" lon="-2.77493">
        <ele>15.4</ele>
        <time>2015-09-15T13:13:32Z</time>
      </trkpt>
      <trkpt lat="48.52712" lon="-2.7748">
        <ele>15.4</ele>
        <time>2015-09-15T13:13:34Z</time>
      </trkpt>
      <trkpt lat="48.52708" lon="-2.77467">
        <ele>15.4</ele>
        <time>2015-09-15T13:13:36Z</time>
      </trkpt>
      <trkpt lat="48.52704" lon="-2.77455">
        <ele>15.4</ele>
        <time>2015-09-15T13:13:38Z</time>
      </trkpt>
      <trkpt lat="48.52699" lon="-2.77442">
        <ele>15.4</ele>
        <time>2015-09-15T13:13:40Z</time>
      </trkpt>
      <trkpt lat="48.52695" lon="-2.77428">
        <ele>15.4</ele>
        <time>2015-09-15T13:13:42Z</time>
      </trkpt>
      <trkpt lat="48.52691" lon="-2.77415">
        <ele>15.4</ele>
        <time>2015-09-15T13:13:44Z</time>
      </trkpt>
      <trkpt lat="48.52687" lon="-2.77401">
        <ele>15.5</ele>
        <time>2015-09-15T13:13:46Z</time>
      </trkpt>
      <trkpt lat="48.52683" lon="-2.77388">
        <ele>15.5</ele>
        <time>2015-09-15T13:13:48Z</time>
      </trkpt>
      <trkpt lat="48.52679" lon="-2.77374">
        <ele>15.5</ele>
        <time>2015-09-15T13:13:50Z</time>
      </trkpt>
      <trkpt lat="48.52675" lon="-2.77361">
        <ele>15.4</ele>
        <time>2015-09-15T13:13:52Z</time>
      </trkpt>
      <trkpt lat="48.5267" lon="-2.77348">
        <ele>15.4</ele>
        <time>2015-09-15T13:13:54Z</time>
      </trkpt>
      <trkpt lat="48.52666" lon="-2.77335">
        <ele>15.3</ele>
        <time>2015-09-15T13:13:56Z</time>
      </trkpt>
      <trkpt lat="48.52662" lon="-2.77322">
        <ele>15.3</ele>
        <time>2015-09-15T13:13:58Z</time>
      </trkpt>
      <trkpt lat="48.52657" lon="-2.77305">
        <ele>15.2</ele>
        <time>2015-09-15T13:14:01Z</time>
      </trkpt>
      <trkpt lat="48.52652" lon="-2.77288">
        <ele>15.1</ele>
        <time>2015-09-15T13:14:04Z</time>
      </trkpt>
      <trkpt lat="48.52647" lon="-2.77271">
        <ele>15</ele>
        <time>2015-09-15T13:14:07Z</time>
      </trkpt>
      <trkpt lat="48.52645" lon="-2.77254">
        <ele>14.9</ele>
        <time>2015-09-15T13:14:10Z</time>
      </trkpt>
      <trkpt lat="48.52644" lon="-2.7724">
        <ele>14.9</ele>
        <time>2015-09-15T13:14:13Z</time>
      </trkpt>
      <trkpt lat="48.52643" lon="-2.77224">
        <ele>14.8</ele>
        <time>2015-09-15T13:14:18Z</time>
      </trkpt>
      <trkpt lat="48.52641" lon="-2.7721">
        <ele>15.1</ele>
        <time>2015-09-15T13:14:24Z</time>
      </trkpt>
      <trkpt lat="48.52639" lon="-2.77195">
        <ele>16</ele>
        <time>2015-09-15T13:14:31Z</time>
      </trkpt>
      <trkpt lat="48.52638" lon="-2.7718">
        <ele>17.3</ele>
        <time>2015-09-15T13:14:39Z</time>
      </trkpt>
      <trkpt lat="48.52641" lon="-2.77165">
        <ele>18.6</ele>
        <time>2015-09-15T13:14:46Z</time>
      </trkpt>
      <trkpt lat="48.52644" lon="-2.77152">
        <ele>20.1</ele>
        <time>2015-09-15T13:14:54Z</time>
      </trkpt>
      <trkpt lat="48.52646" lon="-2.77137">
        <ele>21.5</ele>
        <time>2015-09-15T13:15:02Z</time>
      </trkpt>
      <trkpt lat="48.5265" lon="-2.77124">
        <ele>23.2</ele>
        <time>2015-09-15T13:15:11Z</time>
      </trkpt>
      <trkpt lat="48.52653" lon="-2.77111">
        <ele>25.1</ele>
        <time>2015-09-15T13:15:21Z</time>
      </trkpt>
      <trkpt lat="48.52658" lon="-2.77099">
        <ele>26.2</ele>
        <time>2015-09-15T13:15:26Z</time>
      </trkpt>
      <trkpt lat="48.52659" lon="-2.77084">
        <ele>29.3</ele>
        <time>2015-09-15T13:15:39Z</time>
      </trkpt>
      <trkpt lat="48.52664" lon="-2.77072">
        <ele>30.7</ele>
        <time>2015-09-15T13:15:44Z</time>
      </trkpt>
      <trkpt lat="48.52668" lon="-2.7706">
        <ele>33.3</ele>
        <time>2015-09-15T13:15:53Z</time>
      </trkpt>
      <trkpt lat="48.52678" lon="-2.77066">
        <ele>35.7</ele>
        <time>2015-09-15T13:16:02Z</time>
      </trkpt>
      <trkpt lat="48.52683" lon="-2.77077">
        <ele>37.5</ele>
        <time>2015-09-15T13:16:12Z</time>
      </trkpt>
      <trkpt lat="48.52685" lon="-2.77091">
        <ele>38.6</ele>
        <time>2015-09-15T13:16:19Z</time>
      </trkpt>
      <trkpt lat="48.52686" lon="-2.77106">
        <ele>39.9</ele>
        <time>2015-09-15T13:16:27Z</time>
      </trkpt>
      <trkpt lat="48.52692" lon="-2.77118">
        <ele>41.6</ele>
        <time>2015-09-15T13:16:36Z</time>
      </trkpt>
      <trkpt lat="48.52692" lon="-2.77133">
        <ele>43.2</ele>
        <time>2015-09-15T13:16:44Z</time>
      </trkpt>
      <trkpt lat="48.52698" lon="-2.77145">
        <ele>45.4</ele>
        <time>2015-09-15T13:16:54Z</time>
      </trkpt>
      <trkpt lat="48.52704" lon="-2.77135">
        <ele>49.5</ele>
        <time>2015-09-15T13:17:10Z</time>
      </trkpt>
      <trkpt lat="48.5271" lon="-2.77122">
        <ele>51.8</ele>
        <time>2015-09-15T13:17:19Z</time>
      </trkpt>
      <trkpt lat="48.52715" lon="-2.77111">
        <ele>53.2</ele>
        <time>2015-09-15T13:17:27Z</time>
      </trkpt>
      <trkpt lat="48.52719" lon="-2.77098">
        <ele>54.7</ele>
        <time>2015-09-15T13:17:35Z</time>
      </trkpt>
      <trkpt lat="48.52722" lon="-2.77085">
        <ele>55.9</ele>
        <time>2015-09-15T13:17:42Z</time>
      </trkpt>
      <trkpt lat="48.52725" lon="-2.77072">
        <ele>56.8</ele>
        <time>2015-09-15T13:17:49Z</time>
      </trkpt>
      <trkpt lat="48.52727" lon="-2.77058">
        <ele>57.9</ele>
        <time>2015-09-15T13:17:56Z</time>
      </trkpt>
      <trkpt lat="48.52727" lon="-2.77043">
        <ele>59.1</ele>
        <time>2015-09-15T13:18:03Z</time>
      </trkpt>
      <trkpt lat="48.52726" lon="-2.77028">
        <ele>60.5</ele>
        <time>2015-09-15T13:18:10Z</time>
      </trkpt>
      <trkpt lat="48.52725" lon="-2.77015">
        <ele>62.3</ele>
        <time>2015-09-15T13:18:18Z</time>
      </trkpt>
      <trkpt lat="48.52727" lon="-2.77001">
        <ele>63.5</ele>
        <time>2015-09-15T13:18:24Z</time>
      </trkpt>
      <trkpt lat="48.52725" lon="-2.76988">
        <ele>64.3</ele>
        <time>2015-09-15T13:18:29Z</time>
      </trkpt>
      <trkpt lat="48.52724" lon="-2.76975">
        <ele>64.9</ele>
        <time>2015-09-15T13:18:34Z</time>
      </trkpt>
      <trkpt lat="48.52728" lon="-2.76962">
        <ele>66.6</ele>
        <time>2015-09-15T13:18:43Z</time>
      </trkpt>
      <trkpt lat="48.5273" lon="-2.76948">
        <ele>68.4</ele>
        <time>2015-09-15T13:18:51Z</time>
      </trkpt>
      <trkpt lat="48.52737" lon="-2.76938">
        <ele>69.8</ele>
        <time>2015-09-15T13:18:57Z</time>
      </trkpt>
      <trkpt lat="48.52737" lon="-2.76924">
        <ele>72.3</ele>
        <time>2015-09-15T13:19:08Z</time>
      </trkpt>
      <trkpt lat="48.52738" lon="-2.76909">
        <ele>74.2</ele>
        <time>2015-09-15T13:19:17Z</time>
      </trkpt>
      <trkpt lat="48.52729" lon="-2.76905">
        <ele>76.2</ele>
        <time>2015-09-15T13:19:27Z</time>
      </trkpt>
      <trkpt lat="48.5272" lon="-2.76905">
        <ele>77.7</ele>
        <time>2015-09-15T13:19:35Z</time>
      </trkpt>
      <trkpt lat="48.5271" lon="-2.76903">
        <ele>79.1</ele>
        <time>2015-09-15T13:19:42Z</time>
      </trkpt>
      <trkpt lat="48.527" lon="-2.76901">
        <ele>80.5</ele>
        <time>2015-09-15T13:19:49Z</time>
      </trkpt>
      <trkpt lat="48.52692" lon="-2.76893">
        <ele>82.4</ele>
        <time>2015-09-15T13:19:56Z</time>
      </trkpt>
      <trkpt lat="48.52691" lon="-2.76879">
        <ele>84</ele>
        <time>2015-09-15T13:20:03Z</time>
      </trkpt>
      <trkpt lat="48.52692" lon="-2.76864">
        <ele>85.6</ele>
        <time>2015-09-15T13:20:11Z</time>
      </trkpt>
      <trkpt lat="48.52694" lon="-2.76849">
        <ele>87.1</ele>
        <time>2015-09-15T13:20:19Z</time>
      </trkpt>
      <trkpt lat="48.52696" lon="-2.76835">
        <ele>88.2</ele>
        <time>2015-09-15T13:20:26Z</time>
      </trkpt>
      <trkpt lat="48.52697" lon="-2.76821">
        <ele>89.4</ele>
        <time>2015-09-15T13:20:33Z</time>
      </trkpt>
      <trkpt lat="48.52693" lon="-2.76806">
        <ele>91</ele>
        <time>2015-09-15T13:20:41Z</time>
      </trkpt>
      <trkpt lat="48.52688" lon="-2.76793">
        <ele>92.3</ele>
        <time>2015-09-15T13:20:48Z</time>
      </trkpt>
      <trkpt lat="48.52686" lon="-2.76779">
        <ele>93.4</ele>
        <time>2015-09-15T13:20:54Z</time>
      </trkpt>
      <trkpt lat="48.52681" lon="-2.76766">
        <ele>94.5</ele>
        <time>2015-09-15T13:21:00Z</time>
      </trkpt>
      <trkpt lat="48.52675" lon="-2.76754">
        <ele>95.8</ele>
        <time>2015-09-15T13:21:07Z</time>
      </trkpt>
      <trkpt lat="48.52669" lon="-2.76742">
        <ele>97.4</ele>
        <time>2015-09-15T13:21:14Z</time>
      </trkpt>
      <trkpt lat="48.52664" lon="-2.76729">
        <ele>99</ele>
        <time>2015-09-15T13:21:21Z</time>
      </trkpt>
      <trkpt lat="48.52659" lon="-2.76716">
        <ele>100.7</ele>
        <time>2015-09-15T13:21:28Z</time>
      </trkpt>
      <trkpt lat="48.52653" lon="-2.76704">
        <ele>102.2</ele>
        <time>2015-09-15T13:21:35Z</time>
      </trkpt>
      <trkpt lat="48.52647" lon="-2.76691">
        <ele>103.5</ele>
        <time>2015-09-15T13:21:42Z</time>
      </trkpt>
      <trkpt lat="48.52644" lon="-2.76679">
        <ele>104.5</ele>
        <time>2015-09-15T13:21:48Z</time>
      </trkpt>
      <trkpt lat="48.52639" lon="-2.76665">
        <ele>105.4</ele>
        <time>2015-09-15T13:21:54Z</time>
      </trkpt>
      <trkpt lat="48.52632" lon="-2.76653">
        <ele>106.1</ele>
        <time>2015-09-15T13:21:59Z</time>
      </trkpt>
      <trkpt lat="48.52626" lon="-2.76639">
        <ele>106.6</ele>
        <time>2015-09-15T13:22:03Z</time>
      </trkpt>
      <trkpt lat="48.52621" lon="-2.76627">
        <ele>107</ele>
        <time>2015-09-15T13:22:06Z</time>
      </trkpt>
      <trkpt lat="48.52617" lon="-2.76613">
        <ele>107.3</ele>
        <time>2015-09-15T13:22:09Z</time>
      </trkpt>
      <trkpt lat="48.52616" lon="-2.76598">
        <ele>107.6</ele>
        <time>2015-09-15T13:22:12Z</time>
      </trkpt>
      <trkpt lat="48.52617" lon="-2.76581">
        <ele>107.8</ele>
        <time>2015-09-15T13:22:15Z</time>
      </trkpt>
      <trkpt lat="48.52619" lon="-2.76562">
        <ele>108</ele>
        <time>2015-09-15T13:22:18Z</time>
      </trkpt>
      <trkpt lat="48.52619" lon="-2.76543">
        <ele>108.1</ele>
        <time>2015-09-15T13:22:21Z</time>
      </trkpt>
      <trkpt lat="48.52619" lon="-2.76527">
        <ele>108.3</ele>
        <time>2015-09-15T13:22:24Z</time>
      </trkpt>
      <trkpt lat="48.52619" lon="-2.76512">
        <ele>108.4</ele>
        <time>2015-09-15T13:22:27Z</time>
      </trkpt>
      <trkpt lat="48.52622" lon="-2.76496">
        <ele>108.6</ele>
        <time>2015-09-15T13:22:30Z</time>
      </trkpt>
      <trkpt lat="48.52623" lon="-2.76479">
        <ele>108.8</ele>
        <time>2015-09-15T13:22:33Z</time>
      </trkpt>
      <trkpt lat="48.52621" lon="-2.76465">
        <ele>109</ele>
        <time>2015-09-15T13:22:35Z</time>
      </trkpt>
      <trkpt lat="48.52617" lon="-2.7645">
        <ele>109</ele>
        <time>2015-09-15T13:22:37Z</time>
      </trkpt>
      <trkpt lat="48.52616" lon="-2.76433">
        <ele>108.8</ele>
        <time>2015-09-15T13:22:39Z</time>
      </trkpt>
      <trkpt lat="48.52618" lon="-2.76414">
        <ele>108.4</ele>
        <time>2015-09-15T13:22:41Z</time>
      </trkpt>
      <trkpt lat="48.52621" lon="-2.76394">
        <ele>107.9</ele>
        <time>2015-09-15T13:22:43Z</time>
      </trkpt>
      <trkpt lat="48.52626" lon="-2.76376">
        <ele>107.4</ele>
        <time>2015-09-15T13:22:45Z</time>
      </trkpt>
      <trkpt lat="48.5263" lon="-2.76361">
        <ele>106.9</ele>
        <time>2015-09-15T13:22:47Z</time>
      </trkpt>
      <trkpt lat="48.52636" lon="-2.76344">
        <ele>106.3</ele>
        <time>2015-09-15T13:22:50Z</time>
      </trkpt>
      <trkpt lat="48.52641" lon="-2.76329">
        <ele>105.8</ele>
        <time>2015-09-15T13:22:53Z</time>
      </trkpt>
      <trkpt lat="48.52646" lon="-2.76316">
        <ele>105.4</ele>
        <time>2015-09-15T13:22:56Z</time>
      </trkpt>
      <trkpt lat="48.52651" lon="-2.76304">
        <ele>105.3</ele>
        <time>2015-09-15T13:22:59Z</time>
      </trkpt>
      <trkpt lat="48.52658" lon="-2.76295">
        <ele>105.1</ele>
        <time>2015-09-15T13:23:02Z</time>
      </trkpt>
      <trkpt lat="48.52668" lon="-2.76291">
        <ele>105</ele>
        <time>2015-09-15T13:23:05Z</time>
      </trkpt>
      <trkpt lat="48.52679" lon="-2.76288">
        <ele>104.9</ele>
        <time>2015-09-15T13:23:08Z</time>
      </trkpt>
      <trkpt lat="48.52686" lon="-2.76277">
        <ele>105</ele>
        <time>2015-09-15T13:23:11Z</time>
      </trkpt>
      <trkpt lat="48.52689" lon="-2.76264">
        <ele>105.3</ele>
        <time>2015-09-15T13:23:14Z</time>
      </trkpt>
      <trkpt lat="48.52691" lon="-2.7625">
        <ele>105.5</ele>
        <time>2015-09-15T13:23:17Z</time>
      </trkpt>
      <trkpt lat="48.52695" lon="-2.76236">
        <ele>105.8</ele>
        <time>2015-09-15T13:23:20Z</time>
      </trkpt>
      <trkpt lat="48.527" lon="-2.76224">
        <ele>106</ele>
        <time>2015-09-15T13:23:23Z</time>
      </trkpt>
      <trkpt lat="48.52707" lon="-2.76211">
        <ele>106.6</ele>
        <time>2015-09-15T13:23:27Z</time>
      </trkpt>
      <trkpt lat="48.52717" lon="-2.76204">
        <ele>107.3</ele>
        <time>2015-09-15T13:23:31Z</time>
      </trkpt>
      <trkpt lat="48.52726" lon="-2.76202">
        <ele>107.7</ele>
        <time>2015-09-15T13:23:34Z</time>
      </trkpt>
      <trkpt lat="48.52737" lon="-2.76196">
        <ele>108.3</ele>
        <time>2015-09-15T13:23:38Z</time>
      </trkpt>
      <trkpt lat="48.52746" lon="-2.76191">
        <ele>108.9</ele>
        <time>2015-09-15T13:23:42Z</time>
      </trkpt>
      <trkpt lat="48.52756" lon="-2.76178">
        <ele>109.2</ele>
        <time>2015-09-15T13:23:45Z</time>
      </trkpt>
      <trkpt lat="48.52762" lon="-2.76166">
        <ele>109.4</ele>
        <time>2015-09-15T13:23:47Z</time>
      </trkpt>
      <trkpt lat="48.52766" lon="-2.76154">
        <ele>109.5</ele>
        <time>2015-09-15T13:23:49Z</time>
      </trkpt>
      <trkpt lat="48.52769" lon="-2.7614">
        <ele>109.6</ele>
        <time>2015-09-15T13:23:51Z</time>
      </trkpt>
      <trkpt lat="48.52773" lon="-2.76128">
        <ele>109.6</ele>
        <time>2015-09-15T13:23:53Z</time>
      </trkpt>
      <trkpt lat="48.52776" lon="-2.76115">
        <ele>109.7</ele>
        <time>2015-09-15T13:23:55Z</time>
      </trkpt>
      <trkpt lat="48.5278" lon="-2.76102">
        <ele>109.7</ele>
        <time>2015-09-15T13:23:57Z</time>
      </trkpt>
      <trkpt lat="48.52785" lon="-2.76089">
        <ele>109.8</ele>
        <time>2015-09-15T13:23:59Z</time>
      </trkpt>
      <trkpt lat="48.5279" lon="-2.76077">
        <ele>109.8</ele>
        <time>2015-09-15T13:24:01Z</time>
      </trkpt>
      <trkpt lat="48.52795" lon="-2.76065">
        <ele>109.8</ele>
        <time>2015-09-15T13:24:03Z</time>
      </trkpt>
      <trkpt lat="48.52801" lon="-2.76052">
        <ele>109.7</ele>
        <time>2015-09-15T13:24:05Z</time>
      </trkpt>
      <trkpt lat="48.52807" lon="-2.76038">
        <ele>109.5</ele>
        <time>2015-09-15T13:24:07Z</time>
      </trkpt>
      <trkpt lat="48.52813" lon="-2.76025">
        <ele>109.4</ele>
        <time>2015-09-15T13:24:09Z</time>
      </trkpt>
      <trkpt lat="48.52816" lon="-2.76011">
        <ele>109.2</ele>
        <time>2015-09-15T13:24:11Z</time>
      </trkpt>
      <trkpt lat="48.52814" lon="-2.75997">
        <ele>108.9</ele>
        <time>2015-09-15T13:24:15Z</time>
      </trkpt>
      <trkpt lat="48.52804" lon="-2.75986">
        <ele>108.6</ele>
        <time>2015-09-15T13:24:19Z</time>
      </trkpt>
      <trkpt lat="48.52794" lon="-2.75978">
        <ele>108.3</ele>
        <time>2015-09-15T13:24:22Z</time>
      </trkpt>
      <trkpt lat="48.52782" lon="-2.75971">
        <ele>108.1</ele>
        <time>2015-09-15T13:24:25Z</time>
      </trkpt>
      <trkpt lat="48.5277" lon="-2.75964">
        <ele>107.8</ele>
        <time>2015-09-15T13:24:28Z</time>
      </trkpt>
      <trkpt lat="48.52758" lon="-2.75957">
        <ele>107.4</ele>
        <time>2015-09-15T13:24:31Z</time>
      </trkpt>
      <trkpt lat="48.52746" lon="-2.7595">
        <ele>106.9</ele>
        <time>2015-09-15T13:24:34Z</time>
      </trkpt>
      <trkpt lat="48.52733" lon="-2.75943">
        <ele>106.4</ele>
        <time>2015-09-15T13:24:37Z</time>
      </trkpt>
      <trkpt lat="48.52721" lon="-2.75937">
        <ele>106</ele>
        <time>2015-09-15T13:24:40Z</time>
      </trkpt>
      <trkpt lat="48.52708" lon="-2.7593">
        <ele>105.6</ele>
        <time>2015-09-15T13:24:43Z</time>
      </trkpt>
      <trkpt lat="48.52697" lon="-2.75924">
        <ele>105.3</ele>
        <time>2015-09-15T13:24:46Z</time>
      </trkpt>
      <trkpt lat="48.52686" lon="-2.75916">
        <ele>105</ele>
        <time>2015-09-15T13:24:49Z</time>
      </trkpt>
      <trkpt lat="48.52682" lon="-2.75904">
        <ele>104.8</ele>
        <time>2015-09-15T13:24:51Z</time>
      </trkpt>
      <trkpt lat="48.52686" lon="-2.7589">
        <ele>104.5</ele>
        <time>2015-09-15T13:24:53Z</time>
      </trkpt>
      <trkpt lat="48.52691" lon="-2.75876">
        <ele>104.3</ele>
        <time>2015-09-15T13:24:55Z</time>
      </trkpt>
      <trkpt lat="48.52696" lon="-2.75862">
        <ele>104</ele>
        <time>2015-09-15T13:24:57Z</time>
      </trkpt>
      <trkpt lat="48.527" lon="-2.75847">
        <ele>103.8</ele>
        <time>2015-09-15T13:24:59Z</time>
      </trkpt>
      <trkpt lat="48.52706" lon="-2.75832">
        <ele>103.5</ele>
        <time>2015-09-15T13:25:01Z</time>
      </trkpt>
      <trkpt lat="48.52711" lon="-2.75819">
        <ele>103.3</ele>
        <time>2015-09-15T13:25:03Z</time>
      </trkpt>
      <trkpt lat="48.52717" lon="-2.75806">
        <ele>103.1</ele>
        <time>2015-09-15T13:25:05Z</time>
      </trkpt>
      <trkpt lat="48.52724" lon="-2.75795">
        <ele>102.9</ele>
        <time>2015-09-15T13:25:07Z</time>
      </trkpt>
      <trkpt lat="48.52731" lon="-2.75784">
        <ele>102.9</ele>
        <time>2015-09-15T13:25:09Z</time>
      </trkpt>
      <trkpt lat="48.52738" lon="-2.75775">
        <ele>103</ele>
        <time>2015-09-15T13:25:11Z</time>
      </trkpt>
      <trkpt lat="48.52749" lon="-2.75762">
        <ele>103.3</ele>
        <time>2015-09-15T13:25:14Z</time>
      </trkpt>
      <trkpt lat="48.5276" lon="-2.7575">
        <ele>103.6</ele>
        <time>2015-09-15T13:25:17Z</time>
      </trkpt>
      <trkpt lat="48.5277" lon="-2.75738">
        <ele>104</ele>
        <time>2015-09-15T13:25:20Z</time>
      </trkpt>
      <trkpt lat="48.5278" lon="-2.75724">
        <ele>104.4</ele>
        <time>2015-09-15T13:25:23Z</time>
      </trkpt>
      <trkpt lat="48.52787" lon="-2.75715">
        <ele>104.6</ele>
        <time>2015-09-15T13:25:25Z</time>
      </trkpt>
      <trkpt lat="48.52794" lon="-2.75705">
        <ele>104.8</ele>
        <time>2015-09-15T13:25:27Z</time>
      </trkpt>
      <trkpt lat="48.52801" lon="-2.75694">
        <ele>104.9</ele>
        <time>2015-09-15T13:25:29Z</time>
      </trkpt>
      <trkpt lat="48.52809" lon="-2.75684">
        <ele>105.1</ele>
        <time>2015-09-15T13:25:31Z</time>
      </trkpt>
      <trkpt lat="48.52816" lon="-2.75674">
        <ele>105.2</ele>
        <time>2015-09-15T13:25:33Z</time>
      </trkpt>
      <trkpt lat="48.52823" lon="-2.75665">
        <ele>105.3</ele>
        <time>2015-09-15T13:25:35Z</time>
      </trkpt>
      <trkpt lat="48.52831" lon="-2.75655">
        <ele>105.4</ele>
        <time>2015-09-15T13:25:37Z</time>
      </trkpt>
      <trkpt lat="48.52838" lon="-2.75645">
        <ele>105.5</ele>
        <time>2015-09-15T13:25:39Z</time>
      </trkpt>
      <trkpt lat="48.52846" lon="-2.75635">
        <ele>105.5</ele>
        <time>2015-09-15T13:25:41Z</time>
      </trkpt>
      <trkpt lat="48.52853" lon="-2.75624">
        <ele>105.6</ele>
        <time>2015-09-15T13:25:43Z</time>
      </trkpt>
      <trkpt lat="48.5286" lon="-2.75614">
        <ele>105.6</ele>
        <time>2015-09-15T13:25:45Z</time>
      </trkpt>
      <trkpt lat="48.52867" lon="-2.75604">
        <ele>105.5</ele>
        <time>2015-09-15T13:25:47Z</time>
      </trkpt>
      <trkpt lat="48.52874" lon="-2.75594">
        <ele>105.5</ele>
        <time>2015-09-15T13:25:49Z</time>
      </trkpt>
      <trkpt lat="48.5288" lon="-2.75583">
        <ele>105.5</ele>
        <time>2015-09-15T13:25:51Z</time>
      </trkpt>
      <trkpt lat="48.52889" lon="-2.75569">
        <ele>105.5</ele>
        <time>2015-09-15T13:25:54Z</time>
      </trkpt>
      <trkpt lat="48.52899" lon="-2.75555">
        <ele>105.5</ele>
        <time>2015-09-15T13:25:57Z</time>
      </trkpt>
      <trkpt lat="48.52909" lon="-2.75542">
        <ele>105.4</ele>
        <time>2015-09-15T13:26:00Z</time>
      </trkpt>
      <trkpt lat="48.52916" lon="-2.75533">
        <ele>105.4</ele>
        <time>2015-09-15T13:26:02Z</time>
      </trkpt>
      <trkpt lat="48.52925" lon="-2.75526">
        <ele>105.4</ele>
        <time>2015-09-15T13:26:04Z</time>
      </trkpt>
      <trkpt lat="48.52936" lon="-2.7553">
        <ele>105.4</ele>
        <time>2015-09-15T13:26:07Z</time>
      </trkpt>
      <trkpt lat="48.52946" lon="-2.75537">
        <ele>105.4</ele>
        <time>2015-09-15T13:26:10Z</time>
      </trkpt>
      <trkpt lat="48.52956" lon="-2.75545">
        <ele>105.3</ele>
        <time>2015-09-15T13:26:13Z</time>
      </trkpt>
      <trkpt lat="48.52967" lon="-2.75553">
        <ele>105.3</ele>
        <time>2015-09-15T13:26:16Z</time>
      </trkpt>
      <trkpt lat="48.52977" lon="-2.75561">
        <ele>105.3</ele>
        <time>2015-09-15T13:26:19Z</time>
      </trkpt>
      <trkpt lat="48.52987" lon="-2.75569">
        <ele>105.3</ele>
        <time>2015-09-15T13:26:22Z</time>
      </trkpt>
      <trkpt lat="48.52998" lon="-2.75578">
        <ele>105.3</ele>
        <time>2015-09-15T13:26:25Z</time>
      </trkpt>
      <trkpt lat="48.53009" lon="-2.75587">
        <ele>105.3</ele>
        <time>2015-09-15T13:26:28Z</time>
      </trkpt>
      <trkpt lat="48.5302" lon="-2.75595">
        <ele>105.3</ele>
        <time>2015-09-15T13:26:31Z</time>
      </trkpt>
      <trkpt lat="48.53032" lon="-2.75604">
        <ele>105.3</ele>
        <time>2015-09-15T13:26:34Z</time>
      </trkpt>
      <trkpt lat="48.53043" lon="-2.75613">
        <ele>105.3</ele>
        <time>2015-09-15T13:26:37Z</time>
      </trkpt>
      <trkpt lat="48.53052" lon="-2.75621">
        <ele>105.3</ele>
        <time>2015-09-15T13:26:40Z</time>
      </trkpt>
      <trkpt lat="48.53063" lon="-2.7563">
        <ele>105.4</ele>
        <time>2015-09-15T13:26:43Z</time>
      </trkpt>
      <trkpt lat="48.53073" lon="-2.75641">
        <ele>105.4</ele>
        <time>2015-09-15T13:26:46Z</time>
      </trkpt>
      <trkpt lat="48.53083" lon="-2.75652">
        <ele>105.4</ele>
        <time>2015-09-15T13:26:49Z</time>
      </trkpt>
      <trkpt lat="48.53094" lon="-2.75662">
        <ele>105.4</ele>
        <time>2015-09-15T13:26:52Z</time>
      </trkpt>
      <trkpt lat="48.53102" lon="-2.75671">
        <ele>105.4</ele>
        <time>2015-09-15T13:26:54Z</time>
      </trkpt>
      <trkpt lat="48.53113" lon="-2.75682">
        <ele>105.4</ele>
        <time>2015-09-15T13:26:57Z</time>
      </trkpt>
      <trkpt lat="48.5312" lon="-2.75695">
        <ele>105.4</ele>
        <time>2015-09-15T13:26:59Z</time>
      </trkpt>
      <trkpt lat="48.53123" lon="-2.75711">
        <ele>105.2</ele>
        <time>2015-09-15T13:27:01Z</time>
      </trkpt>
      <trkpt lat="48.53122" lon="-2.75727">
        <ele>105.1</ele>
        <time>2015-09-15T13:27:03Z</time>
      </trkpt>
      <trkpt lat="48.53121" lon="-2.75741">
        <ele>105</ele>
        <time>2015-09-15T13:27:05Z</time>
      </trkpt>
      <trkpt lat="48.5312" lon="-2.75759">
        <ele>104.8</ele>
        <time>2015-09-15T13:27:08Z</time>
      </trkpt>
      <trkpt lat="48.53127" lon="-2.75767">
        <ele>104.6</ele>
        <time>2015-09-15T13:27:11Z</time>
      </trkpt>
      <trkpt lat="48.5314" lon="-2.75763">
        <ele>104.3</ele>
        <time>2015-09-15T13:27:13Z</time>
      </trkpt>
      <trkpt lat="48.53153" lon="-2.75759">
        <ele>104</ele>
        <time>2015-09-15T13:27:15Z</time>
      </trkpt>
      <trkpt lat="48.53163" lon="-2.75756">
        <ele>103.6</ele>
        <time>2015-09-15T13:27:17Z</time>
      </trkpt>
      <trkpt lat="48.53173" lon="-2.75753">
        <ele>102.2</ele>
        <time>2015-09-15T13:27:24Z</time>
      </trkpt>
      <trkpt lat="48.53177" lon="-2.75738">
        <ele>101.4</ele>
        <time>2015-09-15T13:27:29Z</time>
      </trkpt>
      <trkpt lat="48.5318" lon="-2.75724">
        <ele>101</ele>
        <time>2015-09-15T13:27:32Z</time>
      </trkpt>
      <trkpt lat="48.53184" lon="-2.7571">
        <ele>100.6</ele>
        <time>2015-09-15T13:27:35Z</time>
      </trkpt>
      <trkpt lat="48.5319" lon="-2.75693">
        <ele>100.2</ele>
        <time>2015-09-15T13:27:39Z</time>
      </trkpt>
      <trkpt lat="48.53192" lon="-2.75677">
        <ele>99.9</ele>
        <time>2015-09-15T13:27:42Z</time>
      </trkpt>
      <trkpt lat="48.532" lon="-2.75662">
        <ele>99.7</ele>
        <time>2015-09-15T13:27:45Z</time>
      </trkpt>
      <trkpt lat="48.53208" lon="-2.75652">
        <ele>99.5</ele>
        <time>2015-09-15T13:27:49Z</time>
      </trkpt>
      <trkpt lat="48.53217" lon="-2.75648">
        <ele>99.3</ele>
        <time>2015-09-15T13:27:52Z</time>
      </trkpt>
      <trkpt lat="48.53227" lon="-2.75642">
        <ele>99.1</ele>
        <time>2015-09-15T13:27:55Z</time>
      </trkpt>
      <trkpt lat="48.53237" lon="-2.75631">
        <ele>99</ele>
        <time>2015-09-15T13:27:58Z</time>
      </trkpt>
      <trkpt lat="48.53241" lon="-2.75613">
        <ele>98.9</ele>
        <time>2015-09-15T13:28:01Z</time>
      </trkpt>
      <trkpt lat="48.53244" lon="-2.75594">
        <ele>98.9</ele>
        <time>2015-09-15T13:28:04Z</time>
      </trkpt>
      <trkpt lat="48.53247" lon="-2.75574">
        <ele>98.9</ele>
        <time>2015-09-15T13:28:07Z</time>
      </trkpt>
      <trkpt lat="48.5325" lon="-2.75555">
        <ele>98.8</ele>
        <time>2015-09-15T13:28:10Z</time>
      </trkpt>
      <trkpt lat="48.53254" lon="-2.75536">
        <ele>98.8</ele>
        <time>2015-09-15T13:28:13Z</time>
      </trkpt>
      <trkpt lat="48.53258" lon="-2.75517">
        <ele>98.8</ele>
        <time>2015-09-15T13:28:16Z</time>
      </trkpt>
      <trkpt lat="48.5326" lon="-2.75503">
        <ele>98.8</ele>
        <time>2015-09-15T13:28:18Z</time>
      </trkpt>
      <trkpt lat="48.53263" lon="-2.75489">
        <ele>98.7</ele>
        <time>2015-09-15T13:28:20Z</time>
      </trkpt>
      <trkpt lat="48.53263" lon="-2.75473">
        <ele>98.6</ele>
        <time>2015-09-15T13:28:22Z</time>
      </trkpt>
      <trkpt lat="48.53264" lon="-2.75456">
        <ele>98.3</ele>
        <time>2015-09-15T13:28:24Z</time>
      </trkpt>
      <trkpt lat="48.53272" lon="-2.75445">
        <ele>98.1</ele>
        <time>2015-09-15T13:28:26Z</time>
      </trkpt>
      <trkpt lat="48.53281" lon="-2.7544">
        <ele>97.8</ele>
        <time>2015-09-15T13:28:28Z</time>
      </trkpt>
      <trkpt lat="48.53294" lon="-2.75436">
        <ele>97.5</ele>
        <time>2015-09-15T13:28:31Z</time>
      </trkpt>
      <trkpt lat="48.53301" lon="-2.75426">
        <ele>97.2</ele>
        <time>2015-09-15T13:28:34Z</time>
      </trkpt>
      <trkpt lat="48.53308" lon="-2.75411">
        <ele>97</ele>
        <time>2015-09-15T13:28:37Z</time>
      </trkpt>
      <trkpt lat="48.53319" lon="-2.75404">
        <ele>96.9</ele>
        <time>2015-09-15T13:28:40Z</time>
      </trkpt>
      <trkpt lat="48.53331" lon="-2.75399">
        <ele>96.8</ele>
        <time>2015-09-15T13:28:43Z</time>
      </trkpt>
      <trkpt lat="48.53341" lon="-2.75393">
        <ele>96.7</ele>
        <time>2015-09-15T13:28:46Z</time>
      </trkpt>
      <trkpt lat="48.53351" lon="-2.75384">
        <ele>96.6</ele>
        <time>2015-09-15T13:28:49Z</time>
      </trkpt>
      <trkpt lat="48.5336" lon="-2.75375">
        <ele>96.5</ele>
        <time>2015-09-15T13:28:53Z</time>
      </trkpt>
      <trkpt lat="48.53371" lon="-2.75375">
        <ele>96.4</ele>
        <time>2015-09-15T13:28:56Z</time>
      </trkpt>
      <trkpt lat="48.53382" lon="-2.75369">
        <ele>96.4</ele>
        <time>2015-09-15T13:28:59Z</time>
      </trkpt>
      <trkpt lat="48.53392" lon="-2.7536">
        <ele>96.4</ele>
        <time>2015-09-15T13:29:02Z</time>
      </trkpt>
      <trkpt lat="48.53402" lon="-2.75349">
        <ele>96.4</ele>
        <time>2015-09-15T13:29:05Z</time>
      </trkpt>
      <trkpt lat="48.53411" lon="-2.75337">
        <ele>96.4</ele>
        <time>2015-09-15T13:29:08Z</time>
      </trkpt>
      <trkpt lat="48.53422" lon="-2.75325">
        <ele>96.4</ele>
        <time>2015-09-15T13:29:11Z</time>
      </trkpt>
      <trkpt lat="48.53432" lon="-2.75313">
        <ele>96.4</ele>
        <time>2015-09-15T13:29:14Z</time>
      </trkpt>
      <trkpt lat="48.53442" lon="-2.75301">
        <ele>96.4</ele>
        <time>2015-09-15T13:29:17Z</time>
      </trkpt>
      <trkpt lat="48.53447" lon="-2.75285">
        <ele>96.4</ele>
        <time>2015-09-15T13:29:20Z</time>
      </trkpt>
      <trkpt lat="48.53449" lon="-2.75268">
        <ele>96.5</ele>
        <time>2015-09-15T13:29:23Z</time>
      </trkpt>
      <trkpt lat="48.53451" lon="-2.75251">
        <ele>96.5</ele>
        <time>2015-09-15T13:29:26Z</time>
      </trkpt>
      <trkpt lat="48.53447" lon="-2.75236">
        <ele>96.5</ele>
        <time>2015-09-15T13:29:29Z</time>
      </trkpt>
      <trkpt lat="48.53436" lon="-2.75226">
        <ele>96.6</ele>
        <time>2015-09-15T13:29:32Z</time>
      </trkpt>
      <trkpt lat="48.53427" lon="-2.75222">
        <ele>96.6</ele>
        <time>2015-09-15T13:29:34Z</time>
      </trkpt>
      <trkpt lat="48.53418" lon="-2.75217">
        <ele>96.6</ele>
        <time>2015-09-15T13:29:36Z</time>
      </trkpt>
      <trkpt lat="48.53408" lon="-2.75212">
        <ele>96.5</ele>
        <time>2015-09-15T13:29:38Z</time>
      </trkpt>
      <trkpt lat="48.53397" lon="-2.75207">
        <ele>96.4</ele>
        <time>2015-09-15T13:29:40Z</time>
      </trkpt>
      <trkpt lat="48.53387" lon="-2.75202">
        <ele>96.2</ele>
        <time>2015-09-15T13:29:42Z</time>
      </trkpt>
      <trkpt lat="48.53377" lon="-2.75198">
        <ele>96</ele>
        <time>2015-09-15T13:29:44Z</time>
      </trkpt>
      <trkpt lat="48.53368" lon="-2.75193">
        <ele>95.8</ele>
        <time>2015-09-15T13:29:46Z</time>
      </trkpt>
      <trkpt lat="48.5336" lon="-2.75186">
        <ele>95.6</ele>
        <time>2015-09-15T13:29:48Z</time>
      </trkpt>
      <trkpt lat="48.53351" lon="-2.75195">
        <ele>95.3</ele>
        <time>2015-09-15T13:29:51Z</time>
      </trkpt>
      <trkpt lat="48.53346" lon="-2.75213">
        <ele>95.1</ele>
        <time>2015-09-15T13:29:54Z</time>
      </trkpt>
      <trkpt lat="48.53341" lon="-2.75225">
        <ele>94.9</ele>
        <time>2015-09-15T13:29:56Z</time>
      </trkpt>
      <trkpt lat="48.53333" lon="-2.75234">
        <ele>94.8</ele>
        <time>2015-09-15T13:29:58Z</time>
      </trkpt>
      <trkpt lat="48.53323" lon="-2.75232">
        <ele>94.6</ele>
        <time>2015-09-15T13:30:00Z</time>
      </trkpt>
      <trkpt lat="48.53312" lon="-2.75228">
        <ele>94.3</ele>
        <time>2015-09-15T13:30:03Z</time>
      </trkpt>
      <trkpt lat="48.5331" lon="-2.75214">
        <ele>93.9</ele>
        <time>2015-09-15T13:30:05Z</time>
      </trkpt>
      <trkpt lat="48.533" lon="-2.75206">
        <ele>93.2</ele>
        <time>2015-09-15T13:30:08Z</time>
      </trkpt>
      <trkpt lat="48.53291" lon="-2.75205">
        <ele>92.8</ele>
        <time>2015-09-15T13:30:10Z</time>
      </trkpt>
      <trkpt lat="48.53286" lon="-2.75188">
        <ele>91.6</ele>
        <time>2015-09-15T13:30:14Z</time>
      </trkpt>
      <trkpt lat="48.53279" lon="-2.75175">
        <ele>90</ele>
        <time>2015-09-15T13:30:19Z</time>
      </trkpt>
      <trkpt lat="48.53268" lon="-2.75166">
        <ele>89.3</ele>
        <time>2015-09-15T13:30:22Z</time>
      </trkpt>
      <trkpt lat="48.53258" lon="-2.75156">
        <ele>88.6</ele>
        <time>2015-09-15T13:30:25Z</time>
      </trkpt>
      <trkpt lat="48.53259" lon="-2.75142">
        <ele>88.1</ele>
        <time>2015-09-15T13:30:28Z</time>
      </trkpt>
      <trkpt lat="48.53253" lon="-2.7513">
        <ele>87.8</ele>
        <time>2015-09-15T13:30:30Z</time>
      </trkpt>
      <trkpt lat="48.53246" lon="-2.75119">
        <ele>87.2</ele>
        <time>2015-09-15T13:30:33Z</time>
      </trkpt>
      <trkpt lat="48.53238" lon="-2.7511">
        <ele>86.6</ele>
        <time>2015-09-15T13:30:36Z</time>
      </trkpt>
      <trkpt lat="48.53227" lon="-2.75094">
        <ele>86.1</ele>
        <time>2015-09-15T13:30:39Z</time>
      </trkpt>
      <trkpt lat="48.5322" lon="-2.75081">
        <ele>85.6</ele>
        <time>2015-09-15T13:30:42Z</time>
      </trkpt>
      <trkpt lat="48.53215" lon="-2.75068">
        <ele>85.4</ele>
        <time>2015-09-15T13:30:44Z</time>
      </trkpt>
      <trkpt lat="48.5321" lon="-2.75055">
        <ele>85.1</ele>
        <time>2015-09-15T13:30:47Z</time>
      </trkpt>
      <trkpt lat="48.53209" lon="-2.75038">
        <ele>84.6</ele>
        <time>2015-09-15T13:30:50Z</time>
      </trkpt>
      <trkpt lat="48.53206" lon="-2.75024">
        <ele>84.1</ele>
        <time>2015-09-15T13:30:53Z</time>
      </trkpt>
      <trkpt lat="48.53204" lon="-2.75004">
        <ele>83.7</ele>
        <time>2015-09-15T13:30:56Z</time>
      </trkpt>
      <trkpt lat="48.53211" lon="-2.74994">
        <ele>83.2</ele>
        <time>2015-09-15T13:30:59Z</time>
      </trkpt>
      <trkpt lat="48.53214" lon="-2.7498">
        <ele>82.7</ele>
        <time>2015-09-15T13:31:04Z</time>
      </trkpt>
      <trkpt lat="48.53213" lon="-2.74965">
        <ele>82.6</ele>
        <time>2015-09-15T13:31:07Z</time>
      </trkpt>
      <trkpt lat="48.53213" lon="-2.74946">
        <ele>82.5</ele>
        <time>2015-09-15T13:31:10Z</time>
      </trkpt>
      <trkpt lat="48.53207" lon="-2.74928">
        <ele>82.4</ele>
        <time>2015-09-15T13:31:13Z</time>
      </trkpt>
      <trkpt lat="48.532" lon="-2.74911">
        <ele>82.4</ele>
        <time>2015-09-15T13:31:16Z</time>
      </trkpt>
      <trkpt lat="48.53197" lon="-2.74899">
        <ele>82.3</ele>
        <time>2015-09-15T13:31:18Z</time>
      </trkpt>
      <trkpt lat="48.53201" lon="-2.74879">
        <ele>82.2</ele>
        <time>2015-09-15T13:31:21Z</time>
      </trkpt>
      <trkpt lat="48.53204" lon="-2.74865">
        <ele>82.1</ele>
        <time>2015-09-15T13:31:23Z</time>
      </trkpt>
      <trkpt lat="48.532" lon="-2.74848">
        <ele>82</ele>
        <time>2015-09-15T13:31:26Z</time>
      </trkpt>
      <trkpt lat="48.53194" lon="-2.74837">
        <ele>81.9</ele>
        <time>2015-09-15T13:31:28Z</time>
      </trkpt>
      <trkpt lat="48.53186" lon="-2.74823">
        <ele>81.8</ele>
        <time>2015-09-15T13:31:31Z</time>
      </trkpt>
      <trkpt lat="48.53181" lon="-2.74809">
        <ele>81.6</ele>
        <time>2015-09-15T13:31:34Z</time>
      </trkpt>
      <trkpt lat="48.53174" lon="-2.74795">
        <ele>81.4</ele>
        <time>2015-09-15T13:31:37Z</time>
      </trkpt>
      <trkpt lat="48.53166" lon="-2.74784">
        <ele>81.1</ele>
        <time>2015-09-15T13:31:39Z</time>
      </trkpt>
      <trkpt lat="48.53159" lon="-2.7477">
        <ele>80.6</ele>
        <time>2015-09-15T13:31:42Z</time>
      </trkpt>
      <trkpt lat="48.53157" lon="-2.74755">
        <ele>80.1</ele>
        <time>2015-09-15T13:31:45Z</time>
      </trkpt>
      <trkpt lat="48.53161" lon="-2.7474">
        <ele>79.7</ele>
        <time>2015-09-15T13:31:48Z</time>
      </trkpt>
      <trkpt lat="48.53166" lon="-2.74727">
        <ele>79.4</ele>
        <time>2015-09-15T13:31:51Z</time>
      </trkpt>
      <trkpt lat="48.53171" lon="-2.74715">
        <ele>79.1</ele>
        <time>2015-09-15T13:31:54Z</time>
      </trkpt>
      <trkpt lat="48.53177" lon="-2.74703">
        <ele>78.9</ele>
        <time>2015-09-15T13:31:57Z</time>
      </trkpt>
      <trkpt lat="48.53183" lon="-2.74692">
        <ele>78.8</ele>
        <time>2015-09-15T13:32:00Z</time>
      </trkpt>
      <trkpt lat="48.53188" lon="-2.7468">
        <ele>78.8</ele>
        <time>2015-09-15T13:32:03Z</time>
      </trkpt>
      <trkpt lat="48.53193" lon="-2.74668">
        <ele>79.1</ele>
        <time>2015-09-15T13:32:06Z</time>
      </trkpt>
      <trkpt lat="48.53199" lon="-2.74654">
        <ele>79.4</ele>
        <time>2015-09-15T13:32:09Z</time>
      </trkpt>
      <trkpt lat="48.53206" lon="-2.74639">
        <ele>79.7</ele>
        <time>2015-09-15T13:32:12Z</time>
      </trkpt>
      <trkpt lat="48.53213" lon="-2.74623">
        <ele>79.9</ele>
        <time>2015-09-15T13:32:15Z</time>
      </trkpt>
      <trkpt lat="48.53221" lon="-2.74607">
        <ele>80.1</ele>
        <time>2015-09-15T13:32:18Z</time>
      </trkpt>
      <trkpt lat="48.53229" lon="-2.74592">
        <ele>80.1</ele>
        <time>2015-09-15T13:32:21Z</time>
      </trkpt>
      <trkpt lat="48.53235" lon="-2.74581">
        <ele>80.1</ele>
        <time>2015-09-15T13:32:23Z</time>
      </trkpt>
      <trkpt lat="48.53242" lon="-2.74569">
        <ele>80</ele>
        <time>2015-09-15T13:32:25Z</time>
      </trkpt>
      <trkpt lat="48.53248" lon="-2.74555">
        <ele>79.9</ele>
        <time>2015-09-15T13:32:27Z</time>
      </trkpt>
      <trkpt lat="48.53248" lon="-2.74539">
        <ele>79.7</ele>
        <time>2015-09-15T13:32:29Z</time>
      </trkpt>
      <trkpt lat="48.53251" lon="-2.74523">
        <ele>79.4</ele>
        <time>2015-09-15T13:32:31Z</time>
      </trkpt>
      <trkpt lat="48.53258" lon="-2.74513">
        <ele>79.2</ele>
        <time>2015-09-15T13:32:33Z</time>
      </trkpt>
      <trkpt lat="48.53266" lon="-2.74502">
        <ele>79</ele>
        <time>2015-09-15T13:32:35Z</time>
      </trkpt>
      <trkpt lat="48.53274" lon="-2.74493">
        <ele>78.8</ele>
        <time>2015-09-15T13:32:37Z</time>
      </trkpt>
      <trkpt lat="48.53282" lon="-2.74483">
        <ele>78.7</ele>
        <time>2015-09-15T13:32:39Z</time>
      </trkpt>
      <trkpt lat="48.53289" lon="-2.74474">
        <ele>78.6</ele>
        <time>2015-09-15T13:32:41Z</time>
      </trkpt>
      <trkpt lat="48.53297" lon="-2.74466">
        <ele>78.5</ele>
        <time>2015-09-15T13:32:43Z</time>
      </trkpt>
      <trkpt lat="48.53305" lon="-2.74459">
        <ele>78.5</ele>
        <time>2015-09-15T13:32:45Z</time>
      </trkpt>
      <trkpt lat="48.53317" lon="-2.74449">
        <ele>78.5</ele>
        <time>2015-09-15T13:32:48Z</time>
      </trkpt>
      <trkpt lat="48.53327" lon="-2.74436">
        <ele>78.6</ele>
        <time>2015-09-15T13:32:51Z</time>
      </trkpt>
      <trkpt lat="48.53337" lon="-2.74424">
        <ele>78.7</ele>
        <time>2015-09-15T13:32:54Z</time>
      </trkpt>
      <trkpt lat="48.5335" lon="-2.74423">
        <ele>78.9</ele>
        <time>2015-09-15T13:32:57Z</time>
      </trkpt>
      <trkpt lat="48.53357" lon="-2.74431">
        <ele>79.1</ele>
        <time>2015-09-15T13:32:59Z</time>
      </trkpt>
      <trkpt lat="48.53364" lon="-2.74441">
        <ele>79.3</ele>
        <time>2015-09-15T13:33:01Z</time>
      </trkpt>
      <trkpt lat="48.53372" lon="-2.7445">
        <ele>79.4</ele>
        <time>2015-09-15T13:33:03Z</time>
      </trkpt>
      <trkpt lat="48.53383" lon="-2.74461">
        <ele>79.8</ele>
        <time>2015-09-15T13:33:06Z</time>
      </trkpt>
      <trkpt lat="48.53393" lon="-2.74472">
        <ele>80.5</ele>
        <time>2015-09-15T13:33:09Z</time>
      </trkpt>
      <trkpt lat="48.53403" lon="-2.74481">
        <ele>81.1</ele>
        <time>2015-09-15T13:33:12Z</time>
      </trkpt>
      <trkpt lat="48.53414" lon="-2.74491">
        <ele>81.9</ele>
        <time>2015-09-15T13:33:15Z</time>
      </trkpt>
      <trkpt lat="48.53426" lon="-2.745">
        <ele>82.6</ele>
        <time>2015-09-15T13:33:18Z</time>
      </trkpt>
      <trkpt lat="48.53437" lon="-2.74507">
        <ele>83.3</ele>
        <time>2015-09-15T13:33:21Z</time>
      </trkpt>
      <trkpt lat="48.53448" lon="-2.74514">
        <ele>84.1</ele>
        <time>2015-09-15T13:33:24Z</time>
      </trkpt>
      <trkpt lat="48.53458" lon="-2.7452">
        <ele>84.9</ele>
        <time>2015-09-15T13:33:27Z</time>
      </trkpt>
      <trkpt lat="48.53467" lon="-2.74525">
        <ele>85.6</ele>
        <time>2015-09-15T13:33:30Z</time>
      </trkpt>
      <trkpt lat="48.53477" lon="-2.74531">
        <ele>86.3</ele>
        <time>2015-09-15T13:33:33Z</time>
      </trkpt>
      <trkpt lat="48.53487" lon="-2.74537">
        <ele>86.9</ele>
        <time>2015-09-15T13:33:36Z</time>
      </trkpt>
      <trkpt lat="48.53496" lon="-2.74544">
        <ele>87.3</ele>
        <time>2015-09-15T13:33:39Z</time>
      </trkpt>
      <trkpt lat="48.53505" lon="-2.74552">
        <ele>87.7</ele>
        <time>2015-09-15T13:33:42Z</time>
      </trkpt>
      <trkpt lat="48.53515" lon="-2.7456">
        <ele>88</ele>
        <time>2015-09-15T13:33:45Z</time>
      </trkpt>
      <trkpt lat="48.53525" lon="-2.74567">
        <ele>88.3</ele>
        <time>2015-09-15T13:33:48Z</time>
      </trkpt>
      <trkpt lat="48.53533" lon="-2.74574">
        <ele>88.6</ele>
        <time>2015-09-15T13:33:51Z</time>
      </trkpt>
      <trkpt lat="48.53542" lon="-2.74579">
        <ele>88.9</ele>
        <time>2015-09-15T13:33:54Z</time>
      </trkpt>
      <trkpt lat="48.53551" lon="-2.74585">
        <ele>89.3</ele>
        <time>2015-09-15T13:33:58Z</time>
      </trkpt>
      <trkpt lat="48.5356" lon="-2.7459">
        <ele>89.5</ele>
        <time>2015-09-15T13:34:01Z</time>
      </trkpt>
      <trkpt lat="48.5357" lon="-2.74595">
        <ele>89.8</ele>
        <time>2015-09-15T13:34:04Z</time>
      </trkpt>
      <trkpt lat="48.53578" lon="-2.74601">
        <ele>90.1</ele>
        <time>2015-09-15T13:34:07Z</time>
      </trkpt>
      <trkpt lat="48.53589" lon="-2.74607">
        <ele>90.4</ele>
        <time>2015-09-15T13:34:10Z</time>
      </trkpt>
      <trkpt lat="48.53599" lon="-2.7461">
        <ele>90.7</ele>
        <time>2015-09-15T13:34:13Z</time>
      </trkpt>
      <trkpt lat="48.53611" lon="-2.74612">
        <ele>90.9</ele>
        <time>2015-09-15T13:34:16Z</time>
      </trkpt>
      <trkpt lat="48.53623" lon="-2.74612">
        <ele>91.2</ele>
        <time>2015-09-15T13:34:19Z</time>
      </trkpt>
      <trkpt lat="48.53635" lon="-2.74609">
        <ele>91.5</ele>
        <time>2015-09-15T13:34:22Z</time>
      </trkpt>
      <trkpt lat="48.53646" lon="-2.74603">
        <ele>91.7</ele>
        <time>2015-09-15T13:34:25Z</time>
      </trkpt>
      <trkpt lat="48.53656" lon="-2.74595">
        <ele>91.9</ele>
        <time>2015-09-15T13:34:28Z</time>
      </trkpt>
      <trkpt lat="48.53667" lon="-2.74586">
        <ele>92.1</ele>
        <time>2015-09-15T13:34:31Z</time>
      </trkpt>
      <trkpt lat="48.53678" lon="-2.74577">
        <ele>92.4</ele>
        <time>2015-09-15T13:34:34Z</time>
      </trkpt>
      <trkpt lat="48.53686" lon="-2.74571">
        <ele>92.5</ele>
        <time>2015-09-15T13:34:36Z</time>
      </trkpt>
      <trkpt lat="48.53694" lon="-2.74566">
        <ele>92.6</ele>
        <time>2015-09-15T13:34:38Z</time>
      </trkpt>
      <trkpt lat="48.53704" lon="-2.74562">
        <ele>92.7</ele>
        <time>2015-09-15T13:34:40Z</time>
      </trkpt>
      <trkpt lat="48.53713" lon="-2.74561">
        <ele>92.8</ele>
        <time>2015-09-15T13:34:42Z</time>
      </trkpt>
      <trkpt lat="48.53722" lon="-2.74562">
        <ele>92.9</ele>
        <time>2015-09-15T13:34:44Z</time>
      </trkpt>
      <trkpt lat="48.53731" lon="-2.74563">
        <ele>93</ele>
        <time>2015-09-15T13:34:46Z</time>
      </trkpt>
      <trkpt lat="48.5374" lon="-2.74565">
        <ele>93.1</ele>
        <time>2015-09-15T13:34:48Z</time>
      </trkpt>
      <trkpt lat="48.5375" lon="-2.74568">
        <ele>93.1</ele>
        <time>2015-09-15T13:34:50Z</time>
      </trkpt>
      <trkpt lat="48.5376" lon="-2.7457">
        <ele>93.2</ele>
        <time>2015-09-15T13:34:52Z</time>
      </trkpt>
      <trkpt lat="48.53769" lon="-2.74573">
        <ele>93.2</ele>
        <time>2015-09-15T13:34:54Z</time>
      </trkpt>
      <trkpt lat="48.53779" lon="-2.74577">
        <ele>93.3</ele>
        <time>2015-09-15T13:34:56Z</time>
      </trkpt>
      <trkpt lat="48.53788" lon="-2.74581">
        <ele>93.3</ele>
        <time>2015-09-15T13:34:58Z</time>
      </trkpt>
      <trkpt lat="48.53797" lon="-2.74585">
        <ele>93.3</ele>
        <time>2015-09-15T13:35:00Z</time>
      </trkpt>
      <trkpt lat="48.53806" lon="-2.7459">
        <ele>93.3</ele>
        <time>2015-09-15T13:35:02Z</time>
      </trkpt>
      <trkpt lat="48.53815" lon="-2.74595">
        <ele>93.4</ele>
        <time>2015-09-15T13:35:04Z</time>
      </trkpt>
      <trkpt lat="48.53824" lon="-2.74599">
        <ele>93.4</ele>
        <time>2015-09-15T13:35:06Z</time>
      </trkpt>
      <trkpt lat="48.53833" lon="-2.74604">
        <ele>93.4</ele>
        <time>2015-09-15T13:35:08Z</time>
      </trkpt>
      <trkpt lat="48.53842" lon="-2.74608">
        <ele>93.5</ele>
        <time>2015-09-15T13:35:10Z</time>
      </trkpt>
      <trkpt lat="48.53851" lon="-2.74611">
        <ele>93.6</ele>
        <time>2015-09-15T13:35:12Z</time>
      </trkpt>
      <trkpt lat="48.5386" lon="-2.74615">
        <ele>93.6</ele>
        <time>2015-09-15T13:35:14Z</time>
      </trkpt>
      <trkpt lat="48.53869" lon="-2.7462">
        <ele>93.7</ele>
        <time>2015-09-15T13:35:16Z</time>
      </trkpt>
      <trkpt lat="48.53878" lon="-2.74625">
        <ele>93.8</ele>
        <time>2015-09-15T13:35:18Z</time>
      </trkpt>
      <trkpt lat="48.53886" lon="-2.74631">
        <ele>93.8</ele>
        <time>2015-09-15T13:35:20Z</time>
      </trkpt>
      <trkpt lat="48.53894" lon="-2.74637">
        <ele>93.9</ele>
        <time>2015-09-15T13:35:22Z</time>
      </trkpt>
      <trkpt lat="48.53903" lon="-2.74643">
        <ele>94</ele>
        <time>2015-09-15T13:35:24Z</time>
      </trkpt>
      <trkpt lat="48.53912" lon="-2.74649">
        <ele>94.1</ele>
        <time>2015-09-15T13:35:26Z</time>
      </trkpt>
      <trkpt lat="48.53921" lon="-2.74654">
        <ele>94.2</ele>
        <time>2015-09-15T13:35:28Z</time>
      </trkpt>
      <trkpt lat="48.5393" lon="-2.74658">
        <ele>94.3</ele>
        <time>2015-09-15T13:35:30Z</time>
      </trkpt>
      <trkpt lat="48.53939" lon="-2.74661">
        <ele>94.5</ele>
        <time>2015-09-15T13:35:32Z</time>
      </trkpt>
      <trkpt lat="48.53949" lon="-2.74664">
        <ele>94.5</ele>
        <time>2015-09-15T13:35:34Z</time>
      </trkpt>
      <trkpt lat="48.53959" lon="-2.74665">
        <ele>94.6</ele>
        <time>2015-09-15T13:35:36Z</time>
      </trkpt>
      <trkpt lat="48.53969" lon="-2.74666">
        <ele>94.7</ele>
        <time>2015-09-15T13:35:38Z</time>
      </trkpt>
      <trkpt lat="48.53979" lon="-2.74667">
        <ele>94.8</ele>
        <time>2015-09-15T13:35:40Z</time>
      </trkpt>
      <trkpt lat="48.5399" lon="-2.74668">
        <ele>94.9</ele>
        <time>2015-09-15T13:35:42Z</time>
      </trkpt>
      <trkpt lat="48.54" lon="-2.74669">
        <ele>95</ele>
        <time>2015-09-15T13:35:44Z</time>
      </trkpt>
      <trkpt lat="48.5401" lon="-2.74671">
        <ele>95.1</ele>
        <time>2015-09-15T13:35:46Z</time>
      </trkpt>
      <trkpt lat="48.5402" lon="-2.74671">
        <ele>95.1</ele>
        <time>2015-09-15T13:35:48Z</time>
      </trkpt>
      <trkpt lat="48.5403" lon="-2.74673">
        <ele>95.3</ele>
        <time>2015-09-15T13:35:50Z</time>
      </trkpt>
      <trkpt lat="48.5404" lon="-2.74674">
        <ele>95.5</ele>
        <time>2015-09-15T13:35:52Z</time>
      </trkpt>
      <trkpt lat="48.5405" lon="-2.74676">
        <ele>95.7</ele>
        <time>2015-09-15T13:35:54Z</time>
      </trkpt>
      <trkpt lat="48.5406" lon="-2.74678">
        <ele>95.8</ele>
        <time>2015-09-15T13:35:56Z</time>
      </trkpt>
      <trkpt lat="48.5407" lon="-2.74681">
        <ele>95.9</ele>
        <time>2015-09-15T13:35:58Z</time>
      </trkpt>
      <trkpt lat="48.5408" lon="-2.74684">
        <ele>96</ele>
        <time>2015-09-15T13:36:00Z</time>
      </trkpt>
      <trkpt lat="48.54089" lon="-2.74688">
        <ele>96.1</ele>
        <time>2015-09-15T13:36:02Z</time>
      </trkpt>
      <trkpt lat="48.54099" lon="-2.74692">
        <ele>96.2</ele>
        <time>2015-09-15T13:36:04Z</time>
      </trkpt>
      <trkpt lat="48.54108" lon="-2.74696">
        <ele>96.3</ele>
        <time>2015-09-15T13:36:06Z</time>
      </trkpt>
      <trkpt lat="48.54117" lon="-2.74699">
        <ele>96.3</ele>
        <time>2015-09-15T13:36:08Z</time>
      </trkpt>
      <trkpt lat="48.54129" lon="-2.74705">
        <ele>96.4</ele>
        <time>2015-09-15T13:36:11Z</time>
      </trkpt>
      <trkpt lat="48.54142" lon="-2.7471">
        <ele>96.5</ele>
        <time>2015-09-15T13:36:14Z</time>
      </trkpt>
      <trkpt lat="48.54152" lon="-2.74712">
        <ele>96.6</ele>
        <time>2015-09-15T13:36:16Z</time>
      </trkpt>
      <trkpt lat="48.54162" lon="-2.74714">
        <ele>96.7</ele>
        <time>2015-09-15T13:36:18Z</time>
      </trkpt>
      <trkpt lat="48.54172" lon="-2.74716">
        <ele>96.9</ele>
        <time>2015-09-15T13:36:20Z</time>
      </trkpt>
      <trkpt lat="48.54182" lon="-2.74717">
        <ele>97</ele>
        <time>2015-09-15T13:36:22Z</time>
      </trkpt>
      <trkpt lat="48.54192" lon="-2.74718">
        <ele>97.1</ele>
        <time>2015-09-15T13:36:24Z</time>
      </trkpt>
      <trkpt lat="48.54203" lon="-2.74719">
        <ele>97.1</ele>
        <time>2015-09-15T13:36:26Z</time>
      </trkpt>
      <trkpt lat="48.54213" lon="-2.74719">
        <ele>97.2</ele>
        <time>2015-09-15T13:36:28Z</time>
      </trkpt>
      <trkpt lat="48.54223" lon="-2.7472">
        <ele>97.3</ele>
        <time>2015-09-15T13:36:30Z</time>
      </trkpt>
      <trkpt lat="48.54233" lon="-2.7472">
        <ele>97.3</ele>
        <time>2015-09-15T13:36:32Z</time>
      </trkpt>
      <trkpt lat="48.54243" lon="-2.7472">
        <ele>97.4</ele>
        <time>2015-09-15T13:36:34Z</time>
      </trkpt>
      <trkpt lat="48.54254" lon="-2.74721">
        <ele>97.4</ele>
        <time>2015-09-15T13:36:36Z</time>
      </trkpt>
      <trkpt lat="48.54264" lon="-2.74722">
        <ele>97.4</ele>
        <time>2015-09-15T13:36:38Z</time>
      </trkpt>
      <trkpt lat="48.54274" lon="-2.74723">
        <ele>97.5</ele>
        <time>2015-09-15T13:36:40Z</time>
      </trkpt>
      <trkpt lat="48.54287" lon="-2.74725">
        <ele>97.5</ele>
        <time>2015-09-15T13:36:43Z</time>
      </trkpt>
      <trkpt lat="48.54299" lon="-2.74729">
        <ele>97.4</ele>
        <time>2015-09-15T13:36:46Z</time>
      </trkpt>
      <trkpt lat="48.54309" lon="-2.74733">
        <ele>97.4</ele>
        <time>2015-09-15T13:36:48Z</time>
      </trkpt>
      <trkpt lat="48.54319" lon="-2.74737">
        <ele>97.4</ele>
        <time>2015-09-15T13:36:50Z</time>
      </trkpt>
      <trkpt lat="48.54329" lon="-2.74742">
        <ele>97.4</ele>
        <time>2015-09-15T13:36:52Z</time>
      </trkpt>
      <trkpt lat="48.54339" lon="-2.74747">
        <ele>97.3</ele>
        <time>2015-09-15T13:36:54Z</time>
      </trkpt>
      <trkpt lat="48.5435" lon="-2.74751">
        <ele>97.3</ele>
        <time>2015-09-15T13:36:56Z</time>
      </trkpt>
      <trkpt lat="48.5436" lon="-2.74756">
        <ele>97.3</ele>
        <time>2015-09-15T13:36:58Z</time>
      </trkpt>
      <trkpt lat="48.54371" lon="-2.7476">
        <ele>97.2</ele>
        <time>2015-09-15T13:37:00Z</time>
      </trkpt>
      <trkpt lat="48.54381" lon="-2.74766">
        <ele>97.2</ele>
        <time>2015-09-15T13:37:02Z</time>
      </trkpt>
      <trkpt lat="48.54392" lon="-2.7477">
        <ele>97.2</ele>
        <time>2015-09-15T13:37:04Z</time>
      </trkpt>
      <trkpt lat="48.54402" lon="-2.74776">
        <ele>97.2</ele>
        <time>2015-09-15T13:37:06Z</time>
      </trkpt>
      <trkpt lat="48.54412" lon="-2.74781">
        <ele>97.2</ele>
        <time>2015-09-15T13:37:08Z</time>
      </trkpt>
      <trkpt lat="48.54423" lon="-2.74786">
        <ele>97.1</ele>
        <time>2015-09-15T13:37:10Z</time>
      </trkpt>
      <trkpt lat="48.54433" lon="-2.74792">
        <ele>97.1</ele>
        <time>2015-09-15T13:37:12Z</time>
      </trkpt>
      <trkpt lat="48.54443" lon="-2.74797">
        <ele>97.1</ele>
        <time>2015-09-15T13:37:14Z</time>
      </trkpt>
      <trkpt lat="48.54453" lon="-2.74802">
        <ele>97.1</ele>
        <time>2015-09-15T13:37:16Z</time>
      </trkpt>
      <trkpt lat="48.54464" lon="-2.74807">
        <ele>97.1</ele>
        <time>2015-09-15T13:37:18Z</time>
      </trkpt>
      <trkpt lat="48.54475" lon="-2.74813">
        <ele>97.1</ele>
        <time>2015-09-15T13:37:20Z</time>
      </trkpt>
      <trkpt lat="48.54485" lon="-2.74818">
        <ele>97.1</ele>
        <time>2015-09-15T13:37:22Z</time>
      </trkpt>
      <trkpt lat="48.54496" lon="-2.74823">
        <ele>97.1</ele>
        <time>2015-09-15T13:37:24Z</time>
      </trkpt>
      <trkpt lat="48.54506" lon="-2.74828">
        <ele>97.1</ele>
        <time>2015-09-15T13:37:26Z</time>
      </trkpt>
      <trkpt lat="48.54516" lon="-2.74834">
        <ele>97.1</ele>
        <time>2015-09-15T13:37:28Z</time>
      </trkpt>
      <trkpt lat="48.54527" lon="-2.74839">
        <ele>97.1</ele>
        <time>2015-09-15T13:37:30Z</time>
      </trkpt>
      <trkpt lat="48.54537" lon="-2.74843">
        <ele>97</ele>
        <time>2015-09-15T13:37:32Z</time>
      </trkpt>
      <trkpt lat="48.54548" lon="-2.74848">
        <ele>97</ele>
        <time>2015-09-15T13:37:34Z</time>
      </trkpt>
      <trkpt lat="48.54559" lon="-2.74852">
        <ele>97</ele>
        <time>2015-09-15T13:37:36Z</time>
      </trkpt>
      <trkpt lat="48.54571" lon="-2.74856">
        <ele>97</ele>
        <time>2015-09-15T13:37:38Z</time>
      </trkpt>
      <trkpt lat="48.54582" lon="-2.74859">
        <ele>97</ele>
        <time>2015-09-15T13:37:40Z</time>
      </trkpt>
      <trkpt lat="48.54594" lon="-2.74861">
        <ele>97</ele>
        <time>2015-09-15T13:37:42Z</time>
      </trkpt>
      <trkpt lat="48.54605" lon="-2.74862">
        <ele>96.9</ele>
        <time>2015-09-15T13:37:44Z</time>
      </trkpt>
      <trkpt lat="48.54617" lon="-2.74862">
        <ele>96.9</ele>
        <time>2015-09-15T13:37:46Z</time>
      </trkpt>
      <trkpt lat="48.5463" lon="-2.74863">
        <ele>96.8</ele>
        <time>2015-09-15T13:37:48Z</time>
      </trkpt>
      <trkpt lat="48.54642" lon="-2.74864">
        <ele>96.7</ele>
        <time>2015-09-15T13:37:50Z</time>
      </trkpt>
      <trkpt lat="48.54655" lon="-2.74865">
        <ele>96.5</ele>
        <time>2015-09-15T13:37:52Z</time>
      </trkpt>
      <trkpt lat="48.54667" lon="-2.74867">
        <ele>96.3</ele>
        <time>2015-09-15T13:37:54Z</time>
      </trkpt>
      <trkpt lat="48.54679" lon="-2.74868">
        <ele>96.1</ele>
        <time>2015-09-15T13:37:56Z</time>
      </trkpt>
      <trkpt lat="48.54692" lon="-2.74871">
        <ele>95.8</ele>
        <time>2015-09-15T13:37:58Z</time>
      </trkpt>
      <trkpt lat="48.54704" lon="-2.74874">
        <ele>95.6</ele>
        <time>2015-09-15T13:38:00Z</time>
      </trkpt>
      <trkpt lat="48.54717" lon="-2.74877">
        <ele>95.4</ele>
        <time>2015-09-15T13:38:02Z</time>
      </trkpt>
      <trkpt lat="48.54729" lon="-2.74881">
        <ele>95.2</ele>
        <time>2015-09-15T13:38:04Z</time>
      </trkpt>
      <trkpt lat="48.54742" lon="-2.74887">
        <ele>94.9</ele>
        <time>2015-09-15T13:38:06Z</time>
      </trkpt>
      <trkpt lat="48.54755" lon="-2.74894">
        <ele>94.6</ele>
        <time>2015-09-15T13:38:08Z</time>
      </trkpt>
      <trkpt lat="48.54767" lon="-2.74901">
        <ele>94.2</ele>
        <time>2015-09-15T13:38:10Z</time>
      </trkpt>
      <trkpt lat="48.54781" lon="-2.74906">
        <ele>93.8</ele>
        <time>2015-09-15T13:38:12Z</time>
      </trkpt>
      <trkpt lat="48.54794" lon="-2.7491">
        <ele>93.3</ele>
        <time>2015-09-15T13:38:14Z</time>
      </trkpt>
      <trkpt lat="48.54803" lon="-2.74919">
        <ele>92.6</ele>
        <time>2015-09-15T13:38:17Z</time>
      </trkpt>
      <trkpt lat="48.54801" lon="-2.74935">
        <ele>91.7</ele>
        <time>2015-09-15T13:38:21Z</time>
      </trkpt>
      <trkpt lat="48.54795" lon="-2.74947">
        <ele>91</ele>
        <time>2015-09-15T13:38:25Z</time>
      </trkpt>
      <trkpt lat="48.54786" lon="-2.74959">
        <ele>90.5</ele>
        <time>2015-09-15T13:38:29Z</time>
      </trkpt>
      <trkpt lat="48.54779" lon="-2.74968">
        <ele>90.3</ele>
        <time>2015-09-15T13:38:32Z</time>
      </trkpt>
      <trkpt lat="48.54772" lon="-2.74977">
        <ele>90.3</ele>
        <time>2015-09-15T13:38:35Z</time>
      </trkpt>
      <trkpt lat="48.54765" lon="-2.74986">
        <ele>90.4</ele>
        <time>2015-09-15T13:38:38Z</time>
      </trkpt>
      <trkpt lat="48.54759" lon="-2.74997">
        <ele>90.5</ele>
        <time>2015-09-15T13:38:41Z</time>
      </trkpt>
      <trkpt lat="48.54752" lon="-2.75007">
        <ele>90.7</ele>
        <time>2015-09-15T13:38:44Z</time>
      </trkpt>
      <trkpt lat="48.54744" lon="-2.75017">
        <ele>90.9</ele>
        <time>2015-09-15T13:38:47Z</time>
      </trkpt>
      <trkpt lat="48.54737" lon="-2.75028">
        <ele>91.2</ele>
        <time>2015-09-15T13:38:50Z</time>
      </trkpt>
      <trkpt lat="48.5473" lon="-2.7504">
        <ele>91.4</ele>
        <time>2015-09-15T13:38:53Z</time>
      </trkpt>
      <trkpt lat="48.54723" lon="-2.75052">
        <ele>91.7</ele>
        <time>2015-09-15T13:38:56Z</time>
      </trkpt>
      <trkpt lat="48.54717" lon="-2.75067">
        <ele>91.9</ele>
        <time>2015-09-15T13:38:59Z</time>
      </trkpt>
      <trkpt lat="48.54712" lon="-2.75082">
        <ele>92.1</ele>
        <time>2015-09-15T13:39:02Z</time>
      </trkpt>
      <trkpt lat="48.54707" lon="-2.75098">
        <ele>92.3</ele>
        <time>2015-09-15T13:39:05Z</time>
      </trkpt>
      <trkpt lat="48.54703" lon="-2.75114">
        <ele>92.5</ele>
        <time>2015-09-15T13:39:08Z</time>
      </trkpt>
      <trkpt lat="48.54698" lon="-2.75131">
        <ele>92.6</ele>
        <time>2015-09-15T13:39:11Z</time>
      </trkpt>
      <trkpt lat="48.54692" lon="-2.75146">
        <ele>92.7</ele>
        <time>2015-09-15T13:39:14Z</time>
      </trkpt>
      <trkpt lat="48.54686" lon="-2.7516">
        <ele>92.9</ele>
        <time>2015-09-15T13:39:17Z</time>
      </trkpt>
      <trkpt lat="48.54678" lon="-2.75174">
        <ele>93.1</ele>
        <time>2015-09-15T13:39:20Z</time>
      </trkpt>
      <trkpt lat="48.54669" lon="-2.75186">
        <ele>93.3</ele>
        <time>2015-09-15T13:39:23Z</time>
      </trkpt>
      <trkpt lat="48.54659" lon="-2.75195">
        <ele>93.5</ele>
        <time>2015-09-15T13:39:26Z</time>
      </trkpt>
      <trkpt lat="48.54649" lon="-2.75203">
        <ele>93.6</ele>
        <time>2015-09-15T13:39:29Z</time>
      </trkpt>
      <trkpt lat="48.54638" lon="-2.75209">
        <ele>93.8</ele>
        <time>2015-09-15T13:39:32Z</time>
      </trkpt>
      <trkpt lat="48.54627" lon="-2.75216">
        <ele>93.9</ele>
        <time>2015-09-15T13:39:35Z</time>
      </trkpt>
      <trkpt lat="48.54615" lon="-2.75223">
        <ele>94</ele>
        <time>2015-09-15T13:39:38Z</time>
      </trkpt>
      <trkpt lat="48.54603" lon="-2.75232">
        <ele>94.3</ele>
        <time>2015-09-15T13:39:41Z</time>
      </trkpt>
      <trkpt lat="48.54592" lon="-2.75242">
        <ele>94.5</ele>
        <time>2015-09-15T13:39:44Z</time>
      </trkpt>
      <trkpt lat="48.54581" lon="-2.75253">
        <ele>94.7</ele>
        <time>2015-09-15T13:39:47Z</time>
      </trkpt>
      <trkpt lat="48.54571" lon="-2.75265">
        <ele>94.8</ele>
        <time>2015-09-15T13:39:50Z</time>
      </trkpt>
      <trkpt lat="48.54561" lon="-2.75278">
        <ele>94.9</ele>
        <time>2015-09-15T13:39:53Z</time>
      </trkpt>
      <trkpt lat="48.54551" lon="-2.75291">
        <ele>95</ele>
        <time>2015-09-15T13:39:56Z</time>
      </trkpt>
      <trkpt lat="48.54542" lon="-2.75305">
        <ele>95.1</ele>
        <time>2015-09-15T13:39:59Z</time>
      </trkpt>
      <trkpt lat="48.54535" lon="-2.75315">
        <ele>95.2</ele>
        <time>2015-09-15T13:40:01Z</time>
      </trkpt>
      <trkpt lat="48.54528" lon="-2.75325">
        <ele>95.2</ele>
        <time>2015-09-15T13:40:03Z</time>
      </trkpt>
      <trkpt lat="48.54521" lon="-2.75335">
        <ele>95.2</ele>
        <time>2015-09-15T13:40:05Z</time>
      </trkpt>
      <trkpt lat="48.54514" lon="-2.75345">
        <ele>95.3</ele>
        <time>2015-09-15T13:40:07Z</time>
      </trkpt>
      <trkpt lat="48.54507" lon="-2.75354">
        <ele>95.3</ele>
        <time>2015-09-15T13:40:09Z</time>
      </trkpt>
      <trkpt lat="48.545" lon="-2.75363">
        <ele>95.3</ele>
        <time>2015-09-15T13:40:11Z</time>
      </trkpt>
      <trkpt lat="48.54492" lon="-2.75373">
        <ele>95.3</ele>
        <time>2015-09-15T13:40:13Z</time>
      </trkpt>
      <trkpt lat="48.54485" lon="-2.75382">
        <ele>95.3</ele>
        <time>2015-09-15T13:40:15Z</time>
      </trkpt>
      <trkpt lat="48.54478" lon="-2.7539">
        <ele>95.2</ele>
        <time>2015-09-15T13:40:17Z</time>
      </trkpt>
      <trkpt lat="48.54467" lon="-2.75402">
        <ele>95.2</ele>
        <time>2015-09-15T13:40:20Z</time>
      </trkpt>
      <trkpt lat="48.54456" lon="-2.75414">
        <ele>95.2</ele>
        <time>2015-09-15T13:40:23Z</time>
      </trkpt>
      <trkpt lat="48.54446" lon="-2.75424">
        <ele>95.2</ele>
        <time>2015-09-15T13:40:26Z</time>
      </trkpt>
      <trkpt lat="48.54435" lon="-2.75435">
        <ele>95.2</ele>
        <time>2015-09-15T13:40:29Z</time>
      </trkpt>
      <trkpt lat="48.54424" lon="-2.75445">
        <ele>95.2</ele>
        <time>2015-09-15T13:40:32Z</time>
      </trkpt>
      <trkpt lat="48.54413" lon="-2.75455">
        <ele>95.2</ele>
        <time>2015-09-15T13:40:35Z</time>
      </trkpt>
      <trkpt lat="48.54405" lon="-2.75462">
        <ele>95.2</ele>
        <time>2015-09-15T13:40:37Z</time>
      </trkpt>
      <trkpt lat="48.54397" lon="-2.75469">
        <ele>95.2</ele>
        <time>2015-09-15T13:40:39Z</time>
      </trkpt>
      <trkpt lat="48.54388" lon="-2.75477">
        <ele>95.2</ele>
        <time>2015-09-15T13:40:41Z</time>
      </trkpt>
      <trkpt lat="48.54379" lon="-2.75485">
        <ele>95.2</ele>
        <time>2015-09-15T13:40:43Z</time>
      </trkpt>
      <trkpt lat="48.54369" lon="-2.75494">
        <ele>95.2</ele>
        <time>2015-09-15T13:40:45Z</time>
      </trkpt>
      <trkpt lat="48.5436" lon="-2.75503">
        <ele>95.2</ele>
        <time>2015-09-15T13:40:47Z</time>
      </trkpt>
      <trkpt lat="48.54351" lon="-2.75511">
        <ele>95.2</ele>
        <time>2015-09-15T13:40:49Z</time>
      </trkpt>
      <trkpt lat="48.54343" lon="-2.75518">
        <ele>95.2</ele>
        <time>2015-09-15T13:40:51Z</time>
      </trkpt>
      <trkpt lat="48.54335" lon="-2.75525">
        <ele>95.2</ele>
        <time>2015-09-15T13:40:53Z</time>
      </trkpt>
      <trkpt lat="48.54327" lon="-2.75532">
        <ele>95.2</ele>
        <time>2015-09-15T13:40:55Z</time>
      </trkpt>
      <trkpt lat="48.54315" lon="-2.75543">
        <ele>95.2</ele>
        <time>2015-09-15T13:40:58Z</time>
      </trkpt>
      <trkpt lat="48.54307" lon="-2.7555">
        <ele>95.2</ele>
        <time>2015-09-15T13:41:00Z</time>
      </trkpt>
      <trkpt lat="48.54299" lon="-2.75557">
        <ele>95.2</ele>
        <time>2015-09-15T13:41:02Z</time>
      </trkpt>
      <trkpt lat="48.54291" lon="-2.75564">
        <ele>95.2</ele>
        <time>2015-09-15T13:41:04Z</time>
      </trkpt>
      <trkpt lat="48.5428" lon="-2.75575">
        <ele>95.2</ele>
        <time>2015-09-15T13:41:07Z</time>
      </trkpt>
      <trkpt lat="48.54272" lon="-2.75582">
        <ele>95.2</ele>
        <time>2015-09-15T13:41:09Z</time>
      </trkpt>
      <trkpt lat="48.54264" lon="-2.75589">
        <ele>95.2</ele>
        <time>2015-09-15T13:41:11Z</time>
      </trkpt>
      <trkpt lat="48.54256" lon="-2.75595">
        <ele>95.2</ele>
        <time>2015-09-15T13:41:13Z</time>
      </trkpt>
      <trkpt lat="48.54247" lon="-2.75601">
        <ele>95.3</ele>
        <time>2015-09-15T13:41:15Z</time>
      </trkpt>
      <trkpt lat="48.54238" lon="-2.75606">
        <ele>95.4</ele>
        <time>2015-09-15T13:41:17Z</time>
      </trkpt>
      <trkpt lat="48.54229" lon="-2.75609">
        <ele>95.5</ele>
        <time>2015-09-15T13:41:19Z</time>
      </trkpt>
      <trkpt lat="48.5422" lon="-2.75612">
        <ele>95.6</ele>
        <time>2015-09-15T13:41:21Z</time>
      </trkpt>
      <trkpt lat="48.54211" lon="-2.75616">
        <ele>95.7</ele>
        <time>2015-09-15T13:41:23Z</time>
      </trkpt>
      <trkpt lat="48.54203" lon="-2.7562">
        <ele>95.9</ele>
        <time>2015-09-15T13:41:25Z</time>
      </trkpt>
      <trkpt lat="48.54194" lon="-2.75624">
        <ele>96</ele>
        <time>2015-09-15T13:41:27Z</time>
      </trkpt>
      <trkpt lat="48.54185" lon="-2.7563">
        <ele>96.2</ele>
        <time>2015-09-15T13:41:29Z</time>
      </trkpt>
      <trkpt lat="48.54177" lon="-2.75635">
        <ele>96.4</ele>
        <time>2015-09-15T13:41:31Z</time>
      </trkpt>
      <trkpt lat="48.54168" lon="-2.75639">
        <ele>96.5</ele>
        <time>2015-09-15T13:41:33Z</time>
      </trkpt>
      <trkpt lat="48.54155" lon="-2.75645">
        <ele>96.8</ele>
        <time>2015-09-15T13:41:36Z</time>
      </trkpt>
      <trkpt lat="48.54143" lon="-2.7565">
        <ele>97.1</ele>
        <time>2015-09-15T13:41:39Z</time>
      </trkpt>
      <trkpt lat="48.5413" lon="-2.75655">
        <ele>97.4</ele>
        <time>2015-09-15T13:41:42Z</time>
      </trkpt>
      <trkpt lat="48.54117" lon="-2.7566">
        <ele>97.6</ele>
        <time>2015-09-15T13:41:45Z</time>
      </trkpt>
      <trkpt lat="48.54106" lon="-2.75663">
        <ele>97.9</ele>
        <time>2015-09-15T13:41:48Z</time>
      </trkpt>
      <trkpt lat="48.54095" lon="-2.75665">
        <ele>98.3</ele>
        <time>2015-09-15T13:41:51Z</time>
      </trkpt>
      <trkpt lat="48.54084" lon="-2.75666">
        <ele>98.6</ele>
        <time>2015-09-15T13:41:54Z</time>
      </trkpt>
      <trkpt lat="48.54074" lon="-2.75667">
        <ele>98.9</ele>
        <time>2015-09-15T13:41:57Z</time>
      </trkpt>
      <trkpt lat="48.54063" lon="-2.75669">
        <ele>99.3</ele>
        <time>2015-09-15T13:42:00Z</time>
      </trkpt>
      <trkpt lat="48.54052" lon="-2.7567">
        <ele>99.7</ele>
        <time>2015-09-15T13:42:03Z</time>
      </trkpt>
      <trkpt lat="48.5404" lon="-2.75673">
        <ele>100</ele>
        <time>2015-09-15T13:42:06Z</time>
      </trkpt>
      <trkpt lat="48.54029" lon="-2.75678">
        <ele>100.3</ele>
        <time>2015-09-15T13:42:09Z</time>
      </trkpt>
      <trkpt lat="48.54019" lon="-2.75686">
        <ele>100.6</ele>
        <time>2015-09-15T13:42:12Z</time>
      </trkpt>
      <trkpt lat="48.5401" lon="-2.75696">
        <ele>100.9</ele>
        <time>2015-09-15T13:42:15Z</time>
      </trkpt>
      <trkpt lat="48.54003" lon="-2.75707">
        <ele>101.2</ele>
        <time>2015-09-15T13:42:18Z</time>
      </trkpt>
      <trkpt lat="48.53997" lon="-2.7572">
        <ele>101.5</ele>
        <time>2015-09-15T13:42:21Z</time>
      </trkpt>
      <trkpt lat="48.53992" lon="-2.75733">
        <ele>101.8</ele>
        <time>2015-09-15T13:42:24Z</time>
      </trkpt>
      <trkpt lat="48.53987" lon="-2.75747">
        <ele>102.1</ele>
        <time>2015-09-15T13:42:27Z</time>
      </trkpt>
      <trkpt lat="48.53982" lon="-2.75763">
        <ele>102.5</ele>
        <time>2015-09-15T13:42:31Z</time>
      </trkpt>
      <trkpt lat="48.53978" lon="-2.75776">
        <ele>102.7</ele>
        <time>2015-09-15T13:42:34Z</time>
      </trkpt>
      <trkpt lat="48.53973" lon="-2.75792">
        <ele>102.9</ele>
        <time>2015-09-15T13:42:37Z</time>
      </trkpt>
      <trkpt lat="48.53969" lon="-2.75807">
        <ele>103.1</ele>
        <time>2015-09-15T13:42:40Z</time>
      </trkpt>
      <trkpt lat="48.53964" lon="-2.75822">
        <ele>103.3</ele>
        <time>2015-09-15T13:42:43Z</time>
      </trkpt>
      <trkpt lat="48.5396" lon="-2.75838">
        <ele>103.6</ele>
        <time>2015-09-15T13:42:46Z</time>
      </trkpt>
      <trkpt lat="48.53961" lon="-2.75855">
        <ele>103.9</ele>
        <time>2015-09-15T13:42:49Z</time>
      </trkpt>
      <trkpt lat="48.53963" lon="-2.75871">
        <ele>104.1</ele>
        <time>2015-09-15T13:42:52Z</time>
      </trkpt>
      <trkpt lat="48.53964" lon="-2.75884">
        <ele>104.3</ele>
        <time>2015-09-15T13:42:55Z</time>
      </trkpt>
      <trkpt lat="48.53968" lon="-2.759">
        <ele>104.5</ele>
        <time>2015-09-15T13:42:58Z</time>
      </trkpt>
      <trkpt lat="48.53972" lon="-2.75915">
        <ele>104.7</ele>
        <time>2015-09-15T13:43:01Z</time>
      </trkpt>
      <trkpt lat="48.53975" lon="-2.75928">
        <ele>104.9</ele>
        <time>2015-09-15T13:43:03Z</time>
      </trkpt>
      <trkpt lat="48.53981" lon="-2.75944">
        <ele>105.1</ele>
        <time>2015-09-15T13:43:06Z</time>
      </trkpt>
      <trkpt lat="48.53986" lon="-2.7596">
        <ele>105.3</ele>
        <time>2015-09-15T13:43:09Z</time>
      </trkpt>
      <trkpt lat="48.53991" lon="-2.75974">
        <ele>105.5</ele>
        <time>2015-09-15T13:43:12Z</time>
      </trkpt>
      <trkpt lat="48.53992" lon="-2.75988">
        <ele>105.6</ele>
        <time>2015-09-15T13:43:14Z</time>
      </trkpt>
      <trkpt lat="48.53994" lon="-2.76004">
        <ele>105.7</ele>
        <time>2015-09-15T13:43:17Z</time>
      </trkpt>
      <trkpt lat="48.53995" lon="-2.76023">
        <ele>105.8</ele>
        <time>2015-09-15T13:43:20Z</time>
      </trkpt>
      <trkpt lat="48.53999" lon="-2.76042">
        <ele>106</ele>
        <time>2015-09-15T13:43:23Z</time>
      </trkpt>
      <trkpt lat="48.54004" lon="-2.76058">
        <ele>106.1</ele>
        <time>2015-09-15T13:43:26Z</time>
      </trkpt>
      <trkpt lat="48.5401" lon="-2.76072">
        <ele>106.2</ele>
        <time>2015-09-15T13:43:29Z</time>
      </trkpt>
      <trkpt lat="48.54018" lon="-2.76083">
        <ele>106.4</ele>
        <time>2015-09-15T13:43:32Z</time>
      </trkpt>
      <trkpt lat="48.54028" lon="-2.7609">
        <ele>106.4</ele>
        <time>2015-09-15T13:43:35Z</time>
      </trkpt>
      <trkpt lat="48.54037" lon="-2.761">
        <ele>106.5</ele>
        <time>2015-09-15T13:43:38Z</time>
      </trkpt>
      <trkpt lat="48.54046" lon="-2.7611">
        <ele>106.6</ele>
        <time>2015-09-15T13:43:41Z</time>
      </trkpt>
      <trkpt lat="48.54056" lon="-2.7612">
        <ele>106.7</ele>
        <time>2015-09-15T13:43:44Z</time>
      </trkpt>
      <trkpt lat="48.54066" lon="-2.76128">
        <ele>106.9</ele>
        <time>2015-09-15T13:43:47Z</time>
      </trkpt>
      <trkpt lat="48.54077" lon="-2.76136">
        <ele>107</ele>
        <time>2015-09-15T13:43:50Z</time>
      </trkpt>
      <trkpt lat="48.54087" lon="-2.76143">
        <ele>107.1</ele>
        <time>2015-09-15T13:43:53Z</time>
      </trkpt>
      <trkpt lat="48.54098" lon="-2.7615">
        <ele>107.2</ele>
        <time>2015-09-15T13:43:56Z</time>
      </trkpt>
      <trkpt lat="48.54109" lon="-2.76156">
        <ele>107.3</ele>
        <time>2015-09-15T13:43:59Z</time>
      </trkpt>
      <trkpt lat="48.5412" lon="-2.76165">
        <ele>107.3</ele>
        <time>2015-09-15T13:44:02Z</time>
      </trkpt>
      <trkpt lat="48.54127" lon="-2.76178">
        <ele>107.4</ele>
        <time>2015-09-15T13:44:05Z</time>
      </trkpt>
      <trkpt lat="48.54137" lon="-2.76188">
        <ele>107.5</ele>
        <time>2015-09-15T13:44:08Z</time>
      </trkpt>
      <trkpt lat="48.5415" lon="-2.76195">
        <ele>107.5</ele>
        <time>2015-09-15T13:44:11Z</time>
      </trkpt>
      <trkpt lat="48.54159" lon="-2.762">
        <ele>107.5</ele>
        <time>2015-09-15T13:44:13Z</time>
      </trkpt>
      <trkpt lat="48.54169" lon="-2.76203">
        <ele>107.6</ele>
        <time>2015-09-15T13:44:15Z</time>
      </trkpt>
      <trkpt lat="48.5418" lon="-2.76206">
        <ele>107.6</ele>
        <time>2015-09-15T13:44:17Z</time>
      </trkpt>
      <trkpt lat="48.54191" lon="-2.76207">
        <ele>107.6</ele>
        <time>2015-09-15T13:44:19Z</time>
      </trkpt>
      <trkpt lat="48.54203" lon="-2.7621">
        <ele>107.6</ele>
        <time>2015-09-15T13:44:21Z</time>
      </trkpt>
      <trkpt lat="48.54214" lon="-2.76212">
        <ele>107.6</ele>
        <time>2015-09-15T13:44:23Z</time>
      </trkpt>
      <trkpt lat="48.54225" lon="-2.76214">
        <ele>107.6</ele>
        <time>2015-09-15T13:44:25Z</time>
      </trkpt>
      <trkpt lat="48.54235" lon="-2.76217">
        <ele>107.5</ele>
        <time>2015-09-15T13:44:27Z</time>
      </trkpt>
      <trkpt lat="48.54244" lon="-2.7622">
        <ele>107.5</ele>
        <time>2015-09-15T13:44:29Z</time>
      </trkpt>
      <trkpt lat="48.5425" lon="-2.76237">
        <ele>107.4</ele>
        <time>2015-09-15T13:44:32Z</time>
      </trkpt>
      <trkpt lat="48.54248" lon="-2.76254">
        <ele>107.3</ele>
        <time>2015-09-15T13:44:35Z</time>
      </trkpt>
      <trkpt lat="48.54247" lon="-2.7627">
        <ele>107.2</ele>
        <time>2015-09-15T13:44:38Z</time>
      </trkpt>
      <trkpt lat="48.54245" lon="-2.76283">
        <ele>107.1</ele>
        <time>2015-09-15T13:44:41Z</time>
      </trkpt>
      <trkpt lat="48.54242" lon="-2.76299">
        <ele>107.1</ele>
        <time>2015-09-15T13:44:45Z</time>
      </trkpt>
      <trkpt lat="48.54251" lon="-2.76292">
        <ele>107</ele>
        <time>2015-09-15T13:44:54Z</time>
      </trkpt>
      <trkpt lat="48.54259" lon="-2.76298">
        <ele>106.9</ele>
        <time>2015-09-15T13:44:57Z</time>
      </trkpt>
      <trkpt lat="48.5427" lon="-2.76305">
        <ele>106.9</ele>
        <time>2015-09-15T13:45:00Z</time>
      </trkpt>
      <trkpt lat="48.5428" lon="-2.76312">
        <ele>106.9</ele>
        <time>2015-09-15T13:45:03Z</time>
      </trkpt>
      <trkpt lat="48.54288" lon="-2.7632">
        <ele>106.8</ele>
        <time>2015-09-15T13:45:06Z</time>
      </trkpt>
      <trkpt lat="48.54299" lon="-2.76332">
        <ele>106.6</ele>
        <time>2015-09-15T13:45:09Z</time>
      </trkpt>
      <trkpt lat="48.54308" lon="-2.76339">
        <ele>106.5</ele>
        <time>2015-09-15T13:45:11Z</time>
      </trkpt>
      <trkpt lat="48.5432" lon="-2.76347">
        <ele>106.3</ele>
        <time>2015-09-15T13:45:13Z</time>
      </trkpt>
      <trkpt lat="48.54338" lon="-2.76354">
        <ele>106</ele>
        <time>2015-09-15T13:45:15Z</time>
      </trkpt>
      <trkpt lat="48.54353" lon="-2.76362">
        <ele>105.7</ele>
        <time>2015-09-15T13:45:17Z</time>
      </trkpt>
      <trkpt lat="48.5436" lon="-2.76372">
        <ele>105.3</ele>
        <time>2015-09-15T13:45:19Z</time>
      </trkpt>
      <trkpt lat="48.54363" lon="-2.76388">
        <ele>105</ele>
        <time>2015-09-15T13:45:21Z</time>
      </trkpt>
      <trkpt lat="48.54367" lon="-2.76402">
        <ele>104.7</ele>
        <time>2015-09-15T13:45:23Z</time>
      </trkpt>
      <trkpt lat="48.54371" lon="-2.7642">
        <ele>104.3</ele>
        <time>2015-09-15T13:45:26Z</time>
      </trkpt>
      <trkpt lat="48.54377" lon="-2.76431">
        <ele>104</ele>
        <time>2015-09-15T13:45:28Z</time>
      </trkpt>
      <trkpt lat="48.54381" lon="-2.76443">
        <ele>103.8</ele>
        <time>2015-09-15T13:45:30Z</time>
      </trkpt>
      <trkpt lat="48.54384" lon="-2.76456">
        <ele>103.5</ele>
        <time>2015-09-15T13:45:32Z</time>
      </trkpt>
      <trkpt lat="48.54389" lon="-2.76473">
        <ele>103.1</ele>
        <time>2015-09-15T13:45:34Z</time>
      </trkpt>
      <trkpt lat="48.54388" lon="-2.7649">
        <ele>102.7</ele>
        <time>2015-09-15T13:45:36Z</time>
      </trkpt>
      <trkpt lat="48.54384" lon="-2.76506">
        <ele>102.4</ele>
        <time>2015-09-15T13:45:38Z</time>
      </trkpt>
      <trkpt lat="48.54379" lon="-2.76518">
        <ele>102.1</ele>
        <time>2015-09-15T13:45:40Z</time>
      </trkpt>
      <trkpt lat="48.54373" lon="-2.76532">
        <ele>101.9</ele>
        <time>2015-09-15T13:45:43Z</time>
      </trkpt>
      <trkpt lat="48.54367" lon="-2.76548">
        <ele>101.8</ele>
        <time>2015-09-15T13:45:46Z</time>
      </trkpt>
      <trkpt lat="48.54362" lon="-2.76561">
        <ele>102</ele>
        <time>2015-09-15T13:45:49Z</time>
      </trkpt>
      <trkpt lat="48.54357" lon="-2.76574">
        <ele>102.2</ele>
        <time>2015-09-15T13:45:52Z</time>
      </trkpt>
      <trkpt lat="48.5435" lon="-2.7659">
        <ele>102.5</ele>
        <time>2015-09-15T13:45:55Z</time>
      </trkpt>
      <trkpt lat="48.54343" lon="-2.76603">
        <ele>102.8</ele>
        <time>2015-09-15T13:45:57Z</time>
      </trkpt>
      <trkpt lat="48.54338" lon="-2.76614">
        <ele>103.1</ele>
        <time>2015-09-15T13:45:59Z</time>
      </trkpt>
      <trkpt lat="48.5433" lon="-2.76632">
        <ele>103.7</ele>
        <time>2015-09-15T13:46:02Z</time>
      </trkpt>
      <trkpt lat="48.54326" lon="-2.76644">
        <ele>104.1</ele>
        <time>2015-09-15T13:46:04Z</time>
      </trkpt>
      <trkpt lat="48.54322" lon="-2.76662">
        <ele>104.6</ele>
        <time>2015-09-15T13:46:07Z</time>
      </trkpt>
      <trkpt lat="48.54321" lon="-2.76679">
        <ele>105.2</ele>
        <time>2015-09-15T13:46:10Z</time>
      </trkpt>
      <trkpt lat="48.54319" lon="-2.76694">
        <ele>105.6</ele>
        <time>2015-09-15T13:46:12Z</time>
      </trkpt>
      <trkpt lat="48.54318" lon="-2.76708">
        <ele>106</ele>
        <time>2015-09-15T13:46:14Z</time>
      </trkpt>
      <trkpt lat="48.54317" lon="-2.76726">
        <ele>106.5</ele>
        <time>2015-09-15T13:46:17Z</time>
      </trkpt>
      <trkpt lat="48.54317" lon="-2.76745">
        <ele>107</ele>
        <time>2015-09-15T13:46:20Z</time>
      </trkpt>
      <trkpt lat="48.54317" lon="-2.76765">
        <ele>107.5</ele>
        <time>2015-09-15T13:46:23Z</time>
      </trkpt>
      <trkpt lat="48.54322" lon="-2.76784">
        <ele>107.8</ele>
        <time>2015-09-15T13:46:26Z</time>
      </trkpt>
      <trkpt lat="48.54329" lon="-2.768">
        <ele>108.1</ele>
        <time>2015-09-15T13:46:29Z</time>
      </trkpt>
      <trkpt lat="48.54337" lon="-2.76817">
        <ele>108.4</ele>
        <time>2015-09-15T13:46:32Z</time>
      </trkpt>
      <trkpt lat="48.54342" lon="-2.76828">
        <ele>108.5</ele>
        <time>2015-09-15T13:46:34Z</time>
      </trkpt>
      <trkpt lat="48.54348" lon="-2.7684">
        <ele>108.6</ele>
        <time>2015-09-15T13:46:36Z</time>
      </trkpt>
      <trkpt lat="48.54353" lon="-2.76851">
        <ele>108.8</ele>
        <time>2015-09-15T13:46:38Z</time>
      </trkpt>
      <trkpt lat="48.54359" lon="-2.76863">
        <ele>108.9</ele>
        <time>2015-09-15T13:46:40Z</time>
      </trkpt>
      <trkpt lat="48.54365" lon="-2.76874">
        <ele>108.9</ele>
        <time>2015-09-15T13:46:42Z</time>
      </trkpt>
      <trkpt lat="48.54371" lon="-2.76886">
        <ele>109</ele>
        <time>2015-09-15T13:46:44Z</time>
      </trkpt>
      <trkpt lat="48.54377" lon="-2.76898">
        <ele>109.1</ele>
        <time>2015-09-15T13:46:46Z</time>
      </trkpt>
      <trkpt lat="48.54382" lon="-2.76909">
        <ele>109.1</ele>
        <time>2015-09-15T13:46:48Z</time>
      </trkpt>
      <trkpt lat="48.54388" lon="-2.7692">
        <ele>109.1</ele>
        <time>2015-09-15T13:46:50Z</time>
      </trkpt>
      <trkpt lat="48.54393" lon="-2.76931">
        <ele>109.2</ele>
        <time>2015-09-15T13:46:52Z</time>
      </trkpt>
      <trkpt lat="48.54401" lon="-2.76947">
        <ele>109.2</ele>
        <time>2015-09-15T13:46:55Z</time>
      </trkpt>
      <trkpt lat="48.54409" lon="-2.76963">
        <ele>109.2</ele>
        <time>2015-09-15T13:46:58Z</time>
      </trkpt>
      <trkpt lat="48.54417" lon="-2.76979">
        <ele>109.3</ele>
        <time>2015-09-15T13:47:01Z</time>
      </trkpt>
      <trkpt lat="48.54424" lon="-2.76996">
        <ele>109.3</ele>
        <time>2015-09-15T13:47:04Z</time>
      </trkpt>
      <trkpt lat="48.54432" lon="-2.77012">
        <ele>109.3</ele>
        <time>2015-09-15T13:47:07Z</time>
      </trkpt>
      <trkpt lat="48.54437" lon="-2.77024">
        <ele>109.3</ele>
        <time>2015-09-15T13:47:09Z</time>
      </trkpt>
      <trkpt lat="48.54444" lon="-2.7704">
        <ele>109.3</ele>
        <time>2015-09-15T13:47:12Z</time>
      </trkpt>
      <trkpt lat="48.54451" lon="-2.77054">
        <ele>109.3</ele>
        <time>2015-09-15T13:47:15Z</time>
      </trkpt>
      <trkpt lat="48.54459" lon="-2.77071">
        <ele>109.3</ele>
        <time>2015-09-15T13:47:18Z</time>
      </trkpt>
      <trkpt lat="48.54464" lon="-2.77082">
        <ele>109.3</ele>
        <time>2015-09-15T13:47:20Z</time>
      </trkpt>
      <trkpt lat="48.54469" lon="-2.77093">
        <ele>109.3</ele>
        <time>2015-09-15T13:47:22Z</time>
      </trkpt>
      <trkpt lat="48.54477" lon="-2.7711">
        <ele>109.4</ele>
        <time>2015-09-15T13:47:25Z</time>
      </trkpt>
      <trkpt lat="48.54482" lon="-2.77122">
        <ele>109.4</ele>
        <time>2015-09-15T13:47:27Z</time>
      </trkpt>
      <trkpt lat="48.54488" lon="-2.77133">
        <ele>109.4</ele>
        <time>2015-09-15T13:47:29Z</time>
      </trkpt>
      <trkpt lat="48.54494" lon="-2.77144">
        <ele>109.5</ele>
        <time>2015-09-15T13:47:31Z</time>
      </trkpt>
      <trkpt lat="48.545" lon="-2.77155">
        <ele>109.6</ele>
        <time>2015-09-15T13:47:33Z</time>
      </trkpt>
      <trkpt lat="48.54506" lon="-2.77166">
        <ele>109.7</ele>
        <time>2015-09-15T13:47:35Z</time>
      </trkpt>
      <trkpt lat="48.54513" lon="-2.77177">
        <ele>109.8</ele>
        <time>2015-09-15T13:47:37Z</time>
      </trkpt>
      <trkpt lat="48.54519" lon="-2.77188">
        <ele>109.9</ele>
        <time>2015-09-15T13:47:39Z</time>
      </trkpt>
      <trkpt lat="48.54525" lon="-2.772">
        <ele>110</ele>
        <time>2015-09-15T13:47:41Z</time>
      </trkpt>
      <trkpt lat="48.54532" lon="-2.77211">
        <ele>110</ele>
        <time>2015-09-15T13:47:43Z</time>
      </trkpt>
      <trkpt lat="48.5454" lon="-2.77221">
        <ele>110.1</ele>
        <time>2015-09-15T13:47:45Z</time>
      </trkpt>
      <trkpt lat="48.54548" lon="-2.7723">
        <ele>110.2</ele>
        <time>2015-09-15T13:47:47Z</time>
      </trkpt>
      <trkpt lat="48.54557" lon="-2.77236">
        <ele>110.2</ele>
        <time>2015-09-15T13:47:49Z</time>
      </trkpt>
      <trkpt lat="48.54566" lon="-2.77241">
        <ele>110.2</ele>
        <time>2015-09-15T13:47:51Z</time>
      </trkpt>
      <trkpt lat="48.54578" lon="-2.77245">
        <ele>110.3</ele>
        <time>2015-09-15T13:47:53Z</time>
      </trkpt>
      <trkpt lat="48.54588" lon="-2.77248">
        <ele>110.3</ele>
        <time>2015-09-15T13:47:55Z</time>
      </trkpt>
      <trkpt lat="48.54598" lon="-2.77251">
        <ele>110.4</ele>
        <time>2015-09-15T13:47:57Z</time>
      </trkpt>
      <trkpt lat="48.54607" lon="-2.77253">
        <ele>110.4</ele>
        <time>2015-09-15T13:47:59Z</time>
      </trkpt>
      <trkpt lat="48.54617" lon="-2.77254">
        <ele>110.4</ele>
        <time>2015-09-15T13:48:01Z</time>
      </trkpt>
      <trkpt lat="48.54626" lon="-2.77258">
        <ele>110.5</ele>
        <time>2015-09-15T13:48:03Z</time>
      </trkpt>
      <trkpt lat="48.54635" lon="-2.77261">
        <ele>110.5</ele>
        <time>2015-09-15T13:48:05Z</time>
      </trkpt>
      <trkpt lat="48.54645" lon="-2.77262">
        <ele>110.5</ele>
        <time>2015-09-15T13:48:07Z</time>
      </trkpt>
      <trkpt lat="48.54655" lon="-2.77264">
        <ele>110.6</ele>
        <time>2015-09-15T13:48:09Z</time>
      </trkpt>
      <trkpt lat="48.54665" lon="-2.77266">
        <ele>110.6</ele>
        <time>2015-09-15T13:48:11Z</time>
      </trkpt>
      <trkpt lat="48.54675" lon="-2.77269">
        <ele>110.6</ele>
        <time>2015-09-15T13:48:13Z</time>
      </trkpt>
      <trkpt lat="48.54685" lon="-2.77272">
        <ele>110.7</ele>
        <time>2015-09-15T13:48:15Z</time>
      </trkpt>
      <trkpt lat="48.54694" lon="-2.77274">
        <ele>110.7</ele>
        <time>2015-09-15T13:48:17Z</time>
      </trkpt>
      <trkpt lat="48.54704" lon="-2.77276">
        <ele>110.8</ele>
        <time>2015-09-15T13:48:19Z</time>
      </trkpt>
      <trkpt lat="48.54714" lon="-2.77278">
        <ele>110.9</ele>
        <time>2015-09-15T13:48:21Z</time>
      </trkpt>
      <trkpt lat="48.54724" lon="-2.77279">
        <ele>111</ele>
        <time>2015-09-15T13:48:23Z</time>
      </trkpt>
      <trkpt lat="48.54734" lon="-2.7728">
        <ele>111.1</ele>
        <time>2015-09-15T13:48:25Z</time>
      </trkpt>
      <trkpt lat="48.54744" lon="-2.77282">
        <ele>111.2</ele>
        <time>2015-09-15T13:48:27Z</time>
      </trkpt>
      <trkpt lat="48.54754" lon="-2.77283">
        <ele>111.3</ele>
        <time>2015-09-15T13:48:29Z</time>
      </trkpt>
      <trkpt lat="48.54764" lon="-2.77285">
        <ele>111.4</ele>
        <time>2015-09-15T13:48:31Z</time>
      </trkpt>
      <trkpt lat="48.54774" lon="-2.77286">
        <ele>111.5</ele>
        <time>2015-09-15T13:48:33Z</time>
      </trkpt>
      <trkpt lat="48.54783" lon="-2.77288">
        <ele>111.6</ele>
        <time>2015-09-15T13:48:35Z</time>
      </trkpt>
      <trkpt lat="48.54793" lon="-2.77289">
        <ele>111.7</ele>
        <time>2015-09-15T13:48:37Z</time>
      </trkpt>
      <trkpt lat="48.54803" lon="-2.7729">
        <ele>111.8</ele>
        <time>2015-09-15T13:48:39Z</time>
      </trkpt>
      <trkpt lat="48.54812" lon="-2.77291">
        <ele>111.8</ele>
        <time>2015-09-15T13:48:41Z</time>
      </trkpt>
      <trkpt lat="48.54822" lon="-2.77294">
        <ele>111.9</ele>
        <time>2015-09-15T13:48:43Z</time>
      </trkpt>
      <trkpt lat="48.5483" lon="-2.77297">
        <ele>112</ele>
        <time>2015-09-15T13:48:45Z</time>
      </trkpt>
      <trkpt lat="48.54844" lon="-2.77298">
        <ele>112.2</ele>
        <time>2015-09-15T13:48:48Z</time>
      </trkpt>
      <trkpt lat="48.54853" lon="-2.77298">
        <ele>112.3</ele>
        <time>2015-09-15T13:48:50Z</time>
      </trkpt>
      <trkpt lat="48.54863" lon="-2.77298">
        <ele>112.4</ele>
        <time>2015-09-15T13:48:52Z</time>
      </trkpt>
      <trkpt lat="48.54873" lon="-2.77297">
        <ele>112.5</ele>
        <time>2015-09-15T13:48:54Z</time>
      </trkpt>
      <trkpt lat="48.54882" lon="-2.77296">
        <ele>112.6</ele>
        <time>2015-09-15T13:48:56Z</time>
      </trkpt>
      <trkpt lat="48.54895" lon="-2.77293">
        <ele>112.8</ele>
        <time>2015-09-15T13:48:59Z</time>
      </trkpt>
      <trkpt lat="48.54906" lon="-2.77289">
        <ele>112.9</ele>
        <time>2015-09-15T13:49:02Z</time>
      </trkpt>
      <trkpt lat="48.54914" lon="-2.77295">
        <ele>113</ele>
        <time>2015-09-15T13:49:05Z</time>
      </trkpt>
      <trkpt lat="48.5491" lon="-2.77313">
        <ele>113.1</ele>
        <time>2015-09-15T13:49:08Z</time>
      </trkpt>
      <trkpt lat="48.54903" lon="-2.7733">
        <ele>113.3</ele>
        <time>2015-09-15T13:49:11Z</time>
      </trkpt>
      <trkpt lat="48.54896" lon="-2.77346">
        <ele>113.4</ele>
        <time>2015-09-15T13:49:14Z</time>
      </trkpt>
      <trkpt lat="48.5489" lon="-2.77357">
        <ele>113.6</ele>
        <time>2015-09-15T13:49:16Z</time>
      </trkpt>
      <trkpt lat="48.54883" lon="-2.77375">
        <ele>113.8</ele>
        <time>2015-09-15T13:49:19Z</time>
      </trkpt>
      <trkpt lat="48.54876" lon="-2.77391">
        <ele>114.1</ele>
        <time>2015-09-15T13:49:22Z</time>
      </trkpt>
      <trkpt lat="48.5487" lon="-2.77407">
        <ele>114.4</ele>
        <time>2015-09-15T13:49:25Z</time>
      </trkpt>
      <trkpt lat="48.54862" lon="-2.77424">
        <ele>114.7</ele>
        <time>2015-09-15T13:49:28Z</time>
      </trkpt>
      <trkpt lat="48.54855" lon="-2.7744">
        <ele>115</ele>
        <time>2015-09-15T13:49:31Z</time>
      </trkpt>
      <trkpt lat="48.54847" lon="-2.77456">
        <ele>115.4</ele>
        <time>2015-09-15T13:49:34Z</time>
      </trkpt>
      <trkpt lat="48.54839" lon="-2.77473">
        <ele>115.6</ele>
        <time>2015-09-15T13:49:37Z</time>
      </trkpt>
      <trkpt lat="48.54832" lon="-2.7749">
        <ele>115.9</ele>
        <time>2015-09-15T13:49:40Z</time>
      </trkpt>
      <trkpt lat="48.54825" lon="-2.77507">
        <ele>116.2</ele>
        <time>2015-09-15T13:49:43Z</time>
      </trkpt>
      <trkpt lat="48.54819" lon="-2.77524">
        <ele>116.4</ele>
        <time>2015-09-15T13:49:46Z</time>
      </trkpt>
      <trkpt lat="48.54812" lon="-2.77541">
        <ele>116.6</ele>
        <time>2015-09-15T13:49:49Z</time>
      </trkpt>
      <trkpt lat="48.54804" lon="-2.77557">
        <ele>116.8</ele>
        <time>2015-09-15T13:49:52Z</time>
      </trkpt>
      <trkpt lat="48.54799" lon="-2.77568">
        <ele>117</ele>
        <time>2015-09-15T13:49:54Z</time>
      </trkpt>
      <trkpt lat="48.5479" lon="-2.77583">
        <ele>117.1</ele>
        <time>2015-09-15T13:49:57Z</time>
      </trkpt>
      <trkpt lat="48.5478" lon="-2.77596">
        <ele>117.3</ele>
        <time>2015-09-15T13:50:00Z</time>
      </trkpt>
      <trkpt lat="48.54769" lon="-2.77609">
        <ele>117.4</ele>
        <time>2015-09-15T13:50:03Z</time>
      </trkpt>
      <trkpt lat="48.54763" lon="-2.77618">
        <ele>117.6</ele>
        <time>2015-09-15T13:50:05Z</time>
      </trkpt>
      <trkpt lat="48.54756" lon="-2.77627">
        <ele>117.7</ele>
        <time>2015-09-15T13:50:07Z</time>
      </trkpt>
      <trkpt lat="48.54747" lon="-2.77642">
        <ele>117.8</ele>
        <time>2015-09-15T13:50:10Z</time>
      </trkpt>
      <trkpt lat="48.54738" lon="-2.77657">
        <ele>118.1</ele>
        <time>2015-09-15T13:50:13Z</time>
      </trkpt>
      <trkpt lat="48.54732" lon="-2.77668">
        <ele>118.2</ele>
        <time>2015-09-15T13:50:15Z</time>
      </trkpt>
      <trkpt lat="48.54726" lon="-2.77679">
        <ele>118.3</ele>
        <time>2015-09-15T13:50:17Z</time>
      </trkpt>
      <trkpt lat="48.5472" lon="-2.7769">
        <ele>118.4</ele>
        <time>2015-09-15T13:50:19Z</time>
      </trkpt>
      <trkpt lat="48.54714" lon="-2.77701">
        <ele>118.5</ele>
        <time>2015-09-15T13:50:21Z</time>
      </trkpt>
      <trkpt lat="48.54708" lon="-2.77711">
        <ele>118.6</ele>
        <time>2015-09-15T13:50:23Z</time>
      </trkpt>
      <trkpt lat="48.54703" lon="-2.77722">
        <ele>118.7</ele>
        <time>2015-09-15T13:50:25Z</time>
      </trkpt>
      <trkpt lat="48.54697" lon="-2.77733">
        <ele>118.8</ele>
        <time>2015-09-15T13:50:27Z</time>
      </trkpt>
      <trkpt lat="48.54691" lon="-2.77744">
        <ele>118.9</ele>
        <time>2015-09-15T13:50:29Z</time>
      </trkpt>
      <trkpt lat="48.54685" lon="-2.77755">
        <ele>119</ele>
        <time>2015-09-15T13:50:31Z</time>
      </trkpt>
      <trkpt lat="48.54679" lon="-2.77766">
        <ele>119.1</ele>
        <time>2015-09-15T13:50:33Z</time>
      </trkpt>
      <trkpt lat="48.54675" lon="-2.77779">
        <ele>119.2</ele>
        <time>2015-09-15T13:50:35Z</time>
      </trkpt>
      <trkpt lat="48.54682" lon="-2.77796">
        <ele>119.3</ele>
        <time>2015-09-15T13:50:38Z</time>
      </trkpt>
      <trkpt lat="48.54692" lon="-2.77807">
        <ele>119.4</ele>
        <time>2015-09-15T13:50:41Z</time>
      </trkpt>
      <trkpt lat="48.54702" lon="-2.77818">
        <ele>119.5</ele>
        <time>2015-09-15T13:50:44Z</time>
      </trkpt>
      <trkpt lat="48.54713" lon="-2.77829">
        <ele>119.7</ele>
        <time>2015-09-15T13:50:47Z</time>
      </trkpt>
      <trkpt lat="48.54721" lon="-2.77837">
        <ele>119.8</ele>
        <time>2015-09-15T13:50:49Z</time>
      </trkpt>
      <trkpt lat="48.54728" lon="-2.77845">
        <ele>119.9</ele>
        <time>2015-09-15T13:50:51Z</time>
      </trkpt>
      <trkpt lat="48.54736" lon="-2.77854">
        <ele>120</ele>
        <time>2015-09-15T13:50:53Z</time>
      </trkpt>
      <trkpt lat="48.54743" lon="-2.77862">
        <ele>120.1</ele>
        <time>2015-09-15T13:50:55Z</time>
      </trkpt>
      <trkpt lat="48.5475" lon="-2.77871">
        <ele>120.1</ele>
        <time>2015-09-15T13:50:57Z</time>
      </trkpt>
      <trkpt lat="48.54757" lon="-2.7788">
        <ele>120.2</ele>
        <time>2015-09-15T13:50:59Z</time>
      </trkpt>
      <trkpt lat="48.54764" lon="-2.7789">
        <ele>120.3</ele>
        <time>2015-09-15T13:51:01Z</time>
      </trkpt>
      <trkpt lat="48.54771" lon="-2.779">
        <ele>120.4</ele>
        <time>2015-09-15T13:51:03Z</time>
      </trkpt>
      <trkpt lat="48.54778" lon="-2.77911">
        <ele>120.5</ele>
        <time>2015-09-15T13:51:05Z</time>
      </trkpt>
      <trkpt lat="48.54784" lon="-2.77922">
        <ele>120.6</ele>
        <time>2015-09-15T13:51:07Z</time>
      </trkpt>
      <trkpt lat="48.54792" lon="-2.77933">
        <ele>120.6</ele>
        <time>2015-09-15T13:51:09Z</time>
      </trkpt>
      <trkpt lat="48.54799" lon="-2.77943">
        <ele>120.7</ele>
        <time>2015-09-15T13:51:11Z</time>
      </trkpt>
      <trkpt lat="48.54806" lon="-2.77954">
        <ele>120.7</ele>
        <time>2015-09-15T13:51:13Z</time>
      </trkpt>
      <trkpt lat="48.54813" lon="-2.77967">
        <ele>120.8</ele>
        <time>2015-09-15T13:51:15Z</time>
      </trkpt>
      <trkpt lat="48.54816" lon="-2.77983">
        <ele>120.8</ele>
        <time>2015-09-15T13:51:17Z</time>
      </trkpt>
      <trkpt lat="48.54812" lon="-2.77998">
        <ele>120.8</ele>
        <time>2015-09-15T13:51:19Z</time>
      </trkpt>
      <trkpt lat="48.54806" lon="-2.7801">
        <ele>120.8</ele>
        <time>2015-09-15T13:51:21Z</time>
      </trkpt>
      <trkpt lat="48.54799" lon="-2.78021">
        <ele>120.8</ele>
        <time>2015-09-15T13:51:23Z</time>
      </trkpt>
      <trkpt lat="48.54793" lon="-2.78033">
        <ele>120.8</ele>
        <time>2015-09-15T13:51:25Z</time>
      </trkpt>
      <trkpt lat="48.54787" lon="-2.78044">
        <ele>120.8</ele>
        <time>2015-09-15T13:51:27Z</time>
      </trkpt>
      <trkpt lat="48.54782" lon="-2.78056">
        <ele>120.8</ele>
        <time>2015-09-15T13:51:29Z</time>
      </trkpt>
      <trkpt lat="48.54776" lon="-2.78068">
        <ele>120.8</ele>
        <time>2015-09-15T13:51:31Z</time>
      </trkpt>
      <trkpt lat="48.54771" lon="-2.7808">
        <ele>120.9</ele>
        <time>2015-09-15T13:51:33Z</time>
      </trkpt>
      <trkpt lat="48.54766" lon="-2.78092">
        <ele>120.9</ele>
        <time>2015-09-15T13:51:35Z</time>
      </trkpt>
      <trkpt lat="48.54762" lon="-2.78105">
        <ele>120.9</ele>
        <time>2015-09-15T13:51:37Z</time>
      </trkpt>
      <trkpt lat="48.54762" lon="-2.78119">
        <ele>120.9</ele>
        <time>2015-09-15T13:51:39Z</time>
      </trkpt>
      <trkpt lat="48.54761" lon="-2.78134">
        <ele>120.9</ele>
        <time>2015-09-15T13:51:41Z</time>
      </trkpt>
      <trkpt lat="48.54758" lon="-2.78147">
        <ele>120.9</ele>
        <time>2015-09-15T13:51:43Z</time>
      </trkpt>
      <trkpt lat="48.54755" lon="-2.78161">
        <ele>120.9</ele>
        <time>2015-09-15T13:51:45Z</time>
      </trkpt>
      <trkpt lat="48.54751" lon="-2.78174">
        <ele>120.9</ele>
        <time>2015-09-15T13:51:47Z</time>
      </trkpt>
      <trkpt lat="48.54747" lon="-2.78187">
        <ele>120.9</ele>
        <time>2015-09-15T13:51:49Z</time>
      </trkpt>
      <trkpt lat="48.54743" lon="-2.782">
        <ele>120.9</ele>
        <time>2015-09-15T13:51:51Z</time>
      </trkpt>
      <trkpt lat="48.5474" lon="-2.78214">
        <ele>120.9</ele>
        <time>2015-09-15T13:51:53Z</time>
      </trkpt>
      <trkpt lat="48.54735" lon="-2.78227">
        <ele>121</ele>
        <time>2015-09-15T13:51:55Z</time>
      </trkpt>
      <trkpt lat="48.5473" lon="-2.78245">
        <ele>121</ele>
        <time>2015-09-15T13:51:58Z</time>
      </trkpt>
      <trkpt lat="48.54725" lon="-2.78263">
        <ele>121</ele>
        <time>2015-09-15T13:52:01Z</time>
      </trkpt>
      <trkpt lat="48.5472" lon="-2.78282">
        <ele>121</ele>
        <time>2015-09-15T13:52:04Z</time>
      </trkpt>
      <trkpt lat="48.54715" lon="-2.78301">
        <ele>121.1</ele>
        <time>2015-09-15T13:52:07Z</time>
      </trkpt>
      <trkpt lat="48.54712" lon="-2.78314">
        <ele>121.1</ele>
        <time>2015-09-15T13:52:09Z</time>
      </trkpt>
      <trkpt lat="48.54708" lon="-2.78328">
        <ele>121.1</ele>
        <time>2015-09-15T13:52:11Z</time>
      </trkpt>
      <trkpt lat="48.54705" lon="-2.78341">
        <ele>121.2</ele>
        <time>2015-09-15T13:52:13Z</time>
      </trkpt>
      <trkpt lat="48.54702" lon="-2.78355">
        <ele>121.2</ele>
        <time>2015-09-15T13:52:15Z</time>
      </trkpt>
      <trkpt lat="48.547" lon="-2.78368">
        <ele>121.3</ele>
        <time>2015-09-15T13:52:17Z</time>
      </trkpt>
      <trkpt lat="48.54698" lon="-2.78382">
        <ele>121.3</ele>
        <time>2015-09-15T13:52:19Z</time>
      </trkpt>
      <trkpt lat="48.54698" lon="-2.78395">
        <ele>121.4</ele>
        <time>2015-09-15T13:52:21Z</time>
      </trkpt>
      <trkpt lat="48.54698" lon="-2.78415">
        <ele>121.6</ele>
        <time>2015-09-15T13:52:24Z</time>
      </trkpt>
      <trkpt lat="48.54699" lon="-2.78434">
        <ele>121.7</ele>
        <time>2015-09-15T13:52:27Z</time>
      </trkpt>
      <trkpt lat="48.54705" lon="-2.78451">
        <ele>121.9</ele>
        <time>2015-09-15T13:52:30Z</time>
      </trkpt>
      <trkpt lat="48.54714" lon="-2.78466">
        <ele>122</ele>
        <time>2015-09-15T13:52:33Z</time>
      </trkpt>
      <trkpt lat="48.5472" lon="-2.78477">
        <ele>122.1</ele>
        <time>2015-09-15T13:52:35Z</time>
      </trkpt>
      <trkpt lat="48.54726" lon="-2.78487">
        <ele>122.1</ele>
        <time>2015-09-15T13:52:37Z</time>
      </trkpt>
      <trkpt lat="48.54732" lon="-2.78497">
        <ele>122.2</ele>
        <time>2015-09-15T13:52:39Z</time>
      </trkpt>
      <trkpt lat="48.54741" lon="-2.78512">
        <ele>122.3</ele>
        <time>2015-09-15T13:52:42Z</time>
      </trkpt>
      <trkpt lat="48.54751" lon="-2.78526">
        <ele>122.5</ele>
        <time>2015-09-15T13:52:45Z</time>
      </trkpt>
      <trkpt lat="48.54757" lon="-2.78536">
        <ele>122.6</ele>
        <time>2015-09-15T13:52:47Z</time>
      </trkpt>
      <trkpt lat="48.54766" lon="-2.7855">
        <ele>122.7</ele>
        <time>2015-09-15T13:52:50Z</time>
      </trkpt>
      <trkpt lat="48.54773" lon="-2.7856">
        <ele>122.9</ele>
        <time>2015-09-15T13:52:52Z</time>
      </trkpt>
      <trkpt lat="48.54783" lon="-2.78574">
        <ele>123.1</ele>
        <time>2015-09-15T13:52:55Z</time>
      </trkpt>
      <trkpt lat="48.54789" lon="-2.78583">
        <ele>123.3</ele>
        <time>2015-09-15T13:52:57Z</time>
      </trkpt>
      <trkpt lat="48.54796" lon="-2.78593">
        <ele>123.5</ele>
        <time>2015-09-15T13:52:59Z</time>
      </trkpt>
      <trkpt lat="48.54803" lon="-2.78602">
        <ele>123.7</ele>
        <time>2015-09-15T13:53:01Z</time>
      </trkpt>
      <trkpt lat="48.54809" lon="-2.78611">
        <ele>123.9</ele>
        <time>2015-09-15T13:53:03Z</time>
      </trkpt>
      <trkpt lat="48.5482" lon="-2.78625">
        <ele>124.3</ele>
        <time>2015-09-15T13:53:06Z</time>
      </trkpt>
      <trkpt lat="48.54827" lon="-2.78635">
        <ele>124.6</ele>
        <time>2015-09-15T13:53:08Z</time>
      </trkpt>
      <trkpt lat="48.54834" lon="-2.78645">
        <ele>124.8</ele>
        <time>2015-09-15T13:53:10Z</time>
      </trkpt>
      <trkpt lat="48.54841" lon="-2.78655">
        <ele>125</ele>
        <time>2015-09-15T13:53:12Z</time>
      </trkpt>
      <trkpt lat="48.54847" lon="-2.78664">
        <ele>125.3</ele>
        <time>2015-09-15T13:53:14Z</time>
      </trkpt>
      <trkpt lat="48.54854" lon="-2.78673">
        <ele>125.6</ele>
        <time>2015-09-15T13:53:16Z</time>
      </trkpt>
      <trkpt lat="48.54861" lon="-2.78683">
        <ele>125.9</ele>
        <time>2015-09-15T13:53:18Z</time>
      </trkpt>
      <trkpt lat="48.54868" lon="-2.78692">
        <ele>126.1</ele>
        <time>2015-09-15T13:53:20Z</time>
      </trkpt>
      <trkpt lat="48.54875" lon="-2.78702">
        <ele>126.4</ele>
        <time>2015-09-15T13:53:22Z</time>
      </trkpt>
      <trkpt lat="48.54882" lon="-2.78711">
        <ele>126.7</ele>
        <time>2015-09-15T13:53:24Z</time>
      </trkpt>
      <trkpt lat="48.54889" lon="-2.78721">
        <ele>126.9</ele>
        <time>2015-09-15T13:53:26Z</time>
      </trkpt>
      <trkpt lat="48.54895" lon="-2.7873">
        <ele>127.2</ele>
        <time>2015-09-15T13:53:28Z</time>
      </trkpt>
      <trkpt lat="48.54902" lon="-2.78739">
        <ele>127.5</ele>
        <time>2015-09-15T13:53:30Z</time>
      </trkpt>
      <trkpt lat="48.54909" lon="-2.78749">
        <ele>127.8</ele>
        <time>2015-09-15T13:53:32Z</time>
      </trkpt>
      <trkpt lat="48.54916" lon="-2.78758">
        <ele>128.1</ele>
        <time>2015-09-15T13:53:34Z</time>
      </trkpt>
      <trkpt lat="48.54923" lon="-2.78768">
        <ele>128.3</ele>
        <time>2015-09-15T13:53:36Z</time>
      </trkpt>
      <trkpt lat="48.5493" lon="-2.78777">
        <ele>128.6</ele>
        <time>2015-09-15T13:53:38Z</time>
      </trkpt>
      <trkpt lat="48.54937" lon="-2.78787">
        <ele>128.8</ele>
        <time>2015-09-15T13:53:40Z</time>
      </trkpt>
      <trkpt lat="48.54944" lon="-2.78796">
        <ele>129.1</ele>
        <time>2015-09-15T13:53:42Z</time>
      </trkpt>
      <trkpt lat="48.54951" lon="-2.78806">
        <ele>129.3</ele>
        <time>2015-09-15T13:53:44Z</time>
      </trkpt>
      <trkpt lat="48.54957" lon="-2.78816">
        <ele>129.6</ele>
        <time>2015-09-15T13:53:46Z</time>
      </trkpt>
      <trkpt lat="48.54967" lon="-2.78829">
        <ele>130</ele>
        <time>2015-09-15T13:53:49Z</time>
      </trkpt>
      <trkpt lat="48.54977" lon="-2.78843">
        <ele>130.4</ele>
        <time>2015-09-15T13:53:52Z</time>
      </trkpt>
      <trkpt lat="48.54985" lon="-2.78858">
        <ele>130.8</ele>
        <time>2015-09-15T13:53:55Z</time>
      </trkpt>
      <trkpt lat="48.54987" lon="-2.78877">
        <ele>131.1</ele>
        <time>2015-09-15T13:53:58Z</time>
      </trkpt>
      <trkpt lat="48.54985" lon="-2.7889">
        <ele>131.3</ele>
        <time>2015-09-15T13:54:00Z</time>
      </trkpt>
      <trkpt lat="48.54982" lon="-2.78904">
        <ele>131.4</ele>
        <time>2015-09-15T13:54:02Z</time>
      </trkpt>
      <trkpt lat="48.5498" lon="-2.78917">
        <ele>131.6</ele>
        <time>2015-09-15T13:54:04Z</time>
      </trkpt>
      <trkpt lat="48.54977" lon="-2.7893">
        <ele>131.7</ele>
        <time>2015-09-15T13:54:06Z</time>
      </trkpt>
      <trkpt lat="48.54974" lon="-2.78943">
        <ele>131.8</ele>
        <time>2015-09-15T13:54:08Z</time>
      </trkpt>
      <trkpt lat="48.54973" lon="-2.78957">
        <ele>131.9</ele>
        <time>2015-09-15T13:54:10Z</time>
      </trkpt>
      <trkpt lat="48.54971" lon="-2.78971">
        <ele>132</ele>
        <time>2015-09-15T13:54:12Z</time>
      </trkpt>
      <trkpt lat="48.54968" lon="-2.78985">
        <ele>132.1</ele>
        <time>2015-09-15T13:54:14Z</time>
      </trkpt>
      <trkpt lat="48.54963" lon="-2.78998">
        <ele>132.2</ele>
        <time>2015-09-15T13:54:16Z</time>
      </trkpt>
      <trkpt lat="48.5496" lon="-2.79011">
        <ele>132.2</ele>
        <time>2015-09-15T13:54:18Z</time>
      </trkpt>
      <trkpt lat="48.54955" lon="-2.79023">
        <ele>132.3</ele>
        <time>2015-09-15T13:54:20Z</time>
      </trkpt>
      <trkpt lat="48.54949" lon="-2.79041">
        <ele>132.4</ele>
        <time>2015-09-15T13:54:23Z</time>
      </trkpt>
      <trkpt lat="48.54943" lon="-2.79058">
        <ele>132.4</ele>
        <time>2015-09-15T13:54:26Z</time>
      </trkpt>
      <trkpt lat="48.54938" lon="-2.7907">
        <ele>132.4</ele>
        <time>2015-09-15T13:54:28Z</time>
      </trkpt>
      <trkpt lat="48.54934" lon="-2.79088">
        <ele>132.5</ele>
        <time>2015-09-15T13:54:31Z</time>
      </trkpt>
      <trkpt lat="48.5493" lon="-2.79107">
        <ele>132.5</ele>
        <time>2015-09-15T13:54:34Z</time>
      </trkpt>
      <trkpt lat="48.54926" lon="-2.7912">
        <ele>132.6</ele>
        <time>2015-09-15T13:54:36Z</time>
      </trkpt>
      <trkpt lat="48.54923" lon="-2.79134">
        <ele>132.7</ele>
        <time>2015-09-15T13:54:38Z</time>
      </trkpt>
      <trkpt lat="48.54919" lon="-2.79148">
        <ele>132.7</ele>
        <time>2015-09-15T13:54:40Z</time>
      </trkpt>
      <trkpt lat="48.54916" lon="-2.79161">
        <ele>132.8</ele>
        <time>2015-09-15T13:54:42Z</time>
      </trkpt>
      <trkpt lat="48.54913" lon="-2.79174">
        <ele>132.8</ele>
        <time>2015-09-15T13:54:44Z</time>
      </trkpt>
      <trkpt lat="48.54909" lon="-2.79187">
        <ele>132.9</ele>
        <time>2015-09-15T13:54:46Z</time>
      </trkpt>
      <trkpt lat="48.54906" lon="-2.79201">
        <ele>132.9</ele>
        <time>2015-09-15T13:54:48Z</time>
      </trkpt>
      <trkpt lat="48.54903" lon="-2.79214">
        <ele>133</ele>
        <time>2015-09-15T13:54:50Z</time>
      </trkpt>
      <trkpt lat="48.54899" lon="-2.79228">
        <ele>133</ele>
        <time>2015-09-15T13:54:52Z</time>
      </trkpt>
      <trkpt lat="48.54895" lon="-2.79243">
        <ele>133</ele>
        <time>2015-09-15T13:54:54Z</time>
      </trkpt>
      <trkpt lat="48.54892" lon="-2.79256">
        <ele>133</ele>
        <time>2015-09-15T13:54:56Z</time>
      </trkpt>
      <trkpt lat="48.54888" lon="-2.79269">
        <ele>133</ele>
        <time>2015-09-15T13:54:58Z</time>
      </trkpt>
      <trkpt lat="48.54886" lon="-2.79282">
        <ele>133.1</ele>
        <time>2015-09-15T13:55:00Z</time>
      </trkpt>
      <trkpt lat="48.54883" lon="-2.79296">
        <ele>133.1</ele>
        <time>2015-09-15T13:55:02Z</time>
      </trkpt>
      <trkpt lat="48.54883" lon="-2.7931">
        <ele>133.1</ele>
        <time>2015-09-15T13:55:04Z</time>
      </trkpt>
      <trkpt lat="48.54883" lon="-2.79324">
        <ele>133.1</ele>
        <time>2015-09-15T13:55:06Z</time>
      </trkpt>
      <trkpt lat="48.54884" lon="-2.79337">
        <ele>133.1</ele>
        <time>2015-09-15T13:55:08Z</time>
      </trkpt>
      <trkpt lat="48.54884" lon="-2.79357">
        <ele>133.2</ele>
        <time>2015-09-15T13:55:11Z</time>
      </trkpt>
      <trkpt lat="48.54886" lon="-2.79375">
        <ele>133.2</ele>
        <time>2015-09-15T13:55:14Z</time>
      </trkpt>
      <trkpt lat="48.54884" lon="-2.7939">
        <ele>133.3</ele>
        <time>2015-09-15T13:55:17Z</time>
      </trkpt>
      <trkpt lat="48.54878" lon="-2.79403">
        <ele>133.3</ele>
        <time>2015-09-15T13:55:21Z</time>
      </trkpt>
      <trkpt lat="48.54868" lon="-2.79408">
        <ele>133.4</ele>
        <time>2015-09-15T13:55:24Z</time>
      </trkpt>
      <trkpt lat="48.54855" lon="-2.79402">
        <ele>133.4</ele>
        <time>2015-09-15T13:55:27Z</time>
      </trkpt>
      <trkpt lat="48.54844" lon="-2.79402">
        <ele>133.4</ele>
        <time>2015-09-15T13:55:29Z</time>
      </trkpt>
      <trkpt lat="48.54833" lon="-2.79401">
        <ele>133.4</ele>
        <time>2015-09-15T13:55:31Z</time>
      </trkpt>
      <trkpt lat="48.54823" lon="-2.79399">
        <ele>133.4</ele>
        <time>2015-09-15T13:55:33Z</time>
      </trkpt>
      <trkpt lat="48.54813" lon="-2.794">
        <ele>133.4</ele>
        <time>2015-09-15T13:55:35Z</time>
      </trkpt>
      <trkpt lat="48.54804" lon="-2.79408">
        <ele>133.5</ele>
        <time>2015-09-15T13:55:37Z</time>
      </trkpt>
      <trkpt lat="48.54797" lon="-2.79418">
        <ele>133.5</ele>
        <time>2015-09-15T13:55:39Z</time>
      </trkpt>
      <trkpt lat="48.54789" lon="-2.79427">
        <ele>133.5</ele>
        <time>2015-09-15T13:55:41Z</time>
      </trkpt>
      <trkpt lat="48.54781" lon="-2.79438">
        <ele>133.5</ele>
        <time>2015-09-15T13:55:43Z</time>
      </trkpt>
      <trkpt lat="48.54774" lon="-2.79449">
        <ele>133.5</ele>
        <time>2015-09-15T13:55:45Z</time>
      </trkpt>
      <trkpt lat="48.54766" lon="-2.7946">
        <ele>133.5</ele>
        <time>2015-09-15T13:55:47Z</time>
      </trkpt>
      <trkpt lat="48.54758" lon="-2.79471">
        <ele>133.5</ele>
        <time>2015-09-15T13:55:49Z</time>
      </trkpt>
      <trkpt lat="48.5475" lon="-2.79483">
        <ele>133.5</ele>
        <time>2015-09-15T13:55:51Z</time>
      </trkpt>
      <trkpt lat="48.54743" lon="-2.79495">
        <ele>133.5</ele>
        <time>2015-09-15T13:55:53Z</time>
      </trkpt>
      <trkpt lat="48.54736" lon="-2.79506">
        <ele>133.5</ele>
        <time>2015-09-15T13:55:55Z</time>
      </trkpt>
      <trkpt lat="48.54729" lon="-2.79518">
        <ele>133.5</ele>
        <time>2015-09-15T13:55:57Z</time>
      </trkpt>
      <trkpt lat="48.54724" lon="-2.79533">
        <ele>133.5</ele>
        <time>2015-09-15T13:55:59Z</time>
      </trkpt>
      <trkpt lat="48.54722" lon="-2.7955">
        <ele>133.5</ele>
        <time>2015-09-15T13:56:01Z</time>
      </trkpt>
      <trkpt lat="48.54721" lon="-2.79566">
        <ele>133.5</ele>
        <time>2015-09-15T13:56:03Z</time>
      </trkpt>
      <trkpt lat="48.5472" lon="-2.79583">
        <ele>133.4</ele>
        <time>2015-09-15T13:56:05Z</time>
      </trkpt>
      <trkpt lat="48.54719" lon="-2.79599">
        <ele>133.4</ele>
        <time>2015-09-15T13:56:07Z</time>
      </trkpt>
      <trkpt lat="48.54718" lon="-2.79615">
        <ele>133.4</ele>
        <time>2015-09-15T13:56:09Z</time>
      </trkpt>
      <trkpt lat="48.54718" lon="-2.79632">
        <ele>133.4</ele>
        <time>2015-09-15T13:56:11Z</time>
      </trkpt>
      <trkpt lat="48.54717" lon="-2.79648">
        <ele>133.4</ele>
        <time>2015-09-15T13:56:13Z</time>
      </trkpt>
      <trkpt lat="48.54715" lon="-2.79666">
        <ele>133.4</ele>
        <time>2015-09-15T13:56:15Z</time>
      </trkpt>
      <trkpt lat="48.54712" lon="-2.79683">
        <ele>133.4</ele>
        <time>2015-09-15T13:56:17Z</time>
      </trkpt>
      <trkpt lat="48.54708" lon="-2.79701">
        <ele>133.4</ele>
        <time>2015-09-15T13:56:19Z</time>
      </trkpt>
      <trkpt lat="48.54705" lon="-2.79718">
        <ele>133.4</ele>
        <time>2015-09-15T13:56:21Z</time>
      </trkpt>
      <trkpt lat="48.547" lon="-2.79734">
        <ele>133.4</ele>
        <time>2015-09-15T13:56:23Z</time>
      </trkpt>
      <trkpt lat="48.54695" lon="-2.79749">
        <ele>133.3</ele>
        <time>2015-09-15T13:56:25Z</time>
      </trkpt>
      <trkpt lat="48.54689" lon="-2.79764">
        <ele>133.2</ele>
        <time>2015-09-15T13:56:27Z</time>
      </trkpt>
      <trkpt lat="48.54684" lon="-2.79779">
        <ele>133.1</ele>
        <time>2015-09-15T13:56:29Z</time>
      </trkpt>
      <trkpt lat="48.54678" lon="-2.79795">
        <ele>133</ele>
        <time>2015-09-15T13:56:31Z</time>
      </trkpt>
      <trkpt lat="48.54673" lon="-2.79809">
        <ele>132.9</ele>
        <time>2015-09-15T13:56:33Z</time>
      </trkpt>
      <trkpt lat="48.54668" lon="-2.79823">
        <ele>132.8</ele>
        <time>2015-09-15T13:56:35Z</time>
      </trkpt>
      <trkpt lat="48.54664" lon="-2.79838">
        <ele>132.7</ele>
        <time>2015-09-15T13:56:37Z</time>
      </trkpt>
      <trkpt lat="48.54661" lon="-2.79854">
        <ele>132.7</ele>
        <time>2015-09-15T13:56:39Z</time>
      </trkpt>
      <trkpt lat="48.5466" lon="-2.79871">
        <ele>132.6</ele>
        <time>2015-09-15T13:56:41Z</time>
      </trkpt>
      <trkpt lat="48.54659" lon="-2.79888">
        <ele>132.5</ele>
        <time>2015-09-15T13:56:43Z</time>
      </trkpt>
      <trkpt lat="48.54653" lon="-2.79903">
        <ele>132.4</ele>
        <time>2015-09-15T13:56:45Z</time>
      </trkpt>
      <trkpt lat="48.54647" lon="-2.79916">
        <ele>132.3</ele>
        <time>2015-09-15T13:56:47Z</time>
      </trkpt>
      <trkpt lat="48.5464" lon="-2.79929">
        <ele>132.2</ele>
        <time>2015-09-15T13:56:49Z</time>
      </trkpt>
      <trkpt lat="48.54634" lon="-2.79941">
        <ele>132.1</ele>
        <time>2015-09-15T13:56:51Z</time>
      </trkpt>
      <trkpt lat="48.54627" lon="-2.79954">
        <ele>132.1</ele>
        <time>2015-09-15T13:56:53Z</time>
      </trkpt>
      <trkpt lat="48.5462" lon="-2.79965">
        <ele>132</ele>
        <time>2015-09-15T13:56:55Z</time>
      </trkpt>
      <trkpt lat="48.54612" lon="-2.79976">
        <ele>132</ele>
        <time>2015-09-15T13:56:57Z</time>
      </trkpt>
      <trkpt lat="48.54604" lon="-2.79986">
        <ele>131.9</ele>
        <time>2015-09-15T13:56:59Z</time>
      </trkpt>
      <trkpt lat="48.54595" lon="-2.79994">
        <ele>131.9</ele>
        <time>2015-09-15T13:57:01Z</time>
      </trkpt>
      <trkpt lat="48.54586" lon="-2.80001">
        <ele>131.9</ele>
        <time>2015-09-15T13:57:03Z</time>
      </trkpt>
      <trkpt lat="48.54578" lon="-2.80007">
        <ele>131.8</ele>
        <time>2015-09-15T13:57:05Z</time>
      </trkpt>
      <trkpt lat="48.54569" lon="-2.80015">
        <ele>131.8</ele>
        <time>2015-09-15T13:57:07Z</time>
      </trkpt>
      <trkpt lat="48.5456" lon="-2.80022">
        <ele>131.8</ele>
        <time>2015-09-15T13:57:09Z</time>
      </trkpt>
      <trkpt lat="48.54552" lon="-2.8003">
        <ele>131.8</ele>
        <time>2015-09-15T13:57:11Z</time>
      </trkpt>
      <trkpt lat="48.54545" lon="-2.80039">
        <ele>131.8</ele>
        <time>2015-09-15T13:57:13Z</time>
      </trkpt>
      <trkpt lat="48.5454" lon="-2.80051">
        <ele>131.9</ele>
        <time>2015-09-15T13:57:15Z</time>
      </trkpt>
      <trkpt lat="48.54539" lon="-2.80071">
        <ele>131.9</ele>
        <time>2015-09-15T13:57:18Z</time>
      </trkpt>
      <trkpt lat="48.54539" lon="-2.80087">
        <ele>131.9</ele>
        <time>2015-09-15T13:57:20Z</time>
      </trkpt>
      <trkpt lat="48.54541" lon="-2.80103">
        <ele>131.9</ele>
        <time>2015-09-15T13:57:22Z</time>
      </trkpt>
      <trkpt lat="48.54542" lon="-2.80121">
        <ele>131.9</ele>
        <time>2015-09-15T13:57:24Z</time>
      </trkpt>
      <trkpt lat="48.54544" lon="-2.80141">
        <ele>131.8</ele>
        <time>2015-09-15T13:57:26Z</time>
      </trkpt>
      <trkpt lat="48.54547" lon="-2.8016">
        <ele>131.8</ele>
        <time>2015-09-15T13:57:28Z</time>
      </trkpt>
      <trkpt lat="48.54548" lon="-2.80178">
        <ele>131.7</ele>
        <time>2015-09-15T13:57:30Z</time>
      </trkpt>
      <trkpt lat="48.54549" lon="-2.80196">
        <ele>131.6</ele>
        <time>2015-09-15T13:57:32Z</time>
      </trkpt>
      <trkpt lat="48.54542" lon="-2.8021">
        <ele>131.5</ele>
        <time>2015-09-15T13:57:34Z</time>
      </trkpt>
      <trkpt lat="48.54529" lon="-2.80214">
        <ele>131.4</ele>
        <time>2015-09-15T13:57:36Z</time>
      </trkpt>
      <trkpt lat="48.54517" lon="-2.80212">
        <ele>131.3</ele>
        <time>2015-09-15T13:57:38Z</time>
      </trkpt>
      <trkpt lat="48.54505" lon="-2.80216">
        <ele>131.1</ele>
        <time>2015-09-15T13:57:40Z</time>
      </trkpt>
      <trkpt lat="48.54491" lon="-2.80212">
        <ele>130.9</ele>
        <time>2015-09-15T13:57:42Z</time>
      </trkpt>
      <trkpt lat="48.54479" lon="-2.80211">
        <ele>130.8</ele>
        <time>2015-09-15T13:57:44Z</time>
      </trkpt>
      <trkpt lat="48.54469" lon="-2.80208">
        <ele>130.6</ele>
        <time>2015-09-15T13:57:46Z</time>
      </trkpt>
      <trkpt lat="48.54457" lon="-2.80207">
        <ele>130.5</ele>
        <time>2015-09-15T13:57:48Z</time>
      </trkpt>
      <trkpt lat="48.54446" lon="-2.80204">
        <ele>130.4</ele>
        <time>2015-09-15T13:57:50Z</time>
      </trkpt>
      <trkpt lat="48.54437" lon="-2.80201">
        <ele>130.5</ele>
        <time>2015-09-15T13:57:52Z</time>
      </trkpt>
      <trkpt lat="48.54427" lon="-2.80196">
        <ele>130.7</ele>
        <time>2015-09-15T13:57:55Z</time>
      </trkpt>
      <trkpt lat="48.54416" lon="-2.80192">
        <ele>131</ele>
        <time>2015-09-15T13:57:58Z</time>
      </trkpt>
      <trkpt lat="48.54405" lon="-2.8019">
        <ele>131.4</ele>
        <time>2015-09-15T13:58:01Z</time>
      </trkpt>
      <trkpt lat="48.54393" lon="-2.80188">
        <ele>131.6</ele>
        <time>2015-09-15T13:58:04Z</time>
      </trkpt>
      <trkpt lat="48.54381" lon="-2.80188">
        <ele>132</ele>
        <time>2015-09-15T13:58:07Z</time>
      </trkpt>
      <trkpt lat="48.54369" lon="-2.80193">
        <ele>132.3</ele>
        <time>2015-09-15T13:58:10Z</time>
      </trkpt>
      <trkpt lat="48.54358" lon="-2.80202">
        <ele>132.6</ele>
        <time>2015-09-15T13:58:13Z</time>
      </trkpt>
      <trkpt lat="48.54349" lon="-2.80214">
        <ele>132.8</ele>
        <time>2015-09-15T13:58:16Z</time>
      </trkpt>
      <trkpt lat="48.54342" lon="-2.8023">
        <ele>133.1</ele>
        <time>2015-09-15T13:58:19Z</time>
      </trkpt>
      <trkpt lat="48.54336" lon="-2.80247">
        <ele>133.3</ele>
        <time>2015-09-15T13:58:22Z</time>
      </trkpt>
      <trkpt lat="48.54332" lon="-2.80266">
        <ele>133.5</ele>
        <time>2015-09-15T13:58:25Z</time>
      </trkpt>
      <trkpt lat="48.54328" lon="-2.80285">
        <ele>133.8</ele>
        <time>2015-09-15T13:58:28Z</time>
      </trkpt>
      <trkpt lat="48.54326" lon="-2.80304">
        <ele>134</ele>
        <time>2015-09-15T13:58:31Z</time>
      </trkpt>
      <trkpt lat="48.54324" lon="-2.80323">
        <ele>134.3</ele>
        <time>2015-09-15T13:58:34Z</time>
      </trkpt>
      <trkpt lat="48.54322" lon="-2.80342">
        <ele>134.6</ele>
        <time>2015-09-15T13:58:37Z</time>
      </trkpt>
      <trkpt lat="48.54321" lon="-2.80362">
        <ele>134.8</ele>
        <time>2015-09-15T13:58:40Z</time>
      </trkpt>
      <trkpt lat="48.5432" lon="-2.80375">
        <ele>134.9</ele>
        <time>2015-09-15T13:58:42Z</time>
      </trkpt>
      <trkpt lat="48.54318" lon="-2.80394">
        <ele>135.1</ele>
        <time>2015-09-15T13:58:45Z</time>
      </trkpt>
      <trkpt lat="48.54316" lon="-2.80414">
        <ele>135.3</ele>
        <time>2015-09-15T13:58:48Z</time>
      </trkpt>
      <trkpt lat="48.54313" lon="-2.80433">
        <ele>135.6</ele>
        <time>2015-09-15T13:58:51Z</time>
      </trkpt>
      <trkpt lat="48.5431" lon="-2.80451">
        <ele>135.9</ele>
        <time>2015-09-15T13:58:54Z</time>
      </trkpt>
      <trkpt lat="48.54307" lon="-2.8047">
        <ele>136.1</ele>
        <time>2015-09-15T13:58:57Z</time>
      </trkpt>
      <trkpt lat="48.54305" lon="-2.8049">
        <ele>136.2</ele>
        <time>2015-09-15T13:59:00Z</time>
      </trkpt>
      <trkpt lat="48.543" lon="-2.80508">
        <ele>136.4</ele>
        <time>2015-09-15T13:59:03Z</time>
      </trkpt>
      <trkpt lat="48.54291" lon="-2.80523">
        <ele>136.5</ele>
        <time>2015-09-15T13:59:06Z</time>
      </trkpt>
      <trkpt lat="48.54282" lon="-2.80526">
        <ele>136.6</ele>
        <time>2015-09-15T13:59:08Z</time>
      </trkpt>
      <trkpt lat="48.54274" lon="-2.80522">
        <ele>136.6</ele>
        <time>2015-09-15T13:59:10Z</time>
      </trkpt>
      <trkpt lat="48.54266" lon="-2.80515">
        <ele>136.7</ele>
        <time>2015-09-15T13:59:12Z</time>
      </trkpt>
      <trkpt lat="48.54257" lon="-2.80507">
        <ele>136.7</ele>
        <time>2015-09-15T13:59:14Z</time>
      </trkpt>
      <trkpt lat="48.54248" lon="-2.80499">
        <ele>136.8</ele>
        <time>2015-09-15T13:59:16Z</time>
      </trkpt>
      <trkpt lat="48.54238" lon="-2.8049">
        <ele>136.9</ele>
        <time>2015-09-15T13:59:18Z</time>
      </trkpt>
      <trkpt lat="48.54229" lon="-2.80482">
        <ele>137</ele>
        <time>2015-09-15T13:59:20Z</time>
      </trkpt>
      <trkpt lat="48.5422" lon="-2.80474">
        <ele>137</ele>
        <time>2015-09-15T13:59:22Z</time>
      </trkpt>
      <trkpt lat="48.5421" lon="-2.80467">
        <ele>137.2</ele>
        <time>2015-09-15T13:59:24Z</time>
      </trkpt>
      <trkpt lat="48.54201" lon="-2.80459">
        <ele>137.3</ele>
        <time>2015-09-15T13:59:26Z</time>
      </trkpt>
      <trkpt lat="48.54191" lon="-2.80452">
        <ele>137.4</ele>
        <time>2015-09-15T13:59:28Z</time>
      </trkpt>
      <trkpt lat="48.54182" lon="-2.80445">
        <ele>137.5</ele>
        <time>2015-09-15T13:59:30Z</time>
      </trkpt>
      <trkpt lat="48.54173" lon="-2.80438">
        <ele>137.6</ele>
        <time>2015-09-15T13:59:32Z</time>
      </trkpt>
      <trkpt lat="48.54164" lon="-2.80431">
        <ele>137.6</ele>
        <time>2015-09-15T13:59:34Z</time>
      </trkpt>
      <trkpt lat="48.54155" lon="-2.80423">
        <ele>137.7</ele>
        <time>2015-09-15T13:59:36Z</time>
      </trkpt>
      <trkpt lat="48.54146" lon="-2.80417">
        <ele>137.7</ele>
        <time>2015-09-15T13:59:38Z</time>
      </trkpt>
      <trkpt lat="48.54137" lon="-2.80411">
        <ele>137.8</ele>
        <time>2015-09-15T13:59:40Z</time>
      </trkpt>
      <trkpt lat="48.54129" lon="-2.80405">
        <ele>137.8</ele>
        <time>2015-09-15T13:59:42Z</time>
      </trkpt>
      <trkpt lat="48.54117" lon="-2.80396">
        <ele>137.9</ele>
        <time>2015-09-15T13:59:45Z</time>
      </trkpt>
      <trkpt lat="48.54106" lon="-2.80393">
        <ele>137.9</ele>
        <time>2015-09-15T13:59:48Z</time>
      </trkpt>
      <trkpt lat="48.54098" lon="-2.80405">
        <ele>138</ele>
        <time>2015-09-15T13:59:51Z</time>
      </trkpt>
      <trkpt lat="48.54091" lon="-2.80422">
        <ele>138</ele>
        <time>2015-09-15T13:59:54Z</time>
      </trkpt>
      <trkpt lat="48.54086" lon="-2.80434">
        <ele>138</ele>
        <time>2015-09-15T13:59:56Z</time>
      </trkpt>
      <trkpt lat="48.5408" lon="-2.80448">
        <ele>138</ele>
        <time>2015-09-15T13:59:58Z</time>
      </trkpt>
      <trkpt lat="48.54074" lon="-2.80463">
        <ele>138.1</ele>
        <time>2015-09-15T14:00:00Z</time>
      </trkpt>
      <trkpt lat="48.5407" lon="-2.80478">
        <ele>138.3</ele>
        <time>2015-09-15T14:00:02Z</time>
      </trkpt>
      <trkpt lat="48.54066" lon="-2.80494">
        <ele>138.4</ele>
        <time>2015-09-15T14:00:04Z</time>
      </trkpt>
      <trkpt lat="48.54062" lon="-2.8051">
        <ele>138.5</ele>
        <time>2015-09-15T14:00:06Z</time>
      </trkpt>
      <trkpt lat="48.54059" lon="-2.80526">
        <ele>138.5</ele>
        <time>2015-09-15T14:00:08Z</time>
      </trkpt>
      <trkpt lat="48.54058" lon="-2.80542">
        <ele>138.6</ele>
        <time>2015-09-15T14:00:10Z</time>
      </trkpt>
      <trkpt lat="48.54057" lon="-2.80558">
        <ele>138.7</ele>
        <time>2015-09-15T14:00:12Z</time>
      </trkpt>
      <trkpt lat="48.54057" lon="-2.80574">
        <ele>138.8</ele>
        <time>2015-09-15T14:00:14Z</time>
      </trkpt>
      <trkpt lat="48.54058" lon="-2.80588">
        <ele>138.9</ele>
        <time>2015-09-15T14:00:16Z</time>
      </trkpt>
      <trkpt lat="48.5406" lon="-2.80607">
        <ele>139.1</ele>
        <time>2015-09-15T14:00:19Z</time>
      </trkpt>
      <trkpt lat="48.54065" lon="-2.80619">
        <ele>139.2</ele>
        <time>2015-09-15T14:00:22Z</time>
      </trkpt>
      <trkpt lat="48.54074" lon="-2.80611">
        <ele>139.5</ele>
        <time>2015-09-15T14:00:27Z</time>
      </trkpt>
      <trkpt lat="48.54083" lon="-2.80615">
        <ele>140</ele>
        <time>2015-09-15T14:00:31Z</time>
      </trkpt>
      <trkpt lat="48.54091" lon="-2.80624">
        <ele>140.3</ele>
        <time>2015-09-15T14:00:35Z</time>
      </trkpt>
      <trkpt lat="48.54098" lon="-2.80623">
        <ele>140.9</ele>
        <time>2015-09-15T14:00:44Z</time>
      </trkpt>
    </trkseg>
  </trk>
</gpx>